[[{"header":{"parameterUnit":"m.s-1","parameterCategory":1,"la1":30.6,"la2":28.766,"lo1":-90.7593,"lo2":-88.6598,"dy":0.0162,"dx":0.0183,"nx":116,"ny":114,"refTime":"2023-07-10T12:00:00:Z","depth":0,"parameterNumber":2,"parameterNumberName":"U-component_of_WINDS"},"data":[0.0,0.0,0.0,0.0,0.0,0.0,0.0,0.0,0.0,0.0,0.0,0.0,0.0,0.0,0.0,0.0,0.0,0.0,0.0,0.0,0.0,0.0,0.0,0.0,0.0,0.0,0.0,0.0,0.0,0.0,0.0,0.0,0.0,0.0,0.0,0.0,0.0,0.0,0.0,0.0,0.0,0.0,0.0,0.0,0.0,0.0,0.0,0.0,0.0,0.0,0.0,0.0,0.0,0.0,0.0,0.0,0.0,0.0,0.0,0.0,0.0,0.0,0.0,0.0,0.0,0.0,0.0,0.0,0.0,0.0,0.0,0.0,0.0,0.0,0.0,0.0,0.0,0.0,0.0,0.0,0.0,0.0,0.0,0.0,0.0,0.0,0.0,0.0,0.0,0.0,0.0,0.0,0.0,0.0,0.0,0.0,0.0,0.0,0.0,0.0,0.0,0.0,0.0,0.0,0.0,0.0,0.0,0.0,0.0,0.0,0.0,0.0,0.0,0.0,0.0,0.0,0.0,0.0,0.0,0.0,0.0,0.0,0.0,0.0,0.0,0.0,0.0,0.0,0.0,0.0,0.0,0.0,0.0,0.0,0.0,0.0,0.0,0.0,0.0,0.0,0.0,0.0,0.0,0.0,0.0,0.0,0.0,0.0,0.0,0.0,0.0,0.0,0.0,0.0,0.0,0.0,0.0,0.0,0.0,0.0,0.0,0.0,0.0,0.0,0.0,0.0,0.0,0.0,0.0,0.0,0.0,0.0,0.0,0.0,0.0,0.0,0.0,0.0,0.0,0.0,0.0,0.0,0.0,0.0,0.0,0.0,0.0,0.0,0.0,0.0,0.0,0.0,0.0,0.0,0.0,0.0,0.0,0.0,0.0,0.0,0.0,0.0,0.0,0.0,0.0,0.0,0.0,0.0,0.0,0.0,0.0,0.0,0.0,0.0,0.0,0.0,0.0,0.0,0.0,0.0,0.0,0.0,0.0,0.0,0.0,0.0,0.0,0.0,0.0,0.0,0.0,0.0,0.0,0.0,0.0,0.0,0.0,0.0,0.0,0.0,0.0,0.0,0.0,0.0,0.0,0.0,0.0,0.0,0.0,0.0,0.0,0.0,0.0,0.0,0.0,0.0,0.0,0.0,0.0,0.0,0.0,0.0,0.0,0.0,0.0,0.0,0.0,0.0,0.0,0.0,0.0,0.0,0.0,0.0,0.0,0.0,0.0,0.0,0.0,0.0,0.0,0.0,0.0,0.0,0.0,0.0,0.0,0.0,0.0,0.0,0.0,0.0,0.0,0.0,0.0,0.0,0.0,0.0,0.0,0.0,0.0,0.0,0.0,0.0,0.0,0.0,0.0,0.0,0.0,0.0,0.0,0.0,0.0,0.0,0.0,0.0,0.0,0.0,0.0,0.0,0.0,0.0,0.0,0.0,0.0,0.0,0.0,0.0,0.0,0.0,0.0,0.0,0.0,0.0,0.0,0.0,0.0,0.0,0.0,0.0,0.0,0.0,0.0,0.0,0.0,0.0,0.0,0.0,0.0,0.0,0.0,0.0,0.0,0.0,0.0,0.0,0.0,0.0,0.0,0.0,0.0,0.0,0.0,0.0,0.0,0.0,0.0,0.0,0.0,0.0,0.0,0.0,0.0,0.0,0.0,0.0,0.0,0.0,0.0,0.0,0.0,0.0,0.0,0.0,0.0,0.0,0.0,0.0,0.0,0.0,0.0,0.0,0.0,0.0,0.0,0.0,0.0,0.0,0.0,0.0,0.0,0.0,0.0,0.0,0.0,0.0,0.0,0.0,0.0,0.0,0.0,0.0,0.0,0.0,0.0,0.0,0.0,0.0,0.0,0.0,0.0,0.0,0.0,0.0,0.0,0.0,0.0,0.0,0.0,0.0,0.0,0.0,0.0,0.0,0.0,0.0,0.0,0.0,0.0,0.0,0.0,0.0,0.0,0.0,0.0,0.0,0.0,0.0,0.0,0.0,0.0,0.0,0.0,0.0,0.0,0.0,0.0,0.0,0.0,0.0,0.0,0.0,0.0,0.0,0.0,0.0,0.0,0.0,0.0,0.0,0.0,0.0,0.0,0.0,0.0,0.0,0.0,0.0,0.0,0.0,0.0,0.0,0.0,0.0,0.0,0.0,0.0,0.0,0.0,0.0,0.0,0.0,0.0,0.0,0.0,0.0,0.0,0.0,0.0,0.0,0.0,0.0,0.0,0.0,0.0,0.0,0.0,0.0,0.0,0.0,0.0,0.0,0.0,0.0,0.0,0.0,0.0,0.0,0.0,0.0,0.0,0.0,0.0,0.0,0.0,0.0,0.0,0.0,0.0,0.0,0.0,0.0,0.0,0.0,0.0,0.0,0.0,0.0,0.0,0.0,0.0,0.0,0.0,0.0,0.0,0.0,0.0,0.0,0.0,0.0,0.0,0.0,0.0,0.0,0.0,0.0,0.0,0.0,0.0,0.0,0.0,0.0,0.0,0.0,0.0,0.0,0.0,0.0,0.0,0.0,0.0,0.0,0.0,0.0,0.0,0.0,0.0,0.0,0.0,0.0,0.0,0.0,0.0,0.0,0.0,0.0,0.0,0.0,0.0,0.0,0.0,0.0,0.0,0.0,0.0,0.0,0.0,0.0,0.0,0.0,0.0,0.0,0.0,0.0,0.0,0.0,0.0,0.0,0.0,0.0,0.0,0.0,0.0,0.0,0.0,0.0,0.0,0.0,0.0,0.0,0.0,0.0,0.0,0.0,0.0,0.0,0.0,0.0,0.0,0.0,0.0,0.0,0.0,0.0,0.0,0.0,0.0,0.0,0.0,0.0,0.0,0.0,0.0,0.0,0.0,0.0,0.0,0.0,0.0,0.0,0.0,0.0,0.0,0.0,0.0,0.0,0.0,0.0,0.0,0.0,0.0,0.0,0.0,0.0,0.0,0.0,0.0,0.0,0.0,0.0,0.0,0.0,0.0,0.0,0.0,0.0,0.0,0.0,0.0,0.0,0.0,0.0,0.0,0.0,0.0,0.0,0.0,0.0,0.0,0.0,0.0,0.0,0.0,0.0,0.0,0.0,0.0,0.0,0.0,0.0,0.0,0.0,0.0,0.0,0.0,0.0,0.0,0.0,0.0,0.0,0.0,0.0,0.0,0.0,0.0,0.0,0.0,0.0,0.0,0.0,0.0,0.0,0.0,0.0,0.0,0.0,0.0,0.0,0.0,0.0,0.0,0.0,0.0,0.0,0.0,0.0,0.0,0.0,0.0,0.0,0.0,0.0,0.0,0.0,0.0,0.0,0.0,0.0,0.0,0.0,0.0,0.0,0.0,0.0,0.0,0.0,0.0,0.0,0.0,0.0,0.0,0.0,0.0,0.0,0.0,0.0,0.0,0.0,0.0,0.0,0.0,0.0,0.0,0.0,0.0,0.0,0.0,0.0,0.0,0.0,0.0,0.0,0.0,0.0,0.0,0.0,0.0,0.0,0.0,0.0,0.0,0.0,0.0,0.0,0.0,0.0,0.0,0.0,0.0,0.0,0.0,0.0,0.0,0.0,0.0,0.0,0.0,0.0,0.0,0.0,0.0,0.0,0.0,0.0,0.0,0.0,0.0,0.0,0.0,0.0,0.0,0.0,0.0,0.0,0.0,0.0,0.0,0.0,0.0,0.0,0.0,0.0,0.0,0.0,0.0,0.0,0.0,0.0,0.0,0.0,0.0,0.0,0.0,0.0,0.0,0.0,0.0,0.0,0.0,0.0,0.0,0.0,0.0,0.0,0.0,0.0,0.0,0.0,0.0,0.0,0.0,0.0,0.0,0.0,0.0,0.0,0.0,0.0,0.0,0.0,0.0,0.0,0.0,0.0,0.0,0.0,0.0,0.0,0.0,0.0,0.0,0.0,0.0,0.0,0.0,0.0,0.0,0.0,0.0,0.0,0.0,0.0,0.0,0.0,0.0,0.0,0.0,0.0,0.0,0.0,0.0,0.0,0.0,0.0,0.0,0.0,0.0,0.0,0.0,0.0,0.0,0.0,0.0,0.0,0.0,0.0,0.0,0.0,0.0,0.0,0.0,0.0,0.0,0.0,0.0,0.0,0.0,0.0,0.0,0.0,0.0,0.0,0.0,0.0,0.0,0.0,0.0,0.0,0.0,0.0,0.0,0.0,0.0,0.0,0.0,0.0,0.0,0.0,0.0,0.0,0.0,0.0,0.0,0.0,0.0,0.0,0.0,0.0,0.0,0.0,0.0,0.0,0.0,0.0,0.0,0.0,0.0,0.0,0.0,0.0,0.0,0.0,0.0,0.0,0.0,0.0,0.0,0.0,0.0,0.0,0.0,0.0,0.0,0.0,0.0,0.0,0.0,0.0,0.0,0.0,0.0,0.0,0.0,0.0,0.0,0.0,0.0,0.0,0.0,0.0,0.0,0.0,0.0,0.0,0.0,0.0,0.0,0.0,0.0,0.0,0.0,0.0,0.0,0.0,0.0,0.0,0.0,0.0,0.0,0.0,0.0,0.0,0.0,0.0,0.0,0.0,0.0,0.0,0.0,0.0,0.0,0.0,0.0,0.0,0.0,0.0,0.0,0.0,0.0,0.0,0.0,0.0,0.0,0.0,0.0,0.0,0.0,0.0,0.0,0.0,0.0,0.0,0.0,0.0,0.0,0.0,0.0,0.0,0.0,0.0,0.0,0.0,0.0,0.0,0.0,0.0,0.0,0.0,0.0,0.0,0.0,0.0,0.0,0.0,0.0,0.0,0.0,0.0,0.0,0.0,0.0,0.0,0.0,0.0,0.0,0.0,0.0,0.0,0.0,0.0,0.0,0.0,0.0,0.0,0.0,0.0,0.0,0.0,0.0,0.0,0.0,0.0,0.0,0.0,0.0,0.0,0.0,0.0,0.0,0.0,0.0,0.0,0.0,0.0,0.0,0.0,0.0,0.0,0.0,0.0,0.0,0.0,0.0,0.0,0.0,0.0,0.0,0.0,0.0,0.0,0.0,0.0,0.0,0.0,0.0,0.0,0.0,0.0,0.0,0.0,0.0,0.0,0.0,0.0,0.0,0.0,0.0,0.0,0.0,0.0,0.0,0.0,0.0,0.0,0.0,0.0,0.0,0.0,0.0,0.0,0.0,0.0,0.0,0.0,0.0,0.0,0.0,0.0,0.0,0.0,0.0,0.0,0.0,0.0,0.0,0.0,0.0,0.0,0.0,0.0,0.0,0.0,0.0,0.0,0.0,0.0,0.0,0.0,0.0,0.0,0.0,0.0,0.0,0.0,0.0,0.0,0.0,0.0,0.0,0.0,0.0,0.0,0.0,0.0,0.0,0.0,0.0,0.0,0.0,0.0,0.0,0.0,0.0,0.0,0.0,0.0,0.0,0.0,0.0,0.0,0.0,0.0,0.0,0.0,0.0,0.0,0.0,0.0,0.0,0.0,0.0,0.0,0.0,0.0,0.0,0.0,0.0,0.0,0.0,0.0,0.0,0.0,0.0,0.0,0.0,0.0,0.0,0.0,0.0,0.0,0.0,0.0,0.0,0.0,0.0,0.0,0.0,0.0,0.0,0.0,0.0,0.0,0.0,0.0,0.0,0.0,0.0,0.0,0.0,0.0,0.0,0.0,0.0,0.0,0.0,0.0,0.0,0.0,0.0,0.0,0.0,0.0,0.0,0.0,0.0,0.0,0.0,0.0,0.0,0.0,0.0,0.0,0.0,0.0,0.0,0.0,0.0,0.0,0.0,0.0,0.0,0.0,0.0,0.0,0.0,0.0,0.0,0.0,0.0,0.0,0.0,0.0,0.0,0.0,0.0,0.0,0.0,0.0,0.0,0.0,0.0,0.0,0.0,0.0,0.0,0.0,0.0,0.0,0.0,0.0,0.0,0.0,0.0,0.0,0.0,0.0,0.0,0.0,0.0,0.0,0.0,0.0,0.0,0.0,0.0,0.0,0.0,0.0,0.0,0.0,0.0,0.0,0.0,0.0,0.0,0.0,0.0,0.0,0.0,0.0,0.0,0.0,0.0,0.0,0.0,0.0,0.0,0.0,0.0,0.0,0.0,0.0,0.0,0.0,0.0,0.0,0.0,0.0,0.0,0.0,-0.9652,-0.8834,0.0,0.0,0.0,0.0,0.0,0.0,0.0,0.0,0.0,0.0,0.0,0.0,0.0,0.0,0.0,0.0,0.0,0.0,0.0,0.0,0.0,0.0,0.0,0.0,0.0,0.0,0.0,0.0,0.0,0.0,0.0,0.0,0.0,0.0,0.0,0.0,0.0,0.0,0.0,0.0,0.0,0.0,0.0,0.0,0.0,0.0,0.0,0.0,0.0,0.0,0.0,0.0,0.0,0.0,0.0,0.0,0.0,0.0,0.0,0.0,0.0,0.0,0.0,0.0,0.0,0.0,0.0,0.0,0.0,0.0,0.0,0.0,0.0,0.0,0.0,0.0,0.0,0.0,0.0,0.0,0.0,0.0,0.0,0.0,0.0,0.0,0.0,0.0,0.0,0.0,0.0,0.0,0.0,0.0,0.0,0.0,0.0,0.0,0.0,0.0,0.0,0.0,0.0,0.0,0.0,0.0,0.0,0.0,0.0,0.0,0.0,0.0,0.0,0.0,-1.0489,-0.9846,0.0,0.0,0.0,0.0,0.0,0.0,0.0,0.0,0.0,0.0,0.0,0.0,0.0,0.0,0.0,0.0,0.0,0.0,0.0,0.0,0.0,0.0,0.0,0.0,0.0,0.0,0.0,0.0,0.0,0.0,0.0,0.0,0.0,0.0,0.0,0.0,0.0,0.0,0.0,0.0,0.0,0.0,0.0,0.0,0.0,0.0,0.0,0.0,0.0,0.0,0.0,0.0,0.0,0.0,0.0,0.0,0.0,0.0,0.0,0.0,0.0,0.0,0.0,0.0,0.0,0.0,0.0,0.0,0.0,0.0,0.0,0.0,0.0,0.0,0.0,0.0,0.0,0.0,0.0,0.0,0.0,0.0,0.0,0.0,0.0,0.0,0.0,0.0,0.0,0.0,0.0,0.0,0.0,0.0,0.0,0.0,0.0,0.0,0.0,0.0,0.0,0.0,0.0,0.0,0.0,0.0,0.0,0.0,-1.0983,-1.1312,-1.1636,-1.1414,-1.183,-1.2586,-1.1582,-1.122,-1.1223,-1.0262,0.0,0.0,0.0,0.0,0.0,0.0,0.0,0.0,0.0,0.0,0.0,0.0,0.0,0.0,0.0,0.0,0.0,0.0,0.0,0.0,0.0,0.0,0.0,0.0,0.0,0.0,0.0,0.0,0.0,0.0,0.0,0.0,0.0,0.0,0.0,0.0,0.0,0.0,0.0,0.0,0.0,0.0,0.0,0.0,0.0,0.0,0.0,0.0,0.0,0.0,0.0,0.0,0.0,0.0,0.0,0.0,0.0,0.0,0.0,0.0,0.0,0.0,0.0,0.0,0.0,0.0,0.0,0.0,0.0,0.0,0.0,0.0,0.0,0.0,0.0,0.0,0.0,0.0,0.0,0.0,0.0,0.0,0.0,0.0,0.0,0.0,-1.1051,-1.0692,0.0,0.0,0.0,0.0,0.0,0.0,0.0,0.0,0.0,0.0,0.0,0.0,0.0,-1.0534,-1.0909,-1.1715,-1.2182,-1.2382,-1.322,-1.3638,-1.371,-1.3671,-1.3761,-1.3878,-1.3715,0.0,-1.2139,-1.1981,0.0,0.0,0.0,0.0,0.0,0.0,0.0,0.0,0.0,0.0,0.0,0.0,0.0,0.0,0.0,0.0,0.0,0.0,0.0,0.0,0.0,0.0,0.0,0.0,0.0,0.0,0.0,0.0,0.0,0.0,0.0,0.0,0.0,0.0,0.0,0.0,0.0,0.0,0.0,0.0,0.0,0.0,0.0,0.0,0.0,0.0,0.0,0.0,0.0,0.0,0.0,0.0,0.0,0.0,0.0,0.0,0.0,0.0,0.0,0.0,0.0,0.0,0.0,0.0,0.0,0.0,0.0,0.0,0.0,0.0,0.0,0.0,0.0,0.0,0.0,0.0,0.0,0.0,0.0,0.0,0.0,0.0,0.0,0.0,0.0,-1.1349,-1.1421,-1.1383,-1.1038,-1.0783,0.0,0.0,0.0,0.0,0.0,0.0,0.0,0.0,0.0,-1.1605,-1.1724,-1.2077,-1.2775,-1.3296,-1.3613,-1.3698,-1.4342,-1.4669,-1.4823,-1.4823,-1.4823,-1.4823,-1.4823,-1.4488,-1.3724,-1.3073,-1.2686,-1.2318,0.0,0.0,0.0,0.0,-1.1805,-1.197,0.0,0.0,0.0,0.0,0.0,0.0,0.0,0.0,0.0,0.0,0.0,0.0,0.0,0.0,0.0,-1.6878,0.0,0.0,0.0,0.0,0.0,0.0,0.0,0.0,0.0,0.0,0.0,0.0,0.0,0.0,0.0,0.0,0.0,0.0,0.0,0.0,0.0,0.0,0.0,0.0,0.0,0.0,0.0,0.0,0.0,0.0,0.0,0.0,0.0,0.0,0.0,0.0,0.0,0.0,0.0,0.0,0.0,0.0,0.0,0.0,0.0,0.0,0.0,0.0,0.0,0.0,0.0,0.0,0.0,0.0,0.0,0.0,0.0,0.0,0.0,0.0,0.0,-1.1534,-1.173,-1.1879,-1.169,-1.1655,0.0,0.0,0.0,0.0,0.0,0.0,-1.14,-1.156,-1.2146,-1.3163,-1.3175,-1.3607,-1.4416,-1.471,-1.489,-1.497,-1.5264,-1.5524,-1.5732,-1.5732,-1.5732,-1.5732,-1.5732,-1.5611,-1.5351,-1.4171,-1.3694,-1.357,-1.2777,-1.2542,-1.2656,-1.2801,-1.2915,-1.3048,0.0,0.0,0.0,0.0,0.0,0.0,0.0,0.0,0.0,0.0,0.0,0.0,0.0,0.0,-1.6312,-1.6092,-1.6031,-1.5933,0.0,0.0,0.0,0.0,0.0,0.0,0.0,0.0,0.0,0.0,0.0,0.0,0.0,0.0,0.0,0.0,0.0,0.0,0.0,0.0,0.0,0.0,0.0,0.0,0.0,0.0,0.0,0.0,0.0,0.0,0.0,0.0,0.0,0.0,0.0,0.0,0.0,0.0,0.0,0.0,0.0,0.0,0.0,0.0,0.0,0.0,0.0,0.0,0.0,0.0,0.0,0.0,0.0,0.0,0.0,0.0,0.0,0.0,0.0,0.0,0.0,-1.2057,-1.1687,0.0,0.0,0.0,0.0,-1.1369,-1.1944,-1.2423,-1.2581,-1.2925,-1.3468,-1.4376,-1.4389,-1.475,-1.5324,-1.5618,-1.5905,-1.6186,-1.648,-1.6627,-1.664,-1.664,-1.664,-1.664,-1.664,-1.6633,-1.6533,-1.5391,-1.4917,-1.489,-1.4502,-1.4555,-1.4774,-1.4475,-1.4629,-1.4836,0.0,0.0,0.0,0.0,0.0,0.0,0.0,0.0,0.0,0.0,0.0,0.0,0.0,-1.602,-1.6176,-1.7291,-1.6627,-1.6332,-1.6869,0.0,0.0,0.0,0.0,0.0,0.0,0.0,0.0,0.0,0.0,0.0,0.0,0.0,0.0,0.0,0.0,0.0,0.0,0.0,0.0,0.0,0.0,0.0,0.0,0.0,0.0,0.0,0.0,0.0,0.0,0.0,0.0,0.0,0.0,0.0,0.0,0.0,0.0,0.0,0.0,0.0,0.0,0.0,0.0,0.0,0.0,0.0,0.0,0.0,0.0,0.0,0.0,0.0,0.0,0.0,0.0,0.0,0.0,0.0,0.0,-1.251,-1.2453,0.0,-1.2654,-1.2679,-1.2794,-1.2908,-1.3438,-1.3769,-1.3854,-1.4298,-1.487,-1.5351,-1.5551,-1.5838,-1.6233,-1.6339,-1.6446,-1.6553,-1.6653,-1.6807,-1.6987,-1.6987,-1.6987,-1.6987,-1.6987,-1.6881,-1.6673,-1.6253,-1.6086,-1.6052,-1.5758,-1.5598,-1.5484,-1.519,-1.5037,-1.495,0.0,0.0,0.0,0.0,0.0,0.0,0.0,0.0,0.0,0.0,0.0,-1.6436,-1.6522,-1.6064,-1.6221,-1.734,-1.6627,-1.6332,-1.6847,0.0,0.0,0.0,0.0,0.0,0.0,0.0,0.0,0.0,0.0,0.0,0.0,0.0,0.0,0.0,0.0,0.0,0.0,0.0,0.0,0.0,0.0,0.0,-1.4314,0.0,0.0,0.0,0.0,0.0,0.0,0.0,0.0,0.0,0.0,0.0,0.0,0.0,0.0,0.0,0.0,0.0,0.0,0.0,0.0,0.0,0.0,0.0,0.0,0.0,0.0,0.0,0.0,0.0,0.0,0.0,0.0,0.0,0.0,0.0,-1.2819,-1.2948,-1.3074,-1.3264,-1.3561,-1.3684,-1.3808,-1.419,-1.4654,-1.4963,-1.4963,-1.5518,-1.5925,-1.6119,-1.6319,-1.656,-1.6854,-1.6854,-1.6901,-1.7001,-1.7001,-1.7108,-1.7295,-1.7295,-1.7295,-1.7295,-1.7295,-1.7181,-1.7001,-1.7001,-1.7001,-1.6961,-1.6573,-1.6299,-1.6106,-1.5905,-1.5718,-1.5551,0.0,0.0,0.0,0.0,0.0,0.0,0.0,0.0,0.0,0.0,-1.6522,-1.6522,-1.6522,-1.6466,-1.6357,-1.6076,-1.6014,-1.5807,-1.5467,-1.541,0.0,0.0,0.0,0.0,0.0,0.0,0.0,0.0,0.0,0.0,0.0,0.0,0.0,0.0,0.0,0.0,0.0,0.0,0.0,0.0,0.0,0.0,-1.4832,0.0,0.0,0.0,0.0,0.0,0.0,0.0,0.0,0.0,0.0,0.0,0.0,0.0,0.0,0.0,0.0,0.0,0.0,0.0,0.0,0.0,0.0,0.0,0.0,0.0,0.0,0.0,0.0,0.0,0.0,0.0,0.0,0.0,-1.2835,-1.2849,-1.2928,-1.3274,-1.3517,-1.3831,-1.4241,-1.4475,-1.4689,-1.4997,-1.5538,-1.5852,-1.5852,-1.6406,-1.672,-1.672,-1.6727,-1.6874,-1.7161,-1.7161,-1.7301,-1.7582,-1.7582,-1.7582,-1.7582,-1.7582,-1.7582,-1.7582,-1.7582,-1.7582,-1.7582,-1.7582,-1.7582,-1.7528,-1.6954,-1.6727,-1.672,-1.672,-1.6714,-1.6707,0.0,0.0,0.0,0.0,0.0,0.0,0.0,0.0,0.0,0.0,-1.6522,-1.6522,-1.6522,-1.6095,-1.6107,-1.672,-1.5924,-1.5616,-1.6146,0.0,0.0,0.0,0.0,0.0,0.0,0.0,0.0,0.0,0.0,0.0,0.0,0.0,0.0,0.0,0.0,0.0,0.0,0.0,0.0,0.0,0.0,0.0,-1.445,0.0,0.0,0.0,0.0,0.0,0.0,0.0,0.0,0.0,0.0,0.0,0.0,0.0,0.0,0.0,0.0,0.0,0.0,0.0,0.0,0.0,0.0,0.0,0.0,0.0,0.0,0.0,0.0,0.0,0.0,0.0,0.0,-1.332,-1.3113,-1.3454,-1.3861,-1.415,-1.4469,-1.483,-1.5319,-1.5378,-1.5678,-1.6192,-1.6373,-1.6466,-1.6466,-1.682,-1.7027,-1.7027,-1.7235,-1.7382,-1.7462,-1.7462,-1.7502,-1.7582,-1.7582,-1.7582,-1.7582,-1.7582,-1.7582,-1.7582,-1.7582,-1.7582,-1.7582,-1.7582,-1.7582,-1.7569,-1.7402,-1.7208,-1.7027,-1.7027,-1.6894,-1.6707,0.0,0.0,0.0,0.0,0.0,0.0,0.0,0.0,0.0,0.0,-1.6522,-1.6522,-1.6522,-1.6194,-1.6152,-1.6622,-1.5924,-1.5669,-1.6032,0.0,0.0,0.0,0.0,0.0,0.0,0.0,0.0,0.0,0.0,0.0,0.0,0.0,0.0,0.0,0.0,0.0,0.0,0.0,0.0,0.0,0.0,0.0,-1.5089,-1.4505,-1.397,-1.3564,-1.392,-1.3848,-1.3535,-1.3978,0.0,0.0,0.0,0.0,0.0,0.0,0.0,0.0,0.0,0.0,0.0,0.0,0.0,0.0,0.0,0.0,0.0,0.0,0.0,0.0,0.0,0.0,0.0,0.0,-1.352,-1.3854,-1.3935,-1.4135,-1.4469,-1.5003,-1.5224,-1.5558,-1.6139,-1.6199,-1.6339,-1.668,-1.682,-1.6894,-1.6894,-1.7174,-1.7328,-1.7328,-1.7495,-1.7582,-1.7582,-1.7582,-1.7582,-1.7582,-1.7582,-1.7582,-1.7582,-1.7582,-1.7582,-1.7582,-1.7582,-1.7582,-1.7582,-1.7582,-1.7582,-1.7582,0.0,0.0,0.0,0.0,-1.7221,-1.7074,0.0,0.0,0.0,0.0,0.0,0.0,0.0,0.0,0.0,0.0,0.0,-1.6522,-1.6522,-1.6522,-1.6402,-1.6126,-1.6115,-1.5902,0.0,0.0,0.0,0.0,0.0,0.0,0.0,0.0,0.0,0.0,0.0,0.0,0.0,0.0,0.0,0.0,0.0,0.0,0.0,0.0,0.0,0.0,0.0,0.0,-1.6349,-1.4985,-1.4072,-1.363,-1.4482,-1.4266,-1.363,-1.4545,0.0,0.0,0.0,0.0,0.0,0.0,0.0,0.0,0.0,0.0,0.0,0.0,0.0,0.0,0.0,0.0,0.0,0.0,0.0,0.0,0.0,0.0,0.0,0.0,-1.4021,-1.4429,-1.4983,-1.4863,-1.501,-1.5785,-1.5912,-1.6146,-1.67,-1.676,-1.6767,-1.68,-1.7048,-1.7201,-1.7201,-1.7442,0.0,0.0,0.0,-1.7582,-1.7582,-1.7582,-1.7582,-1.7582,-1.7582,-1.7582,-1.7582,-1.7582,-1.7582,-1.7582,-1.7582,-1.7582,-1.7582,-1.7582,-1.7582,-1.7582,-1.7582,-1.7582,-1.7582,-1.7582,-1.7582,-1.7582,0.0,0.0,0.0,0.0,0.0,0.0,0.0,0.0,0.0,-1.5768,-1.6233,-1.6522,-1.6522,-1.6522,-1.6581,-1.6867,-1.6776,-1.6539,0.0,0.0,0.0,0.0,0.0,0.0,0.0,0.0,0.0,0.0,0.0,0.0,0.0,0.0,0.0,0.0,0.0,0.0,0.0,0.0,0.0,0.0,0.0,0.0,-1.6955,-1.5917,-1.4767,-1.368,-1.389,-1.3818,-1.3753,-1.4243,-1.4314,-1.4106,-1.3702,0.0,0.0,0.0,0.0,0.0,0.0,0.0,0.0,0.0,0.0,0.0,0.0,0.0,0.0,0.0,0.0,0.0,0.0,0.0,0.0,-1.4295,-1.4796,-1.5264,-1.5611,-1.5818,-1.5992,-1.6166,-1.6393,-1.6673,-1.7027,-1.7061,-1.7161,-1.7395,-1.7468,-1.7502,-1.7502,-1.7555,-1.7582,-1.7582,-1.7582,-1.7582,-1.7582,-1.7582,-1.7582,-1.7582,-1.7582,0.0,-1.7582,-1.7582,-1.7582,-1.7582,-1.7582,-1.7582,-1.7582,-1.7582,-1.7582,-1.7582,-1.7582,-1.7582,-1.7582,-1.7582,-1.7582,-1.7582,0.0,0.0,0.0,0.0,0.0,0.0,0.0,0.0,0.0,0.0,-1.617,-1.6522,-1.6522,-1.6479,-1.6593,-1.6977,-1.6768,0.0,0.0,0.0,0.0,0.0,0.0,0.0,0.0,0.0,0.0,0.0,0.0,0.0,0.0,0.0,0.0,0.0,0.0,0.0,0.0,0.0,0.0,0.0,0.0,0.0,-1.8405,-1.7025,-1.5802,-1.4751,-1.5078,-1.4871,-1.4522,-1.5226,-1.5155,-1.4665,-1.4106,-1.4042,-1.4186,0.0,0.0,0.0,0.0,0.0,0.0,0.0,0.0,0.0,0.0,0.0,0.0,0.0,0.0,-1.324,0.0,0.0,-1.4449,-1.4883,-1.5324,-1.5718,-1.6012,-1.6433,-1.6714,-1.6714,-1.684,-1.7048,-1.7335,-1.7368,-1.7428,-1.7569,-1.7582,-1.7582,-1.7582,-1.7582,-1.7582,-1.7582,-1.7582,-1.7582,-1.7582,-1.7582,-1.7582,-1.7582,-1.7582,-1.7582,-1.7582,-1.7582,-1.7582,-1.7582,-1.7582,-1.7582,-1.7582,-1.7582,-1.7582,-1.7582,-1.7582,-1.7582,-1.7582,-1.7582,-1.7582,-1.7582,0.0,0.0,0.0,0.0,0.0,0.0,0.0,0.0,0.0,0.0,0.0,-1.6396,-1.6509,-1.6436,-1.6561,0.0,0.0,0.0,0.0,0.0,0.0,0.0,0.0,0.0,0.0,0.0,0.0,0.0,0.0,0.0,0.0,0.0,0.0,0.0,0.0,0.0,0.0,0.0,0.0,0.0,0.0,0.0,-1.9749,-1.8164,-1.6945,-1.6088,-1.6492,-1.614,-1.5587,-1.6358,-1.607,-1.5376,-1.4665,-1.4378,-1.4307,-1.4266,-1.3848,0.0,0.0,0.0,0.0,0.0,0.0,0.0,0.0,0.0,-1.3253,-1.312,-1.3474,-1.3848,-1.3961,-1.4369,-1.4883,-1.5471,-1.5765,-1.6039,-1.6393,-1.6847,-1.7174,-1.7228,-1.7235,-1.7328,-1.7562,-1.7582,-1.7582,-1.7582,-1.7582,-1.7582,-1.7582,-1.7582,-1.7582,-1.7582,-1.7582,-1.7582,-1.7582,-1.7582,-1.7582,-1.7582,-1.7582,-1.7582,-1.7582,-1.7582,-1.7582,-1.7582,-1.7582,-1.7582,-1.7582,-1.7582,-1.7582,-1.7582,-1.7582,-1.7582,-1.7582,-1.7582,-1.7582,-1.7582,0.0,0.0,0.0,0.0,0.0,0.0,0.0,0.0,0.0,0.0,0.0,0.0,0.0,0.0,0.0,0.0,0.0,0.0,0.0,0.0,0.0,0.0,0.0,0.0,0.0,0.0,0.0,0.0,0.0,0.0,0.0,0.0,0.0,0.0,0.0,0.0,0.0,0.0,0.0,0.0,0.0,0.0,-1.9863,-1.9248,-1.8234,-1.6982,-1.6711,-1.6558,-1.6498,-1.6567,-1.6558,-1.6289,-1.5367,-1.4736,-1.4378,-1.4689,0.0,-1.3346,-1.3717,-1.3474,-1.3072,-1.3223,-1.3235,-1.3227,0.0,0.0,-1.3734,-1.4222,-1.4376,-1.4583,-1.5104,-1.5251,-1.5491,-1.6079,-1.6206,-1.642,-1.6974,-1.7108,-1.7248,-1.7502,-1.7535,-1.7549,-1.7582,-1.7582,-1.7582,-1.7582,-1.7582,-1.7582,-1.7582,-1.7582,-1.7582,-1.7582,-1.7582,-1.7582,-1.7582,-1.7582,-1.7582,-1.7582,-1.7582,-1.7582,-1.7582,-1.7582,-1.7582,-1.7582,-1.7582,-1.7582,-1.7582,-1.7582,-1.7582,-1.7582,-1.7582,-1.7582,-1.7582,-1.7582,-1.7582,-1.7582,0.0,0.0,0.0,0.0,0.0,0.0,0.0,0.0,0.0,0.0,0.0,0.0,0.0,0.0,0.0,0.0,0.0,0.0,0.0,0.0,0.0,0.0,0.0,0.0,0.0,0.0,0.0,0.0,0.0,0.0,0.0,0.0,0.0,0.0,0.0,0.0,0.0,0.0,0.0,0.0,0.0,0.0,-1.9502,-1.9072,-1.8504,-1.793,-1.7584,-1.7432,0.0,0.0,-1.7432,-1.7148,-1.5658,-1.5163,-1.4958,-1.4266,-1.3775,0.0,-1.3496,-1.3407,0.0,0.0,-1.3575,-1.3794,-1.4088,-1.4289,-1.4482,-1.473,-1.491,-1.5104,-1.5351,-1.5531,-1.5785,0.0,-1.6413,-1.6673,-1.7094,-1.7295,-1.7442,-1.7569,-1.7582,-1.7582,-1.7582,-1.7582,-1.7582,-1.7582,-1.7582,-1.7582,-1.7582,-1.7582,-1.7582,-1.7582,-1.7582,-1.7582,-1.7582,-1.7582,-1.7582,-1.7582,-1.7582,-1.7582,-1.7582,-1.7582,-1.7582,-1.7582,-1.7582,-1.7582,-1.7582,-1.7582,-1.7582,-1.7582,-1.7582,-1.7582,-1.7582,-1.7582,-1.7582,-1.7582,0.0,0.0,0.0,0.0,0.0,0.0,0.0,0.0,0.0,0.0,0.0,0.0,0.0,0.0,0.0,0.0,0.0,0.0,0.0,0.0,0.0,0.0,0.0,0.0,0.0,0.0,0.0,0.0,0.0,0.0,0.0,0.0,0.0,0.0,0.0,0.0,0.0,0.0,0.0,0.0,0.0,0.0,-1.9072,-1.876,-1.8564,-1.8428,-1.8115,-1.8008,0.0,0.0,-1.8008,-1.7725,-1.6228,-1.5737,-1.5463,-1.4346,-1.4053,-1.3954,-1.3518,0.0,0.0,-1.3899,-1.4048,-1.4402,-1.4696,-1.493,-1.5104,-1.519,-1.5371,-1.5518,-1.5518,-1.5691,-1.5925,-1.6226,-1.652,-1.6807,-1.7108,-1.7402,-1.7582,-1.7582,-1.7582,-1.7582,-1.7582,-1.7582,-1.7582,-1.7582,-1.7582,-1.7582,-1.7582,-1.7582,-1.7582,-1.7582,-1.7582,-1.7582,-1.7582,-1.7582,-1.7582,-1.7582,-1.7582,-1.7582,-1.7582,-1.7582,-1.7582,-1.7582,-1.7582,-1.7582,-1.7582,-1.7582,-1.7582,-1.7582,-1.7582,-1.7582,-1.7582,-1.7582,-1.7582,-1.7582,0.0,0.0,0.0,0.0,0.0,0.0,0.0,0.0,0.0,0.0,0.0,0.0,0.0,0.0,0.0,0.0,0.0,0.0,0.0,0.0,0.0,0.0,0.0,0.0,0.0,0.0,0.0,0.0,0.0,0.0,0.0,0.0,0.0,0.0,0.0,0.0,0.0,0.0,0.0,0.0,0.0,0.0,-1.8652,-1.8643,-1.8389,-1.8027,-1.8018,0.0,0.0,0.0,-1.8008,-1.7872,-1.7304,-1.6455,0.0,-1.5488,-1.5444,0.0,0.0,0.0,-1.5426,-1.4566,-1.4683,-1.5017,-1.5304,-1.5378,-1.5464,-1.5745,-1.5812,-1.5812,-1.5812,-1.5818,-1.5925,-1.6226,-1.652,-1.6807,-1.7108,-1.7402,-1.7582,-1.7582,-1.7582,-1.7582,0.0,-1.7582,-1.7582,-1.7582,-1.7582,-1.7582,-1.7582,-1.7582,-1.7582,-1.7582,-1.7582,-1.7582,-1.7582,-1.7582,-1.7582,-1.7582,-1.7582,-1.7582,-1.7582,-1.7582,-1.7582,-1.7582,-1.7582,-1.7582,-1.7582,-1.7582,-1.7582,-1.7582,-1.7582,-1.7582,-1.7582,-1.7582,-1.7582,-1.7582,0.0,0.0,0.0,0.0,0.0,0.0,0.0,0.0,0.0,0.0,0.0,0.0,0.0,0.0,0.0,0.0,0.0,0.0,0.0,0.0,0.0,0.0,0.0,0.0,0.0,0.0,0.0,0.0,0.0,0.0,0.0,0.0,0.0,0.0,0.0,0.0,0.0,0.0,0.0,0.0,0.0,0.0,-1.8223,-1.8223,-1.8135,-1.8008,0.0,0.0,0.0,0.0,-1.8008,-1.7862,-1.7079,0.0,0.0,-1.5927,-1.5422,-1.5059,0.0,0.0,-1.5204,-1.6089,-1.5805,-1.5331,-1.5618,-1.5685,-1.5712,-1.5805,-1.5832,-1.5832,-1.5832,-1.5832,-1.5925,-1.6226,-1.6359,-1.6587,-1.7081,-1.7235,-1.7368,-1.7562,-1.7582,0.0,0.0,0.0,0.0,-1.7582,-1.7582,-1.7582,-1.7582,-1.7582,-1.7582,-1.7582,-1.7582,-1.7582,-1.7582,-1.7582,-1.7582,-1.7582,-1.7582,-1.7582,-1.7582,-1.7582,-1.7582,-1.7582,-1.7582,-1.7582,-1.7582,-1.7582,-1.7582,-1.7582,-1.7582,-1.7582,-1.7582,-1.7582,-1.7582,-1.7582,0.0,0.0,0.0,0.0,0.0,0.0,0.0,0.0,0.0,0.0,0.0,0.0,0.0,0.0,0.0,0.0,0.0,0.0,0.0,0.0,0.0,0.0,0.0,0.0,0.0,0.0,0.0,0.0,0.0,0.0,0.0,0.0,0.0,0.0,0.0,0.0,0.0,0.0,0.0,0.0,0.0,0.0,-1.7965,-1.7816,-1.778,0.0,0.0,0.0,0.0,0.0,0.0,-1.7862,-1.7079,-1.6684,-1.6439,-1.5959,-1.608,-1.6536,-1.7313,-1.6877,-1.6297,-1.7004,-1.6359,-1.5598,-1.5785,-1.5832,-1.5832,-1.5832,-1.5832,-1.5832,-1.5832,-1.5832,-1.5892,-1.6086,-1.6206,-1.644,-1.6927,-1.7081,-1.7255,-1.7549,-1.7582,-1.7582,0.0,0.0,0.0,-1.7582,-1.7582,-1.7582,-1.7582,-1.7582,-1.7582,-1.7582,-1.7582,-1.7582,-1.7582,-1.7582,-1.7582,-1.7582,-1.7582,-1.7582,-1.7582,-1.7582,-1.7582,-1.7582,-1.7582,-1.7582,-1.7582,-1.7582,-1.7582,-1.7582,-1.7582,-1.7582,-1.7582,-1.7582,-1.7582,-1.7582,0.0,0.0,0.0,0.0,0.0,0.0,0.0,0.0,0.0,0.0,0.0,0.0,0.0,0.0,0.0,0.0,0.0,0.0,0.0,0.0,0.0,0.0,0.0,0.0,0.0,0.0,0.0,0.0,0.0,0.0,0.0,0.0,0.0,0.0,0.0,0.0,0.0,0.0,0.0,0.0,0.0,0.0,-1.7825,-1.7393,0.0,0.0,0.0,0.0,0.0,0.0,0.0,0.0,0.0,0.0,-1.6863,-1.579,-1.7464,-1.9222,-1.7253,-1.7664,-1.8507,-1.7537,-1.6615,-1.592,-1.592,-1.5906,-1.59,-1.5805,-1.5792,-1.5785,0.0,0.0,-1.59,-1.5805,-1.6148,-1.6451,-1.666,-1.6947,-1.7241,0.0,0.0,0.0,0.0,0.0,0.0,-1.7582,0.0,-1.7582,-1.7582,-1.7582,-1.7582,-1.7582,-1.7582,-1.7582,-1.7582,-1.7582,-1.7582,-1.7582,-1.7582,-1.7582,-1.7582,-1.7582,-1.7582,-1.7582,-1.7582,-1.7582,-1.7582,-1.7582,-1.7582,-1.7582,-1.7687,-1.7687,-1.7582,-1.7687,-1.7687,-1.7582,0.0,0.0,0.0,0.0,0.0,0.0,0.0,0.0,0.0,0.0,0.0,0.0,0.0,0.0,0.0,0.0,0.0,0.0,0.0,0.0,0.0,0.0,0.0,0.0,0.0,0.0,0.0,0.0,0.0,0.0,0.0,0.0,0.0,0.0,0.0,0.0,0.0,0.0,0.0,0.0,0.0,0.0,-1.7256,0.0,0.0,0.0,0.0,0.0,0.0,0.0,0.0,0.0,0.0,0.0,-1.7733,-1.8415,-1.8565,-1.8654,-1.9431,-1.8641,-1.7846,-1.8648,-1.8064,-1.7225,-1.7225,-1.7021,-1.6663,-1.5876,-1.5613,-1.5463,0.0,0.0,0.0,-1.5683,-1.649,0.0,-1.6733,-1.6774,0.0,-1.7522,0.0,-1.7582,-1.7582,-1.7582,0.0,0.0,-1.7582,-1.7582,-1.7582,-1.7582,-1.7582,-1.7582,-1.7582,-1.7582,-1.7582,-1.7582,-1.7582,-1.7582,-1.7582,-1.7582,-1.7582,-1.7582,-1.7582,-1.7582,-1.7582,-1.7582,-1.7582,-1.7582,-1.7582,-1.7687,-1.8708,-1.8506,-1.7687,-1.8708,-1.8506,-1.7582,0.0,0.0,0.0,0.0,0.0,0.0,0.0,0.0,0.0,0.0,0.0,0.0,0.0,0.0,0.0,0.0,0.0,0.0,0.0,0.0,0.0,0.0,0.0,0.0,0.0,0.0,0.0,0.0,0.0,0.0,0.0,0.0,0.0,0.0,0.0,0.0,0.0,0.0,0.0,0.0,0.0,0.0,0.0,0.0,0.0,0.0,0.0,0.0,0.0,0.0,0.0,-1.8018,-1.8145,-1.8261,-1.8613,-1.9223,0.0,-1.9907,-2.0576,-1.9504,-1.851,-1.9974,-1.8956,-1.774,-1.7957,-1.7947,-1.7581,-1.6742,-1.6135,0.0,0.0,0.0,0.0,0.0,0.0,0.0,-1.6623,-1.711,-1.7465,0.0,-1.7508,0.0,-1.8401,-1.7996,-1.7891,0.0,-1.7891,-1.7582,-1.7582,-1.7582,-1.7582,-1.7582,-1.8199,-1.8506,-1.8506,-1.8506,-1.8199,-1.7582,-1.7582,-1.7582,-1.7582,-1.7582,-1.7582,-1.7582,-1.7582,-1.7891,-1.8506,-1.8506,-1.8805,-1.9517,-2.0231,-2.0025,-1.9517,-2.0231,-2.0033,-1.942,0.0,0.0,0.0,0.0,0.0,0.0,0.0,0.0,0.0,0.0,0.0,0.0,0.0,0.0,0.0,0.0,0.0,0.0,0.0,0.0,0.0,0.0,0.0,0.0,0.0,0.0,0.0,0.0,0.0,0.0,0.0,0.0,0.0,0.0,0.0,0.0,0.0,0.0,0.0,0.0,0.0,0.0,0.0,0.0,0.0,0.0,0.0,0.0,0.0,0.0,-1.7969,-1.8096,-1.8574,-1.8984,-1.9325,-1.934,-2.0623,-2.1723,-2.1121,-2.0323,-2.0034,-2.1025,-1.9761,-1.8241,-1.8522,-1.8669,-1.8426,-1.7597,0.0,-1.6431,-1.6249,-1.5863,-1.5473,-1.5322,0.0,-1.711,-1.6512,-1.7561,-1.8095,-1.7517,-1.7714,-1.8297,-1.9524,-1.8506,-1.8297,-1.9524,-1.8401,-1.7582,-1.7582,-1.7582,-1.7687,-1.7891,-1.922,-1.9834,-1.9834,-1.9731,-1.9117,-1.8094,-1.7996,-1.7891,-1.7891,-1.8094,-1.7989,-1.7891,-1.8094,-1.8805,-1.9834,-1.9834,-2.0641,-2.1752,-2.1853,-2.1853,-2.1752,-2.1853,-2.1853,-2.1752,0.0,0.0,0.0,0.0,0.0,0.0,0.0,0.0,0.0,0.0,0.0,0.0,0.0,0.0,0.0,0.0,0.0,0.0,0.0,0.0,0.0,0.0,0.0,0.0,0.0,0.0,0.0,0.0,0.0,0.0,0.0,0.0,0.0,0.0,0.0,0.0,0.0,0.0,0.0,0.0,0.0,0.0,0.0,0.0,0.0,0.0,0.0,0.0,0.0,0.0,-1.7725,-1.8144,-1.8926,-1.9228,-1.96,-2.0941,-2.1675,-2.1791,-2.1365,-2.115,-2.1025,-2.1203,-2.0953,-2.0416,-1.9504,-1.9436,0.0,0.0,0.0,-1.5731,-1.5665,-1.6221,0.0,-1.5154,0.0,0.0,0.0,0.0,-1.7403,0.0,0.0,0.0,0.0,0.0,0.0,0.0,-1.8401,-1.7582,-1.7582,-1.7582,-1.8094,-1.922,-2.0641,-2.1347,-2.1347,-2.0128,-2.0033,-2.0939,-1.9826,-1.922,-1.9324,-2.0436,-2.0333,-1.9324,-2.0436,-2.1143,-2.1347,-2.1347,-2.1448,-2.1853,-2.2868,-2.2667,-2.1853,-2.2968,-2.2667,-2.1752,0.0,0.0,0.0,0.0,0.0,0.0,0.0,0.0,0.0,0.0,0.0,0.0,0.0,0.0,0.0,0.0,0.0,0.0,0.0,0.0,0.0,0.0,0.0,0.0,0.0,0.0,0.0,0.0,0.0,0.0,0.0,0.0,0.0,0.0,0.0,0.0,0.0,0.0,0.0,0.0,0.0,0.0,0.0,0.0,0.0,0.0,0.0,0.0,0.0,0.0,-1.7519,-1.7832,-1.8682,-1.9102,-1.959,-2.1103,-2.1709,-2.1977,-2.2176,-2.1756,-2.1471,-2.212,-2.1609,-2.0914,-2.044,0.0,0.0,0.0,0.0,-1.6215,-1.5748,0.0,0.0,0.0,0.0,0.0,0.0,0.0,0.0,0.0,0.0,0.0,0.0,0.0,0.0,-2.1659,-2.0538,-1.9413,-1.8708,-1.9317,-2.0333,-2.1659,-2.2366,-2.2767,-2.2767,-2.2064,-2.176,-2.1643,-2.1041,-2.0743,-2.0743,-2.1347,-2.1347,-2.0743,-2.1448,-2.2055,-2.2767,-2.2767,-2.3176,-2.389,-2.4501,-2.4304,-2.389,-2.451,-2.4304,-2.3791,0.0,0.0,0.0,0.0,0.0,0.0,0.0,0.0,0.0,0.0,0.0,0.0,0.0,0.0,0.0,0.0,0.0,0.0,0.0,0.0,0.0,0.0,0.0,0.0,0.0,0.0,0.0,0.0,0.0,0.0,0.0,0.0,0.0,0.0,0.0,0.0,0.0,0.0,0.0,0.0,0.0,0.0,0.0,0.0,0.0,0.0,0.0,0.0,0.0,0.0,-1.7227,-1.748,-1.8057,-1.8711,-1.9521,-2.0732,-2.1406,-2.1934,-2.2773,-2.2205,-2.1701,-2.2708,-2.1968,-2.0909,-2.0772,-2.0335,0.0,0.0,-1.7583,-1.6831,-1.6137,0.0,0.0,0.0,0.0,0.0,0.0,0.0,0.0,0.0,0.0,0.0,0.0,0.0,0.0,-2.3592,-2.2767,-2.155,-2.0135,-2.1347,-2.2567,-2.3683,-2.3989,-2.4097,-2.4097,-2.3791,-2.3285,-2.2567,-2.2265,-2.2156,-2.2156,-2.2458,-2.2357,-2.2156,-2.2458,-2.3176,-2.4097,-2.4097,-2.4716,-2.5742,-2.5742,-2.5742,-2.5742,-2.5742,-2.5742,-2.5742,0.0,0.0,0.0,0.0,0.0,0.0,0.0,0.0,0.0,0.0,0.0,0.0,0.0,0.0,0.0,0.0,0.0,0.0,0.0,0.0,0.0,0.0,0.0,0.0,0.0,0.0,0.0,0.0,0.0,0.0,0.0,0.0,0.0,0.0,0.0,0.0,0.0,0.0,0.0,0.0,0.0,0.0,0.0,0.0,0.0,0.0,0.0,0.0,0.0,0.0,0.0,-1.7334,-1.7012,-1.8008,-1.9463,-2.0361,0.0,0.0,-2.2334,-2.2201,-2.1997,-2.248,-2.2162,-2.138,-1.9577,0.0,0.0,-1.7172,-1.6698,-1.6671,-1.6452,-1.6313,0.0,0.0,0.0,0.0,0.0,0.0,0.0,0.0,0.0,0.0,0.0,0.0,0.0,-2.3683,-2.3583,-2.2976,-2.155,-2.2767,-2.3583,-2.3692,-2.4913,-2.5528,-2.5528,-2.4304,-2.4205,-2.5323,-2.4097,-2.3484,-2.3583,-2.4815,-2.4707,-2.3583,-2.4815,-2.543,-2.5528,-2.5528,-2.5635,-2.5742,-2.5742,-2.5742,-2.5742,-2.5742,-2.5742,-2.5742,0.0,0.0,0.0,0.0,0.0,0.0,0.0,0.0,0.0,0.0,0.0,0.0,0.0,0.0,0.0,0.0,0.0,0.0,0.0,0.0,0.0,0.0,0.0,0.0,0.0,0.0,0.0,0.0,0.0,0.0,0.0,0.0,0.0,0.0,0.0,0.0,0.0,0.0,0.0,0.0,0.0,0.0,0.0,0.0,0.0,0.0,0.0,0.0,0.0,0.0,0.0,0.0,-1.7012,-1.7764,0.0,0.0,-2.0216,-2.0866,-2.1904,-2.2012,-2.1924,-2.209,-2.1724,-2.0995,-1.9837,0.0,0.0,-1.7352,-1.6947,-1.6714,-1.6359,-1.6555,-1.6699,0.0,0.0,0.0,0.0,0.0,0.0,0.0,0.0,0.0,0.0,0.0,-2.4913,-2.4913,-2.4913,-2.4707,-2.4097,-2.4609,-2.4913,-2.4913,-2.543,-2.5742,-2.5742,-2.5128,-2.5128,-2.5732,-2.5128,-2.4913,-2.4913,-2.543,-2.543,-2.4913,-2.543,-2.5742,-2.5742,-2.5742,-2.5742,-2.5742,-2.5742,-2.5742,-2.5742,-2.5742,-2.5742,-2.5742,0.0,0.0,0.0,0.0,0.0,0.0,0.0,0.0,0.0,0.0,0.0,0.0,0.0,0.0,0.0,0.0,0.0,0.0,0.0,0.0,0.0,0.0,0.0,0.0,0.0,0.0,0.0,-1.3215,-1.3151,-1.3284,0.0,0.0,-1.3344,-1.3334,0.0,0.0,0.0,0.0,0.0,0.0,0.0,0.0,0.0,0.0,0.0,0.0,0.0,0.0,0.0,0.0,0.0,0.0,0.0,0.0,0.0,0.0,-1.9471,-2.0207,-2.1024,-2.1221,-2.1143,-2.1269,-2.0808,-2.0226,0.0,0.0,0.0,-1.7546,-1.7162,-1.6769,-1.6421,-1.6899,-1.7269,0.0,0.0,0.0,0.0,0.0,0.0,0.0,0.0,0.0,0.0,0.0,-2.5742,-2.5742,-2.5742,-2.5742,-2.5742,-2.5742,-2.5742,-2.5742,-2.5742,-2.5742,-2.5742,-2.5742,-2.5742,-2.5742,-2.5742,-2.5742,-2.5742,-2.5742,-2.5742,-2.5742,-2.5742,-2.5742,-2.5742,-2.5742,-2.5742,-2.5742,-2.5742,-2.5742,-2.5742,-2.5742,-2.5742,-2.5742,0.0,0.0,0.0,0.0,0.0,0.0,0.0,0.0,0.0,0.0,0.0,0.0,0.0,0.0,0.0,0.0,0.0,0.0,0.0,0.0,0.0,0.0,0.0,0.0,0.0,0.0,0.0,-1.2012,-1.2557,-1.2829,-1.2812,-1.2812,-1.2955,-1.3218,0.0,0.0,0.0,0.0,0.0,0.0,0.0,0.0,0.0,0.0,0.0,0.0,0.0,0.0,0.0,0.0,0.0,0.0,0.0,0.0,0.0,0.0,-1.8831,-1.9404,-1.9618,-1.95,-1.9414,-1.9824,-1.948,-1.8918,0.0,0.0,-1.7688,-1.726,-1.7038,-1.6908,-1.6908,-1.7568,-1.8128,-1.8053,0.0,0.0,0.0,0.0,0.0,0.0,0.0,0.0,0.0,0.0,-2.5742,-2.5742,-2.5742,-2.5742,-2.5742,-2.5742,-2.5742,-2.5742,-2.5742,-2.5742,-2.5742,-2.5742,-2.5742,-2.5742,-2.5742,-2.5742,-2.5742,-2.5742,-2.5742,-2.5742,-2.5742,-2.5742,-2.5742,-2.5742,-2.5742,-2.5742,-2.5742,-2.5742,-2.5742,-2.5742,-2.5742,-2.5742,0.0,0.0,0.0,0.0,0.0,0.0,0.0,0.0,0.0,0.0,0.0,0.0,0.0,0.0,0.0,0.0,0.0,0.0,0.0,0.0,0.0,0.0,0.0,0.0,0.0,0.0,0.0,-1.1732,-1.1909,-1.2299,-1.2882,-1.2802,-1.2945,-1.3218,-1.3152,0.0,0.0,0.0,0.0,0.0,0.0,0.0,0.0,0.0,0.0,0.0,0.0,0.0,0.0,0.0,0.0,0.0,0.0,0.0,0.0,0.0,0.0,0.0,-1.9014,-1.9027,-1.8941,-1.9242,-1.8944,-1.845,-1.8118,0.0,-1.7617,-1.7121,-1.7038,-1.7038,-1.6908,-1.7578,-1.8128,-1.8128,-1.8898,0.0,0.0,0.0,0.0,0.0,0.0,0.0,0.0,0.0,-2.5742,-2.5742,-2.5742,-2.5742,-2.5742,-2.5742,-2.5742,-2.5742,-2.5742,-2.5742,-2.5742,-2.5742,-2.5742,-2.5742,-2.5742,-2.5742,-2.5742,-2.5742,-2.5742,-2.5742,-2.5742,-2.5742,-2.5742,-2.5742,-2.5742,-2.5742,-2.5742,-2.5742,-2.5742,-2.5742,-2.5742,-2.5742,0.0,0.0,0.0,0.0,0.0,0.0,0.0,0.0,0.0,0.0,0.0,0.0,0.0,0.0,0.0,0.0,0.0,0.0,0.0,0.0,0.0,0.0,0.0,0.0,0.0,0.0,-1.1318,-1.1323,-1.1323,-1.1665,-1.2333,-1.243,-1.261,-1.2882,-1.2986,0.0,0.0,0.0,0.0,0.0,0.0,0.0,-1.4834,0.0,0.0,0.0,0.0,0.0,0.0,0.0,0.0,0.0,0.0,0.0,0.0,0.0,-1.6327,0.0,0.0,-1.8266,-1.8299,-1.8452,-1.8228,0.0,0.0,0.0,-1.7361,-1.7093,-1.7158,-1.7213,-1.6936,-1.7769,-1.8368,-1.8146,-1.8874,0.0,0.0,0.0,0.0,0.0,0.0,0.0,0.0,-2.5635,-2.5742,-2.5742,-2.5742,-2.5742,-2.5742,-2.5742,-2.5742,-2.5742,-2.5742,-2.5742,-2.5742,-2.5742,-2.5742,-2.5742,-2.5742,-2.5742,-2.5742,-2.5742,-2.5742,-2.5742,-2.5742,-2.5742,0.0,-2.5742,-2.5742,-2.5742,-2.5742,-2.5742,-2.5742,-2.5742,-2.5742,-2.5742,0.0,0.0,0.0,0.0,0.0,0.0,0.0,0.0,0.0,0.0,0.0,0.0,0.0,0.0,0.0,0.0,0.0,0.0,0.0,0.0,0.0,0.0,0.0,0.0,0.0,-1.1468,-1.118,-1.0891,-1.0891,-1.1069,-1.1409,-1.1762,-1.2073,-1.2401,-1.2771,-1.2929,-1.2881,-1.2881,-1.3105,-1.3496,-1.3955,-1.4375,0.0,0.0,0.0,0.0,0.0,0.0,0.0,0.0,0.0,0.0,0.0,0.0,0.0,0.0,0.0,0.0,0.0,0.0,0.0,0.0,0.0,0.0,0.0,0.0,0.0,-1.7213,-1.737,-1.7385,-1.7009,-1.8055,-1.8796,-1.8192,0.0,0.0,0.0,0.0,0.0,0.0,0.0,0.0,-2.5342,-2.5538,-2.5742,-2.5742,-2.5742,-2.5742,-2.5742,-2.5742,-2.5742,-2.5742,-2.5742,-2.5742,-2.5742,-2.5742,-2.5742,-2.5742,-2.5742,-2.5742,-2.5742,-2.5742,-2.5742,-2.5742,-2.5742,-2.5742,-2.5742,-2.5742,-2.5742,-2.5742,-2.5742,-2.5742,-2.5742,-2.5742,-2.5742,-2.5742,0.0,0.0,0.0,0.0,0.0,0.0,0.0,0.0,0.0,0.0,0.0,0.0,0.0,0.0,0.0,0.0,0.0,0.0,0.0,0.0,0.0,0.0,0.0,0.0,0.0,-1.1468,-1.118,-1.0891,-1.0891,-1.1069,-1.1409,-1.1826,-1.2196,-1.2401,-1.2877,-1.2978,-1.2881,-1.2881,-1.2939,-1.3096,-1.3786,-1.4199,0.0,0.0,0.0,0.0,-1.541,-1.5254,0.0,0.0,0.0,0.0,0.0,0.0,0.0,0.0,-1.5315,-1.5964,-1.626,0.0,-1.7116,-1.7304,0.0,0.0,0.0,0.0,0.0,0.0,0.0,0.0,0.0,0.0,0.0,0.0,0.0,0.0,0.0,0.0,0.0,0.0,0.0,-2.5635,-2.5635,-2.5635,-2.5742,-2.5742,-2.5742,-2.5742,-2.5742,-2.5742,-2.5742,-2.5742,-2.5742,-2.5742,-2.5742,-2.5742,-2.5742,-2.5742,-2.5742,-2.5742,-2.5742,-2.5742,-2.5742,-2.5742,-2.5742,-2.5742,-2.5742,-2.5742,-2.5742,-2.5742,-2.5742,-2.5742,-2.5742,-2.5742,-2.5742,-2.5742,0.0,0.0,0.0,0.0,0.0,0.0,0.0,0.0,0.0,0.0,0.0,0.0,0.0,0.0,0.0,0.0,0.0,0.0,0.0,0.0,0.0,0.0,0.0,0.0,0.0,-1.1468,-1.118,-1.0891,-1.0891,-1.0966,-1.1034,-1.1693,-1.1997,-1.2069,-1.274,-1.2988,-1.2881,-1.2881,-1.2881,-1.2959,-1.3799,0.0,0.0,0.0,0.0,0.0,-1.5303,-1.5205,0.0,-1.4902,-1.4725,-1.4606,0.0,0.0,0.0,0.0,-1.5179,-1.5817,-1.5936,-1.6418,-1.6978,-1.7254,-1.7116,-1.6908,0.0,0.0,0.0,0.0,0.0,0.0,0.0,0.0,0.0,0.0,0.0,0.0,0.0,0.0,0.0,0.0,0.0,-2.5508,0.0,-2.5742,-2.5742,-2.5742,-2.5742,-2.5742,-2.5742,-2.5742,-2.5742,-2.5742,-2.5742,-2.5742,-2.5742,-2.5742,-2.5742,-2.5742,-2.5742,-2.5742,-2.5742,-2.5742,-2.5742,-2.5742,-2.5742,-2.5742,-2.5742,-2.5742,-2.5742,-2.5742,-2.5742,-2.5742,-2.5742,-2.5742,-2.5742,-2.5742,0.0,0.0,0.0,0.0,0.0,0.0,0.0,0.0,0.0,0.0,0.0,0.0,0.0,0.0,0.0,0.0,0.0,0.0,0.0,0.0,0.0,0.0,0.0,0.0,-1.1811,-1.1468,-1.1212,-1.1023,-1.1023,-1.0938,-1.0804,-1.1649,-1.1939,-1.1841,-1.2549,-1.2881,-1.2881,-1.2881,-1.2881,-1.2959,-1.3799,0.0,0.0,0.0,0.0,0.0,0.0,0.0,0.0,-1.4784,-1.4616,-1.4515,-1.4515,0.0,0.0,0.0,0.0,0.0,-1.5753,-1.6352,-1.7047,-1.7323,-1.7116,-1.6908,0.0,0.0,0.0,0.0,0.0,0.0,0.0,0.0,0.0,0.0,0.0,0.0,0.0,0.0,0.0,0.0,0.0,0.0,-2.5703,-2.5742,-2.5742,-2.5742,-2.5742,-2.5742,-2.5742,-2.5742,-2.5742,-2.5742,-2.5742,-2.5742,-2.5742,-2.5742,-2.5742,-2.5742,-2.5742,-2.5742,-2.5742,-2.5742,-2.5742,-2.5742,-2.5742,-2.5742,-2.5742,-2.5742,-2.5742,-2.5742,-2.5742,-2.5742,-2.5742,-2.5742,-2.5742,-2.5742,0.0,0.0,0.0,0.0,0.0,0.0,0.0,0.0,0.0,0.0,0.0,0.0,0.0,0.0,0.0,0.0,0.0,0.0,0.0,0.0,0.0,0.0,0.0,-1.2054,-1.1811,-1.1468,-1.1371,-1.1478,-1.1478,-1.1542,-1.1709,-1.2252,-1.2566,-1.2686,-1.2822,-1.2881,-1.2881,-1.2881,-1.2881,-1.2959,-1.3799,0.0,0.0,0.0,0.0,0.0,0.0,0.0,0.0,-1.497,-1.4743,-1.4515,-1.4515,0.0,0.0,0.0,0.0,0.0,-1.59,-1.6551,-1.7107,-1.7047,-1.6978,-1.6908,0.0,0.0,0.0,0.0,0.0,0.0,0.0,0.0,0.0,0.0,0.0,0.0,0.0,0.0,0.0,0.0,0.0,-2.5664,-2.5732,-2.5742,-2.5742,-2.5742,-2.5742,-2.5742,-2.5742,-2.5742,-2.5742,-2.5742,-2.5742,-2.5742,-2.5742,-2.5742,-2.5742,-2.5742,-2.5742,-2.5742,-2.5742,-2.5742,-2.5742,-2.5742,-2.5742,-2.5742,-2.5742,-2.5742,-2.5742,-2.5742,-2.5742,-2.5742,-2.5742,-2.5742,-2.5742,-2.5742,0.0,0.0,0.0,0.0,0.0,0.0,0.0,0.0,0.0,0.0,0.0,0.0,0.0,0.0,0.0,0.0,0.0,0.0,0.0,0.0,0.0,0.0,-1.2282,-1.2054,-1.1811,-1.1468,-1.1403,-1.1612,-1.1612,-1.1716,-1.1997,-1.2328,-1.2649,-1.2881,-1.2881,-1.2881,-1.2881,-1.2881,-1.3018,-1.3271,0.0,0.0,0.0,0.0,0.0,0.0,0.0,0.0,0.0,0.0,-1.4548,-1.4616,-1.4506,0.0,0.0,0.0,0.0,0.0,-1.5827,-1.6418,-1.7038,-1.7038,-1.7107,-1.7185,0.0,0.0,0.0,0.0,0.0,0.0,0.0,0.0,0.0,0.0,0.0,0.0,0.0,0.0,-2.4229,0.0,0.0,-2.5469,-2.5713,-2.5742,-2.5742,-2.5742,-2.5742,-2.5742,-2.5742,-2.5742,-2.5742,-2.5742,-2.5742,-2.5742,-2.5742,-2.5742,-2.5742,-2.5742,-2.5742,-2.5742,-2.5742,-2.5742,-2.5742,-2.5742,-2.5742,-2.5742,-2.5742,-2.5742,-2.5742,-2.5742,-2.5742,-2.5742,-2.5742,-2.5742,-2.5742,-2.5742,0.0,0.0,0.0,0.0,0.0,0.0,0.0,0.0,0.0,0.0,0.0,0.0,0.0,0.0,0.0,0.0,0.0,0.0,0.0,0.0,-1.265,-1.221,-1.2162,-1.1993,-1.17,-1.1431,-1.1457,-1.1778,-1.1778,-1.1974,-1.2355,-1.2518,-1.2691,-1.2881,-1.2881,-1.2939,-1.3027,-1.3027,-1.3322,-1.3733,0.0,0.0,0.0,0.0,0.0,0.0,0.0,0.0,0.0,0.0,0.0,0.0,0.0,0.0,0.0,-1.4515,-1.5001,-1.557,-1.5661,-1.6287,-1.6917,-1.7148,0.0,0.0,-1.747,0.0,0.0,0.0,0.0,0.0,0.0,0.0,0.0,0.0,0.0,0.0,-2.3881,-2.3857,-2.4098,-2.5295,-2.5333,-2.5361,-2.5703,-2.5742,-2.5742,-2.5742,-2.5742,-2.5742,-2.5742,-2.5742,-2.5742,-2.5742,-2.5742,-2.5742,-2.5742,-2.5742,-2.5742,-2.5742,-2.5742,-2.5742,-2.5742,-2.5742,-2.5742,-2.5742,-2.5742,-2.5742,-2.5742,-2.5742,-2.5742,-2.5742,-2.5742,-2.5742,-2.5742,-2.5742,-2.5742,-2.5742,0.0,0.0,0.0,0.0,0.0,0.0,0.0,0.0,0.0,0.0,0.0,0.0,0.0,0.0,0.0,0.0,0.0,0.0,0.0,0.0,-1.2685,-1.221,-1.2018,-1.1726,-1.1345,-1.1308,-1.1616,-1.2256,-1.2256,-1.2559,-1.3117,-1.3054,-1.2997,-1.2881,-1.2881,-1.3096,-1.3467,-1.3467,-1.3824,-1.4334,-1.4184,0.0,0.0,0.0,0.0,0.0,0.0,0.0,0.0,0.0,0.0,0.0,0.0,0.0,-1.4515,-1.4515,-1.4808,-1.5221,-1.5588,-1.6141,-1.6701,-1.7073,0.0,0.0,-1.7401,0.0,0.0,0.0,0.0,0.0,0.0,0.0,0.0,0.0,0.0,-2.3142,-2.4205,0.0,-2.4614,-2.5528,-2.5703,-2.5703,-2.5732,-2.5742,-2.5742,-2.5742,-2.5742,-2.5742,-2.5742,-2.5742,-2.5742,-2.5742,-2.5742,-2.5742,-2.5742,-2.5742,-2.5742,-2.5742,-2.5742,-2.5742,-2.5742,-2.5742,-2.5742,-2.5742,-2.5742,-2.5742,-2.5742,-2.5742,-2.5742,-2.5742,-2.5742,-2.5742,-2.5742,-2.5742,-2.5742,-2.5742,0.0,0.0,0.0,0.0,0.0,0.0,0.0,0.0,0.0,0.0,0.0,0.0,0.0,0.0,0.0,0.0,0.0,0.0,0.0,0.0,-1.2401,-1.1957,-1.1689,-1.1394,-1.105,-1.105,-1.1462,-1.2307,-1.2779,-1.3083,-1.3218,-1.3113,-1.3036,-1.2891,-1.3154,-1.341,-1.3627,-1.3789,-1.4152,-1.4513,-1.4184,-1.4141,0.0,0.0,0.0,0.0,0.0,0.0,0.0,0.0,-1.4859,0.0,0.0,0.0,-1.4506,-1.4616,-1.4842,-1.5184,-1.5579,-1.6122,-1.6663,-1.7073,0.0,0.0,0.0,0.0,0.0,0.0,0.0,0.0,0.0,0.0,0.0,0.0,0.0,-2.3349,-2.4297,-2.4414,-2.4746,-2.5635,-2.5742,-2.5742,-2.5742,-2.5742,-2.5742,-2.5742,-2.5742,-2.5742,-2.5742,-2.5742,-2.5742,-2.5742,-2.5742,-2.5742,-2.5742,-2.5742,-2.5742,-2.5742,-2.5742,-2.5742,-2.5742,-2.5742,-2.5742,-2.5742,-2.5742,-2.5742,-2.5742,-2.5742,-2.5742,-2.5742,-2.5742,-2.5742,-2.5742,-2.5742,-2.5742,-2.5742,0.0,0.0,0.0,0.0,0.0,0.0,0.0,0.0,0.0,0.0,0.0,0.0,0.0,0.0,0.0,0.0,0.0,0.0,0.0,0.0,-1.2305,-1.1811,-1.1733,-1.148,-1.1126,-1.1271,-1.1654,-1.2307,-1.3073,-1.3362,-1.3218,-1.3142,-1.3144,-1.3145,-1.3429,-1.3817,-1.4198,-1.438,-1.4606,-1.48,-1.4403,-1.4212,0.0,0.0,0.0,0.0,0.0,0.0,0.0,0.0,0.0,0.0,0.0,0.0,0.0,0.0,-1.481,-1.5081,-1.5542,-1.6021,-1.6429,0.0,0.0,0.0,0.0,0.0,0.0,0.0,0.0,0.0,0.0,0.0,0.0,0.0,-2.2862,-2.3437,-2.4297,-2.4414,-2.4746,-2.5635,-2.5742,-2.5742,-2.5742,-2.5742,-2.5742,-2.5742,-2.5742,-2.5742,-2.5742,-2.5742,-2.5742,-2.5742,-2.5742,-2.5742,-2.5742,-2.5742,-2.5742,-2.5742,-2.5742,-2.5742,-2.5742,-2.5742,-2.5742,-2.5742,-2.5742,-2.5742,-2.5742,-2.5742,-2.5742,-2.5742,-2.5742,-2.5742,-2.5742,-2.5742,-2.5742,-2.5742,0.0,0.0,0.0,0.0,0.0,0.0,0.0,0.0,0.0,0.0,0.0,0.0,0.0,0.0,0.0,0.0,0.0,0.0,0.0,-1.2745,-1.2413,-1.1822,-1.2256,-1.221,-1.1622,-1.2069,-1.2307,-1.2307,-1.3176,-1.3467,-1.3218,-1.3218,0.0,0.0,0.0,0.0,-1.5285,-1.5285,-1.533,-1.5334,-1.478,-1.4398,-1.4093,0.0,0.0,0.0,0.0,0.0,0.0,0.0,0.0,0.0,0.0,0.0,0.0,0.0,-1.4616,-1.4833,-1.5532,-1.5698,0.0,0.0,0.0,0.0,0.0,0.0,0.0,0.0,0.0,0.0,0.0,0.0,0.0,-2.2736,-2.2969,-2.3437,-2.4287,-2.4414,-2.4746,-2.5625,-2.5742,-2.5742,-2.5742,-2.5742,-2.5742,-2.5742,-2.5742,-2.5742,-2.5742,-2.5742,-2.5742,-2.5742,-2.5742,-2.5742,-2.5742,-2.5742,-2.5742,-2.5742,-2.5742,-2.5742,-2.5742,-2.5742,-2.5742,-2.5742,-2.5742,-2.5742,-2.5742,-2.5742,-2.5742,-2.5742,-2.5742,-2.5742,-2.5742,-2.5742,-2.5742,-2.5742,0.0,0.0,0.0,0.0,0.0,0.0,0.0,0.0,0.0,0.0,0.0,0.0,0.0,0.0,0.0,0.0,0.0,0.0,0.0,-1.2294,-1.2127,-1.2289,-1.2005,-1.1931,-1.2089,-1.2503,-1.273,-1.273,-1.3134,-1.3266,-1.3218,0.0,0.0,-1.3739,0.0,0.0,-1.5461,-1.5295,-1.5168,-1.5077,-1.4722,-1.4336,-1.3973,0.0,0.0,0.0,0.0,0.0,0.0,0.0,0.0,0.0,0.0,0.0,0.0,0.0,-1.5336,-1.5383,-1.641,0.0,0.0,0.0,0.0,0.0,0.0,0.0,0.0,0.0,0.0,0.0,0.0,0.0,0.0,-2.3028,-2.3057,-2.333,-2.3896,-2.4228,-2.4629,-2.5195,-2.5547,-2.5742,-2.5742,-2.5742,-2.5742,-2.5742,-2.5742,-2.5742,-2.5742,-2.5742,-2.5742,-2.5742,-2.5742,-2.5742,-2.5742,-2.5742,-2.5742,-2.5742,-2.5742,-2.5742,-2.5742,-2.5742,-2.5742,-2.5742,-2.5742,-2.5742,-2.5742,-2.5742,-2.5742,-2.5742,-2.5742,-2.5742,-2.5742,-2.5742,-2.5742,-2.5742,0.0,0.0,0.0,0.0,0.0,0.0,0.0,0.0,0.0,0.0,0.0,0.0,0.0,0.0,0.0,0.0,0.0,0.0,0.0,0.0,-1.2643,-1.3003,-1.2833,-1.2828,-1.3049,-1.3289,-1.3334,-1.3196,-1.3277,-1.3405,0.0,0.0,-1.4052,-1.4465,0.0,-1.5563,-1.5848,-1.5736,-1.5526,-1.5266,-1.5096,-1.4777,-1.4368,0.0,0.0,0.0,0.0,0.0,0.0,0.0,0.0,0.0,0.0,0.0,0.0,0.0,-1.5771,-1.5984,-1.6787,0.0,0.0,0.0,0.0,0.0,0.0,0.0,0.0,0.0,0.0,0.0,-2.2734,-2.2969,0.0,-2.3135,-2.3135,-2.3291,-2.373,-2.4004,-2.4326,-2.4756,-2.5205,-2.5469,-2.5469,-2.5635,-2.5742,-2.5742,-2.5742,-2.5742,-2.5742,-2.5742,-2.5742,-2.5742,-2.5742,-2.5742,-2.5742,-2.5742,-2.5742,-2.5742,-2.5742,-2.5742,-2.5742,-2.5742,-2.5742,-2.5742,-2.5742,-2.5742,-2.5742,-2.5742,-2.5742,-2.5742,-2.5742,-2.5742,-2.5742,-2.5742,-2.5742,-2.5742,0.0,0.0,0.0,0.0,0.0,0.0,0.0,0.0,0.0,0.0,0.0,0.0,0.0,0.0,0.0,0.0,0.0,0.0,0.0,0.0,-1.3614,-1.3854,-1.4271,-1.435,-1.4165,-1.4129,-1.401,-1.3683,-1.3635,0.0,0.0,0.0,-1.4665,-1.5516,0.0,-1.5869,-1.6384,-1.6332,-1.6073,-1.5691,-1.5691,-1.5432,-1.5111,-1.5577,0.0,0.0,0.0,0.0,0.0,0.0,0.0,0.0,0.0,0.0,0.0,-1.5808,-1.6124,-1.6629,0.0,0.0,0.0,0.0,0.0,0.0,0.0,0.0,0.0,0.0,0.0,0.0,-2.3066,-2.3135,-2.3135,-2.3135,-2.3135,-2.3271,-2.3682,-2.3769,-2.3935,-2.4316,-2.4746,-2.501,-2.501,-2.5506,-2.5771,-2.5771,-2.5994,-2.6014,-2.6014,-2.6014,-2.6014,-2.6014,-2.6014,-2.6014,-2.6014,-2.6014,-2.6014,-2.583,-2.583,-2.583,-2.5742,-2.5742,-2.5742,-2.5742,-2.5742,-2.5742,-2.5742,-2.5742,-2.5742,-2.5742,-2.5742,-2.5742,-2.5742,-2.5742,-2.5742,-2.5742,0.0,0.0,0.0,0.0,0.0,0.0,0.0,0.0,0.0,0.0,0.0,0.0,0.0,0.0,0.0,0.0,0.0,0.0,0.0,0.0,-1.3906,-1.4325,-1.4306,-1.4114,-1.3752,-1.3705,-1.3893,-1.4159,-1.4049,0.0,0.0,0.0,0.0,-1.5526,0.0,-1.6291,-1.6353,-1.5991,-1.5784,-1.5691,-1.5691,-1.5628,-1.5587,-1.592,-1.6095,0.0,0.0,0.0,0.0,0.0,0.0,0.0,0.0,-1.5841,-1.6194,-1.6599,-1.6939,0.0,0.0,0.0,0.0,0.0,0.0,0.0,0.0,0.0,0.0,0.0,0.0,0.0,-2.3125,-2.3135,-2.3135,-2.3135,-2.3135,-2.3174,-2.3262,-2.3574,-2.3828,-2.3916,-2.4297,-2.456,-2.456,-2.5868,-2.6682,-2.6682,-2.7825,-2.8577,-2.8577,-2.8577,-2.8577,-2.8577,-2.8577,-2.8577,-2.8577,-2.8577,-2.8132,-2.722,-2.722,-2.6668,-2.5742,-2.5742,-2.5742,-2.5742,-2.5742,-2.5742,-2.5742,-2.5742,-2.5742,-2.5742,-2.5742,-2.5742,-2.5742,-2.5742,-2.5742,-2.5742,0.0,0.0,0.0,0.0,0.0,0.0,0.0,0.0,0.0,0.0,0.0,0.0,0.0,0.0,0.0,0.0,0.0,0.0,0.0,0.0,0.0,0.0,-1.5004,-1.4786,-1.4451,-1.4451,-1.4503,-1.4645,0.0,0.0,0.0,0.0,0.0,-1.5966,0.0,-1.6384,-1.6363,-1.6125,-1.6022,-1.6022,-1.6022,-1.6022,-1.6042,-1.6213,-1.6306,-1.6374,-1.6306,0.0,0.0,0.0,0.0,0.0,0.0,0.0,-1.7034,-1.7336,-1.765,-1.7982,0.0,0.0,0.0,0.0,0.0,0.0,0.0,0.0,0.0,0.0,0.0,-2.3299,-2.38,-2.3464,-2.3299,-2.38,-2.3474,-2.3309,-2.38,-2.3672,-2.3644,-2.423,-2.4197,-2.4283,-2.4806,-2.5836,-2.6732,-2.7252,-2.8098,-2.8701,-2.9037,-2.906,-2.916,-2.9396,-2.9407,-2.9407,-2.9407,-2.9407,-2.9039,-2.8495,-2.8495,-2.7861,-2.6572,-2.6014,-2.5742,-2.5742,-2.5742,-2.5742,-2.5742,-2.5742,-2.5742,-2.5742,-2.5742,-2.5742,-2.5742,-2.5742,-2.5742,-2.5742,0.0,0.0,0.0,0.0,0.0,0.0,0.0,0.0,0.0,0.0,0.0,0.0,0.0,0.0,0.0,0.0,0.0,0.0,0.0,0.0,0.0,0.0,-1.579,-1.5695,-1.5572,-1.5388,-1.5293,0.0,0.0,0.0,0.0,0.0,0.0,-1.6384,0.0,-1.6384,-1.6384,-1.6384,-1.6384,-1.6384,-1.6384,-1.6425,-1.6498,-1.6498,-1.6539,-1.6612,-1.6612,-1.656,-1.6487,-1.6294,0.0,0.0,0.0,0.0,-1.793,-1.793,-1.8253,-1.8549,0.0,0.0,0.0,0.0,0.0,0.0,0.0,0.0,0.0,0.0,0.0,-2.3464,-2.4628,-2.3887,-2.3551,-2.4872,-2.4135,-2.38,-2.4957,-2.4296,-2.4059,-2.4957,-2.4635,-2.4618,-2.5462,-2.6235,-2.6932,-2.7869,-2.8207,-2.8532,-2.9053,-2.9075,-2.9258,-2.977,-2.9782,-2.9827,-2.9907,-2.9907,-2.9863,-2.9681,-2.9498,-2.8773,-2.7589,-2.6476,-2.5927,-2.5742,-2.5742,-2.5742,-2.5742,-2.5742,-2.5742,-2.5742,-2.5742,-2.5742,-2.5742,-2.5742,-2.5742,-2.5742,0.0,0.0,0.0,0.0,0.0,0.0,0.0,0.0,0.0,0.0,0.0,0.0,0.0,0.0,0.0,0.0,0.0,0.0,-1.5648,0.0,0.0,-1.6033,-1.5656,-1.5691,-1.6148,-1.5461,-1.5426,0.0,0.0,0.0,0.0,0.0,0.0,-1.6384,0.0,0.0,-1.6384,-1.6384,-1.6384,-1.6384,-1.6384,-1.6612,-1.6894,-1.6894,-1.7142,-1.7554,-1.7554,-1.7295,-1.6894,-1.6894,-1.6866,0.0,0.0,0.0,-1.8145,-1.8145,-1.8461,0.0,0.0,0.0,0.0,0.0,0.0,0.0,0.0,0.0,0.0,0.0,-2.2882,-2.3464,-2.4628,-2.3887,-2.381,-2.5891,-2.5294,-2.4957,-2.6141,-2.6141,-2.6058,-2.6224,-2.6196,-2.6168,-2.6324,-2.7667,-2.855,-2.8716,-3.008,-3.0906,-3.1063,-3.1063,-3.11,-3.1162,-3.1162,-3.1397,-3.1783,-3.1796,-3.149,-3.0944,-2.9863,-2.8773,-2.7589,-2.74,-2.6754,-2.5742,-2.5742,-2.5742,-2.5742,-2.5742,-2.5742,-2.5742,-2.5742,-2.5742,-2.5742,-2.5742,-2.5742,-2.5742,0.0,0.0,0.0,0.0,0.0,0.0,0.0,0.0,0.0,0.0,0.0,0.0,0.0,0.0,0.0,-1.5642,-1.5746,-1.5922,-1.6324,-1.6546,-1.6728,-1.6824,-1.6619,-1.6558,-1.6654,-1.6249,-1.6277,0.0,0.0,0.0,0.0,-1.7188,-1.7005,0.0,0.0,0.0,0.0,0.0,-1.7027,-1.6746,-1.7085,-1.7467,-1.8002,-1.8192,-1.8441,-1.8676,-1.8262,-1.8194,-1.8251,-1.7952,-1.8123,-1.852,-1.852,0.0,0.0,0.0,-1.9249,0.0,0.0,0.0,0.0,0.0,0.0,0.0,0.0,0.0,0.0,0.0,-2.3812,-2.4352,-2.5174,-2.5206,-2.5557,-2.7116,-2.6461,-2.613,-2.7197,-2.6883,-2.6719,-2.7371,-2.6883,-2.6719,-2.736,-2.8056,-2.8694,-2.9371,-3.0107,-3.0633,-3.0947,-3.0959,-3.1085,-3.1386,-3.1386,-3.1499,-3.175,-3.175,-3.1614,-3.132,-3.0083,-2.8933,-2.7782,-2.7077,-2.637,-2.5742,-2.5742,-2.5742,-2.5742,-2.5742,-2.5742,-2.5742,-2.5742,-2.5742,-2.5742,-2.5742,-2.5742,-2.5742,0.0,0.0,0.0,0.0,0.0,0.0,0.0,0.0,0.0,0.0,0.0,0.0,0.0,0.0,0.0,0.0,-1.652,-1.6765,-1.7008,-1.7231,-1.7472,-1.7616,-1.7518,-1.7455,-1.7425,-1.7224,0.0,0.0,0.0,0.0,-1.7843,-1.7898,-1.7759,0.0,-1.7561,0.0,0.0,0.0,0.0,0.0,0.0,-1.8463,-1.9144,-1.9407,-1.9667,-1.9769,-1.9221,-1.9155,-1.9237,-1.8923,-1.9214,-1.9761,-1.9834,-2.0232,0.0,0.0,0.0,0.0,0.0,0.0,0.0,0.0,0.0,0.0,0.0,0.0,0.0,0.0,-2.4771,-2.5213,-2.5677,-2.6028,-2.6735,-2.8323,-2.7614,-2.729,-2.8347,-2.7867,-2.7626,-2.8438,-2.7787,-2.7626,-2.8438,-2.8518,-2.8858,-2.9714,-2.9792,-2.9967,-3.0382,-3.0407,-3.0583,-3.0972,-3.0984,-3.1047,-3.1198,-3.1323,-3.1386,-3.1386,-3.0526,-2.9484,-2.8275,-2.7415,-2.6571,-2.5783,-2.5614,-2.5635,-2.5723,-2.5615,-2.5566,-2.5557,-2.5449,-2.54,-2.54,-2.54,-2.54,-2.54,0.0,0.0,0.0,0.0,0.0,0.0,0.0,0.0,0.0,0.0,0.0,0.0,-1.5693,-1.6647,-1.7255,-1.7165,-1.7604,-1.7807,-1.7593,-1.7436,-1.764,-1.8145,-1.7812,0.0,-1.8886,0.0,0.0,0.0,0.0,0.0,-1.829,-1.843,-1.8646,-1.894,-1.7595,-1.7554,-1.8337,0.0,0.0,0.0,0.0,0.0,0.0,-2.0171,-2.0404,-2.0824,-2.0557,-1.9949,-1.9302,-1.9665,-1.9563,-1.9334,-1.9772,-2.0232,-2.0571,0.0,0.0,0.0,0.0,0.0,0.0,0.0,0.0,0.0,0.0,0.0,0.0,-2.4648,-2.536,-2.5789,-2.5813,-2.5727,-2.6565,-2.9291,-2.8767,-2.8426,-2.9534,-2.9624,-2.9624,-2.9702,-2.9624,-2.9624,-2.9702,-2.9702,-2.9714,-2.9792,-2.9792,-2.9804,-2.9829,-2.9829,-2.9842,-2.988,-2.988,-3.0131,-3.0658,-3.1148,-3.1386,-3.1386,-3.1304,-3.0692,-2.9484,-2.9484,-2.8223,-2.6027,-2.5381,-2.5352,-2.5703,-2.5283,-2.5098,-2.5059,-2.4648,-2.4482,-2.4482,-2.4482,-2.4482,-2.4482,0.0,0.0,0.0,0.0,0.0,0.0,0.0,0.0,0.0,0.0,0.0,0.0,0.0,-1.7451,-1.7856,-1.7738,-1.8152,-1.8363,-1.8351,-1.8596,-1.8775,-1.897,-1.8722,-1.8701,-1.8869,0.0,0.0,0.0,0.0,-1.8441,-1.8732,-1.8811,-1.9111,-1.9515,-1.9422,-1.922,-1.9059,-1.9302,0.0,0.0,0.0,0.0,0.0,0.0,0.0,0.0,-2.1439,0.0,-2.1245,-2.1047,-2.1058,-2.1144,-2.1331,-2.1237,-2.1046,-2.0726,-2.0945,0.0,0.0,0.0,0.0,0.0,0.0,0.0,0.0,0.0,0.0,-2.5763,-2.6103,-2.6325,-2.6682,-2.7029,-2.7624,-2.8987,-2.8897,-2.8867,-2.9664,-2.9792,-2.9792,-2.9792,-2.9792,-2.9792,-2.9792,-2.9792,-2.9792,-2.9792,-2.9792,-2.9792,-2.9792,-2.9792,-2.9792,-2.9792,-2.9792,-2.9892,-3.008,-3.0269,-3.0369,-3.0369,-3.0369,-2.9764,-2.8655,-2.8655,-2.7577,-2.5675,-2.5406,-2.5107,-2.4873,-2.4717,-2.4648,-2.4639,-2.4473,-2.4414,-2.4414,-2.4414,-2.4414,-2.4414,0.0,0.0,0.0,0.0,0.0,0.0,0.0,0.0,0.0,0.0,0.0,0.0,0.0,0.0,-1.8507,-1.8609,-1.8809,-1.8981,-1.907,-1.9263,-1.942,-1.942,-1.9275,-1.9117,-1.8934,0.0,0.0,0.0,0.0,0.0,0.0,-1.9376,-1.9613,-1.9829,-2.0594,-2.0507,0.0,0.0,0.0,-2.0455,0.0,0.0,-2.2211,0.0,0.0,0.0,0.0,0.0,-2.2087,-2.2013,-2.2025,-2.2111,-2.2247,-2.2006,-2.1572,-2.1007,-2.1252,0.0,0.0,0.0,0.0,0.0,0.0,0.0,0.0,0.0,-2.5432,-2.605,-2.6395,-2.6647,-2.6942,-2.7306,-2.7795,-2.8536,-2.8649,-2.885,-2.9428,-2.9503,-2.9578,-2.9767,-2.9792,-2.9792,-2.9792,-2.9792,-2.9792,-2.9792,-2.9792,-2.9792,-2.9792,-2.9792,-2.9792,-2.9792,-2.9792,-2.9792,-2.9792,-2.9792,-2.9792,-2.9792,-2.9792,-2.9365,-2.8688,-2.8688,-2.7801,-2.6278,-2.5947,-2.5275,-2.4404,-2.4258,-2.4209,-2.4189,-2.4043,-2.3984,-2.3984,-2.3984,-2.3984,-2.3984,0.0,0.0,0.0,0.0,0.0,0.0,0.0,0.0,0.0,0.0,0.0,0.0,0.0,0.0,0.0,-1.9761,-1.9656,-1.9617,-1.9617,-1.946,-1.9433,-1.9445,-1.93,-1.9259,-1.9271,0.0,0.0,0.0,0.0,0.0,0.0,0.0,-2.0306,-1.9805,-2.0875,-2.1033,-2.0526,0.0,-2.05,-2.1451,0.0,-2.2211,-2.269,0.0,0.0,0.0,-2.2506,-2.2111,-2.1765,-2.2506,-2.2359,-2.1939,0.0,-2.2297,-2.2089,-2.156,-2.1777,0.0,0.0,0.0,0.0,0.0,0.0,0.0,0.0,0.0,-2.4763,-2.5419,-2.6038,-2.644,-2.6533,-2.6533,-2.6816,-2.7883,-2.8072,-2.8273,-2.8825,-2.89,-2.9114,-2.9679,-2.9741,-2.9754,-2.9767,-2.9767,-2.9779,-2.9792,-2.9792,-2.9792,-2.9792,-2.9792,-2.9792,-2.9792,-2.9792,-2.9792,-2.9792,-2.9792,-2.9792,-2.9792,-2.9792,-2.9792,-2.9792,-2.9792,-2.9197,-2.8004,-2.6964,-2.5733,-2.4346,-2.3935,-2.3769,-2.373,-2.3301,-2.3135,-2.3135,-2.3135,-2.3135,-2.3135,0.0,0.0,0.0,0.0,0.0,0.0,0.0,0.0,0.0,0.0,0.0,0.0,-1.9073,-1.9483,-1.9711,-1.9786,-1.9747,-1.9759,-1.9759,-1.9708,-1.9895,-2.0307,-2.0225,-2.037,-2.0864,0.0,0.0,0.0,0.0,0.0,0.0,0.0,0.0,0.0,-1.9925,-2.0169,-2.0115,-2.1091,0.0,-2.1987,-2.2359,-2.2555,0.0,0.0,0.0,0.0,0.0,-2.3231,-2.3168,-2.3368,-2.2923,-2.2224,0.0,0.0,0.0,0.0,0.0,0.0,-2.2197,0.0,0.0,0.0,0.0,0.0,0.0,0.0,-2.4109,-2.5224,-2.5602,-2.584,-2.6389,-2.6533,-2.6634,-2.6866,-2.7256,-2.7708,-2.826,-2.8335,-2.8398,-2.8549,-2.8574,-2.8725,-2.9126,-2.9164,-2.934,-2.9767,-2.9792,-2.9792,-2.9792,-2.9792,-2.9792,-2.9792,-2.9792,-2.9792,-2.9792,-2.9792,-2.9792,-2.9792,-2.9792,-2.9792,-2.9792,-2.9792,-2.9197,-2.8084,-2.7775,-2.6523,-2.4656,-2.3702,-2.332,-2.3301,-2.3184,-2.3135,-2.3135,-2.3135,-2.3135,-2.3135,0.0,0.0,0.0,0.0,0.0,0.0,0.0,0.0,0.0,0.0,0.0,0.0,-1.9646,-1.9839,-1.999,-1.9862,-1.985,-1.985,-1.9965,-2.0089,-2.0366,-2.0772,-2.0794,-2.1001,0.0,0.0,0.0,0.0,0.0,0.0,0.0,0.0,0.0,0.0,0.0,0.0,0.0,0.0,0.0,0.0,-2.2225,0.0,0.0,-2.3108,-2.3517,0.0,-2.4002,-2.4089,-2.4076,-2.414,-2.359,-2.2689,-2.1873,0.0,0.0,0.0,0.0,0.0,0.0,0.0,0.0,0.0,0.0,0.0,-2.2884,-2.3266,-2.3737,-2.4613,-2.5165,-2.5632,-2.6038,-2.6302,-2.6533,-2.6533,-2.6728,-2.713,-2.7682,-2.7758,-2.7846,-2.8084,-2.8109,-2.8235,-2.8549,-2.8586,-2.8725,-2.9063,-2.9089,-2.9189,-2.9415,-2.9666,-2.9792,-2.9792,-2.9792,-2.9792,-2.9792,-2.9792,-2.9792,-2.9792,-2.9792,-2.9792,-2.9792,-2.9792,-2.9443,-2.8767,-2.8347,-2.7105,-2.5378,-2.4296,-2.3551,-2.3135,-2.3135,-2.3135,-2.3135,-2.3135,-2.3135,-2.3135,0.0,0.0,0.0,0.0,0.0,0.0,0.0,0.0,0.0,0.0,-2.0038,-2.0182,-2.0042,-2.0042,-2.0042,-2.0042,-1.9914,-1.9965,-2.0182,-2.0511,-2.0734,-2.0993,-2.1242,-2.1444,0.0,0.0,0.0,0.0,0.0,0.0,0.0,0.0,0.0,0.0,0.0,0.0,0.0,0.0,0.0,-2.1464,-2.1881,-2.2344,0.0,0.0,-2.3803,-2.3965,-2.4539,-2.4726,-2.4713,-2.4781,-2.4238,-2.3466,-2.2383,-2.2201,0.0,0.0,-2.1825,0.0,0.0,0.0,0.0,0.0,-2.2185,0.0,-2.2567,-2.2996,-2.3478,-2.3854,-2.4693,-2.5369,-2.5498,-2.5975,-2.6364,-2.6364,-2.6414,-2.6628,-2.7118,-2.7193,-2.7369,-2.7871,-2.7921,-2.7946,-2.8009,-2.8009,-2.8047,-2.8097,-2.8109,-2.8323,-2.8812,-2.9377,-2.9691,-2.9691,-2.9767,-2.9792,-2.9792,-2.9792,-2.9792,-2.9792,-2.9792,-2.9792,-2.9792,-2.9792,-2.9792,-2.9714,-2.8767,-2.7614,-2.6389,-2.5378,-2.4211,-2.3135,-2.3135,-2.3135,-2.3135,-2.3135,-2.3135,-2.3135,-2.0951,0.0,0.0,0.0,0.0,0.0,0.0,0.0,0.0,0.0,0.0,0.0,0.0,-2.0296,-2.0347,-2.0182,-2.0131,-2.0118,-2.0182,-2.0284,-2.0705,-2.1652,-2.175,-2.2235,-2.3153,0.0,0.0,0.0,0.0,0.0,0.0,0.0,0.0,0.0,0.0,0.0,0.0,0.0,0.0,-2.1856,-2.2466,-2.296,-2.3404,-2.3766,-2.4467,-2.5231,-2.5344,-2.5382,-2.5319,-2.4775,-2.4511,-2.4236,-2.324,-2.3105,-2.3105,-2.2259,0.0,0.0,0.0,0.0,0.0,-2.242,-2.2359,0.0,-2.2309,-2.2394,-2.265,-2.3466,-2.3649,-2.3919,-2.4648,-2.5103,-2.5395,-2.5395,-2.5834,-2.6377,-2.6603,-2.6697,-2.6653,-2.6766,-2.6779,-2.6954,-2.7394,-2.7444,-2.7632,-2.8072,-2.8109,-2.816,-2.826,-2.88,-2.9101,-2.9101,-2.9553,-2.9792,-2.9792,-2.9792,-2.9792,-2.9792,-2.9792,-2.9792,-2.9792,-2.9792,-2.9792,-2.9792,-2.9534,-2.8371,-2.6472,-2.6224,-2.4978,-2.3135,-2.3135,-2.3135,-2.3135,-2.3135,-2.3135,-2.3135,-2.1501,0.0,0.0,0.0,0.0,0.0,0.0,0.0,0.0,0.0,0.0,0.0,0.0,0.0,-2.1302,-2.1184,-2.1144,-2.1131,-2.1289,-2.1401,-2.1758,-2.242,-2.266,-2.3039,-2.3616,-2.3509,0.0,0.0,0.0,0.0,0.0,0.0,0.0,0.0,0.0,0.0,0.0,0.0,-2.1897,-2.2284,-2.2452,0.0,-2.364,-2.4179,-2.4908,-2.5636,-2.5925,-2.6025,-2.5937,-2.5331,-2.4959,-2.474,-2.4131,-2.3646,-2.3301,-2.2982,-2.2775,-2.2678,-2.2555,-2.2616,-2.269,-2.2555,-2.2555,0.0,0.0,-2.2555,-2.269,-2.3084,-2.3417,-2.3689,-2.3986,-2.469,-2.5167,-2.5099,-2.5704,-2.627,-2.6339,-2.6465,-2.6533,-2.6533,-2.6533,-2.6634,-2.6841,-2.6866,-2.6979,-2.7268,-2.7544,-2.7695,-2.7695,-2.8222,-2.8637,-2.8925,-2.9214,-2.9503,-2.9792,-2.9792,-2.9792,-2.9792,-2.9792,-2.9792,-2.9792,-2.9792,-2.9792,-2.9792,-2.9792,-2.887,-2.7279,-2.7279,-2.5953,-2.3877,-2.3299,-2.3135,-2.3135,-2.3135,-2.3135,-2.3135,-2.2069,0.0,0.0,0.0,0.0,0.0,0.0,0.0,0.0,0.0,0.0,0.0,0.0,0.0,0.0,0.0,-2.2047,-2.2102,-2.2307,-2.2528,-2.2781,-2.3054,-2.3322,-2.3572,-2.3688,-2.3688,0.0,0.0,0.0,0.0,0.0,0.0,0.0,0.0,0.0,0.0,0.0,0.0,0.0,-2.2984,0.0,-2.3008,-2.3952,-2.4693,-2.531,-2.5824,-2.6302,-2.6533,-2.6389,-2.5925,-2.5443,-2.5093,-2.4727,-2.4079,-2.3509,-2.3521,-2.3268,-2.296,-2.2837,-2.2825,-2.28,-2.2739,-2.2739,-2.2739,0.0,0.0,0.0,-2.2848,-2.3331,0.0,0.0,0.0,0.0,-2.4804,-2.5568,-2.6164,-2.6064,-2.6333,-2.6465,-2.6465,-2.6465,-2.6465,-2.6465,-2.6465,-2.6465,-2.6533,-2.6879,-2.713,-2.7118,-2.7645,-2.8147,-2.8599,-2.8712,-2.9051,-2.9616,-2.9628,-2.9679,-2.9792,-2.9792,-2.9792,-2.9792,-2.9792,-2.9792,-2.9792,-2.9792,-2.9118,-2.8096,-2.8096,-2.693,-2.5041,-2.3887,-2.3299,-2.3135,-2.3135,-2.3135,-2.3135,-2.3385,-2.3374,0.0,0.0,0.0,0.0,0.0,0.0,0.0,0.0,0.0,0.0,0.0,0.0,0.0,0.0,0.0,-2.195,-2.2102,-2.2166,0.0,-2.3141,-2.3219,-2.3519,-2.4041,-2.3949,-2.3891,0.0,0.0,0.0,0.0,0.0,0.0,0.0,-2.1893,0.0,0.0,0.0,-2.3376,0.0,-2.3828,-2.4054,0.0,-2.5244,-2.5862,-2.6445,-2.6508,-2.6533,-2.6452,-2.6195,-2.5766,-2.5277,-2.4878,-2.4632,-2.4344,-2.3874,-2.3821,-2.3779,-2.3466,-2.322,-2.3017,-2.2909,-2.2848,-2.2848,-2.2739,0.0,-2.2739,-2.2739,0.0,-2.2641,-2.2776,0.0,0.0,-2.3747,-2.5073,-2.6027,-2.5462,-2.6015,-2.6396,-2.627,-2.6396,-2.6396,-2.627,-2.6201,-2.6339,-2.6465,-2.6389,-2.6427,-2.6553,-2.708,-2.7406,-2.7469,-2.7946,-2.8461,-2.9026,-2.9026,-2.9289,-2.9792,-2.9792,-2.9792,-2.9792,-2.9792,-2.9792,-2.9792,-2.9792,-2.9118,-2.8096,-2.8096,-2.736,-2.6224,-2.5041,-2.3963,-2.3135,-2.3135,-2.3135,-2.3135,-2.3595,-2.3566,0.0,0.0,0.0,0.0,0.0,0.0,0.0,0.0,0.0,0.0,0.0,0.0,0.0,0.0,0.0,-2.4956,-2.4393,-2.4366,0.0,-2.3746,-2.3733,-2.3851,-2.4112,-2.4067,-2.4008,0.0,-2.3936,0.0,0.0,0.0,0.0,0.0,-2.2757,0.0,-2.3475,0.0,-2.3925,0.0,0.0,-2.5214,-2.5375,-2.5523,-2.595,-2.6533,-2.6533,-2.6533,-2.6465,-2.6396,-2.6177,-2.5841,-2.5772,-2.54,-2.4954,-2.4876,-2.4623,-2.4405,-2.4277,-2.4166,-2.4054,-2.3991,-2.3754,-2.3604,-2.3866,-2.3692,-2.3406,-2.3331,0.0,0.0,0.0,0.0,0.0,0.0,-2.4325,-2.5036,-2.4735,-2.5095,-2.5627,-2.6139,-2.627,-2.627,-2.6213,-2.6213,-2.627,-2.6465,-2.6339,-2.627,-2.6465,-2.6678,-2.6954,-2.7268,-2.7507,-2.7896,-2.8448,-2.8775,-2.9051,-2.9289,-2.9628,-2.9792,-2.9792,-2.9792,-2.9792,-2.9792,-2.9792,-2.9534,-2.9106,-2.9106,-2.8438,-2.736,-2.693,-2.5619,-2.4125,-2.4125,-2.3637,-2.3135,-2.4118,0.0,0.0,0.0,0.0,0.0,0.0,0.0,0.0,0.0,0.0,0.0,-2.4584,-2.5358,0.0,0.0,-2.709,-2.7218,-2.6438,-2.6352,-2.5986,-2.5114,-2.4824,-2.4686,-2.4628,-2.4411,-2.4229,0.0,0.0,0.0,0.0,0.0,0.0,0.0,0.0,-2.3611,-2.379,0.0,-2.4506,-2.4722,-2.5481,-2.5911,-2.6117,-2.5904,-2.6101,-2.6533,-2.6533,-2.6533,-2.6465,-2.6465,-2.6227,-2.599,-2.6277,-2.5872,-2.5381,-2.5585,-2.5394,-2.5034,-2.4968,-2.4868,-2.482,-2.482,-2.4519,-2.433,-2.4732,-2.4506,-2.4154,-2.3965,-2.4028,0.0,0.0,0.0,-2.3802,-2.3229,0.0,-2.4381,-2.4221,-2.4474,-2.4987,-2.5865,-2.6114,-2.6201,-2.6131,-2.6131,-2.6201,-2.6396,-2.6201,-2.6201,-2.6465,-2.6533,-2.671,-2.7042,-2.7055,-2.7318,-2.7871,-2.8285,-2.8637,-2.8938,-2.9352,-2.9641,-2.9792,-2.9792,-2.9792,-2.9792,-2.9792,-2.9792,-2.9792,-2.9792,-2.9287,-2.8597,-2.8597,-2.736,-2.5608,-2.5031,-2.4296,-2.3551,-2.542,-2.5031,0.0,0.0,0.0,0.0,0.0,0.0,0.0,0.0,0.0,0.0,0.0,0.0,0.0,0.0,-2.7284,-2.7284,-2.7284,-2.7239,-2.7357,-2.7488,-2.6743,-2.6208,-2.5918,-2.5189,-2.4563,0.0,0.0,0.0,0.0,0.0,0.0,0.0,0.0,-2.4201,-2.4696,-2.4925,-2.5344,-2.5838,-2.5652,-2.6059,-2.6688,-2.6496,-2.6508,-2.6533,-2.6533,-2.6533,-2.6465,-2.627,-2.5841,-2.5468,-2.5807,-2.5654,-2.5455,-2.5795,-2.5754,-2.5507,-2.5331,-2.5025,-2.482,-2.482,-2.4808,-2.4795,-2.482,-2.4808,-2.4743,-2.4613,-2.4549,-2.4375,-2.3803,-2.4163,-2.4252,-2.3278,-2.4029,0.0,0.0,-2.4481,-2.4903,-2.5319,-2.5865,-2.6131,-2.591,-2.591,-2.598,-2.6201,-2.598,-2.605,-2.6465,-2.6533,-2.6533,-2.6559,-2.6559,-2.6753,-2.7306,-2.7318,-2.7871,-2.8925,-2.895,-2.9252,-2.9792,-2.9792,-2.9792,-2.9792,-2.9792,-2.9792,-2.9792,-2.9792,-2.9792,-2.9714,-2.9714,-2.9028,-2.7752,-2.5619,-2.4787,-2.4628,0.0,0.0,0.0,0.0,0.0,0.0,0.0,-2.6023,0.0,0.0,-2.6597,0.0,0.0,-2.8525,-2.9154,-2.9516,-3.0609,-3.0725,-2.944,-2.9323,-2.8848,-2.7645,-2.7204,-2.6782,-2.6394,-2.5741,-2.5283,0.0,0.0,0.0,0.0,0.0,0.0,0.0,0.0,-2.486,0.0,0.0,0.0,0.0,0.0,-2.7446,-2.7484,-2.6837,-2.6658,-2.6589,-2.6521,-2.6533,-2.6465,-2.6396,-2.6271,-2.6133,-2.6264,-2.6189,-2.6145,-2.6264,-2.6258,-2.6176,-2.6108,-2.6038,-2.5912,-2.5912,-2.5611,-2.5435,-2.5824,-2.5611,-2.5335,-2.5269,-2.5269,-2.4993,-2.4092,-2.4092,-2.3904,-2.3081,-2.3281,-2.3468,0.0,-2.3854,-2.428,-2.425,-2.4962,-2.545,-2.5369,-2.5701,-2.598,-2.6201,-2.6131,-2.6201,-2.6465,-2.6533,-2.6533,-2.6533,-2.6533,-2.6622,-2.6741,-2.7105,-2.7657,-2.8386,-2.875,-2.9239,-2.9792,-2.9792,-2.9792,-2.9792,-2.9792,-2.9792,-2.9792,-2.9792,-2.9792,-2.9792,-2.9792,-2.9534,-2.9028,-2.7522,-2.6025,-2.4628,-2.6258,0.0,0.0,0.0,0.0,0.0,0.0,-2.7292,-2.7636,0.0,-2.8327,-2.8353,-2.9304,-3.0426,-3.1216,-3.1601,-3.2716,-3.2773,-3.1387,-3.1404,-3.0756,-2.924,-2.8836,-2.8351,-2.7726,-2.6775,-2.6254,-2.6174,0.0,-2.4922,0.0,0.0,0.0,0.0,0.0,0.0,-2.728,0.0,-2.7564,0.0,0.0,-2.8576,-2.8635,-2.8053,-2.773,-2.7553,-2.7952,-2.8085,-2.8085,-2.8085,-2.7954,-2.7717,-2.7717,-2.7574,-2.7417,-2.7417,-2.7162,-2.6905,-2.6905,-2.6714,-2.6589,-2.685,-2.6435,-2.6135,-2.6761,-2.6422,-2.5967,-2.6155,-2.6034,-2.569,-2.4988,-2.4545,-2.4042,-2.3417,-2.3094,-2.2969,0.0,-2.3403,-2.3629,-2.3492,-2.4412,-2.5024,-2.5087,-2.5419,-2.577,-2.605,-2.6062,-2.6201,-2.6396,-2.6465,-2.6533,-2.6533,-2.6533,-2.6533,-2.6533,-2.6816,-2.7369,-2.8109,-2.8461,-2.9038,-2.9792,-2.9792,-2.9792,-2.9792,-2.9792,-2.9792,-2.9792,-2.9792,-2.9792,-2.9792,-2.9792,-2.9792,-2.9624,-2.8518,-2.6685,-2.4702,-2.744,0.0,0.0,0.0,-2.7215,0.0,-2.8502,-2.8517,-2.8717,-2.9401,-2.9915,-3.0452,-3.1161,-3.1916,-3.2675,-3.333,-3.3528,-3.3466,-3.3048,-3.325,-3.2968,-3.2119,-3.1471,-3.0749,-2.9813,-2.8209,-2.7456,-2.7661,0.0,0.0,0.0,0.0,0.0,0.0,-2.5928,0.0,-2.7349,-2.7427,-2.8138,-2.9129,-2.9093,-2.9481,-3.0086,-3.0155,-2.9761,-2.9416,-3.0538,-3.0999,-3.0999,-3.0999,-3.0557,-3.0072,-3.0072,-2.9619,-2.9085,-2.9058,-2.8481,-2.7842,-2.7736,-2.7229,-2.6782,-2.7537,-2.7162,-2.685,-2.7604,-2.7162,-2.6782,-2.7229,-2.6905,-2.6616,-2.6426,-2.5549,-2.4696,-2.4079,-2.3514,-2.3078,-2.3078,-2.3078,-2.3078,-2.3078,-2.4092,-2.4828,-2.5031,-2.5074,-2.5308,-2.5824,-2.5898,-2.598,-2.6201,-2.6396,-2.6533,-2.6533,-2.6533,-2.6533,-2.6533,-2.6533,-2.7005,-2.8059,-2.8097,-2.8674,-2.9754,-2.9779,-2.9792,-2.9792,-2.9792,-2.9792,-2.9792,-2.9792,-2.9792,-2.9792,-2.9792,-2.9792,-2.9624,-2.8518,-2.6767,-2.4957,-2.7595,-2.7979,-2.8293,0.0,-2.8233,-2.8397,-2.8577,-2.9011,-2.9675,-3.0824,-3.1066,-3.1603,-3.275,-3.3513,-3.3976,-3.4155,-3.4696,-3.4707,-3.3917,-3.3951,-3.3684,-3.2983,-3.218,-3.1516,-3.0924,-2.9464,-2.867,-2.8581,0.0,0.0,-2.7822,0.0,0.0,0.0,0.0,0.0,-2.9204,-2.8862,-2.9423,-3.0597,-3.0678,-3.0777,-3.1097,-3.2155,-3.2514,-3.2259,-3.1324,-3.0999,-3.0999,-3.0999,-3.0901,-3.0762,-3.0762,-3.0599,-3.0377,-2.9868,-2.96,-2.9309,-2.8807,-2.8492,-2.8427,-2.862,-2.8492,-2.8427,-2.862,-2.8492,-2.8363,-2.8492,-2.8427,-2.8058,-2.6984,-2.6214,-2.5353,-2.4204,-2.3514,-2.3078,-2.3078,-2.3078,-2.3078,-2.3078,-2.3389,-2.3654,-2.4025,-2.4752,-2.5283,-2.5419,-2.6021,-2.6396,-2.6396,-2.6465,-2.6533,-2.6533,-2.6533,-2.6533,-2.6533,-2.6533,-2.6804,-2.7494,-2.7908,-2.8473,-2.9164,-2.9591,-2.9792,-2.9792,-2.9792,-2.9792,-2.9792,-2.9792,-2.9792,-2.9792,-2.9792,-2.9792,-2.9624,-2.8518,-2.7763,-2.7012,-2.8442,-2.8771,0.0,-2.9026,-2.9505,-2.9879,-2.9879,-3.0193,-3.0911,-3.2213,-3.2647,-3.3095,-3.3844,-3.4517,-3.4921,-3.4921,-3.528,-3.526,-3.4664,-3.4713,-3.4431,-3.3698,-3.3312,-3.2807,-3.2273,-3.0852,-3.0148,-3.025,0.0,0.0,-2.8641,0.0,0.0,0.0,0.0,-2.8211,0.0,-3.0032,-3.0631,-3.1515,-3.1687,-3.2046,0.0,-3.346,-3.4059,-3.4265,-3.3332,-3.299,-3.299,-3.299,-3.2789,-3.2558,-3.2558,-3.2306,-3.2004,-3.166,-3.129,-3.0884,-3.0531,-2.9917,-2.9517,-2.9883,-2.9498,-2.9129,-2.9504,-2.9254,-2.9066,-2.9268,-2.9142,-2.8843,-2.8261,-2.7216,-2.5939,-2.4242,-2.3728,-2.3427,-2.3115,-2.3351,-2.3514,-2.3514,-2.3728,-2.3929,-2.4191,-2.4648,-2.514,-2.5692,-2.6083,-2.6396,-2.6396,-2.6465,-2.6533,-2.6533,-2.6396,-2.6396,-2.6533,-2.6396,-2.6671,-2.7293,-2.7846,-2.8398,-2.895,-2.9528,-2.9792,-2.9792,-2.9792,-2.9792,-2.9792,-2.9792,-2.9792,-2.9792,-2.9792,-2.9792,-2.9702,-2.9106,-2.8518,-2.7924,-2.9579,0.0,0.0,0.0,-3.0851,-3.1719,-3.1898,-3.1839,-3.2228,-3.3469,-3.4128,-3.4502,-3.4607,-3.5145,-3.5504,-3.5504,-3.5504,-3.5439,-3.5228,-3.5424,-3.517,-3.4416,-3.4454,-3.4203,-3.3634,-3.2288,-3.1708,-3.2062,0.0,0.0,0.0,0.0,0.0,0.0,0.0,0.0,0.0,-3.0866,-3.1531,-3.2001,-3.2316,-3.3149,-3.4203,-3.4307,-3.4837,-3.5504,-3.5504,-3.5504,-3.5504,-3.5504,-3.51,-3.4607,-3.4607,-3.4218,-3.3739,-3.3649,-3.3077,-3.2449,-3.2376,-3.1418,-3.0608,-3.1353,-3.0444,-2.9631,-3.0398,-2.9946,-2.9456,-2.9931,-2.9656,-2.9456,-2.9794,-2.8269,-2.6396,-2.4694,-2.4404,-2.4226,-2.3704,-2.4121,0.0,0.0,-2.4709,0.0,-2.4921,-2.4778,-2.5046,-2.6015,-2.6164,-2.627,-2.627,-2.6396,-2.6533,-2.6533,-2.6339,-2.6339,-2.6533,-2.6339,-2.6614,-2.7293,-2.7846,-2.8398,-2.895,-2.9528,-2.9792,-2.9792,-2.9792,-2.9792,-2.9792,-2.9792,-2.9792,-2.9792,-2.9792,-2.9792,-2.9792,-2.9792,-2.9197,-2.8267,-2.9633,0.0,0.0,0.0,-3.1824,-3.2706,-3.3799,-3.3499,-3.3425,-3.4203,-3.4412,-3.4696,-3.5265,-3.5429,-3.5504,-3.5504,-3.5504,-3.5504,-3.5439,-3.5504,-3.5444,-3.526,-3.4771,-3.4427,-3.4307,-3.3436,-3.2718,-3.2242,-3.1102,0.0,0.0,0.0,0.0,0.0,0.0,0.0,-3.066,-3.0837,0.0,-3.2046,-3.2805,-3.355,-3.4263,-3.4971,-3.54,-3.5504,-3.5504,-3.5504,-3.5504,-3.5504,-3.5429,-3.5325,-3.5325,-3.525,-3.504,-3.4472,-3.423,-3.3984,-3.3434,-3.3072,-3.2921,-3.3045,-3.2494,-3.196,-3.208,-3.1545,-3.1087,-3.1161,-3.1161,-3.0911,-3.0343,-2.8753,-2.7331,-2.6546,-2.6378,-2.6431,-2.6567,-2.6635,-2.6478,0.0,-2.5831,-2.5766,-2.5476,-2.546,-2.5469,-2.567,-2.6201,-2.6465,-2.6465,-2.6465,-2.6533,-2.6533,-2.6465,-2.6465,-2.6533,-2.6465,-2.6741,-2.7293,-2.7846,-2.8398,-2.895,-2.9528,-2.9792,-2.9792,-2.9792,-2.9792,-2.9792,-2.9792,-2.9792,-2.9792,-2.9792,-2.9792,-2.9792,-2.9792,-2.9702,-2.9365,-3.1165,0.0,0.0,0.0,-3.2587,-3.3469,-3.4801,-3.5026,-3.516,-3.5474,-3.5519,-3.5774,-3.6432,-3.6492,-3.6492,-3.6492,-3.6492,-3.6357,-3.6028,-3.6013,-3.5863,-3.5519,-3.519,-3.5011,-3.5011,-3.4289,-3.3687,-3.3173,-3.2031,-3.1042,0.0,0.0,0.0,0.0,0.0,-3.0937,0.0,0.0,-3.2195,-3.322,-3.3687,-3.4286,-3.4897,-3.532,-3.5504,-3.5504,-3.5504,-3.5504,-3.5504,-3.5504,-3.5504,-3.5504,-3.5504,-3.5504,-3.5444,-3.51,-3.5011,-3.4936,-3.4622,-3.4277,-3.4008,-3.4008,-3.3499,-3.3021,-3.3021,-3.2512,-3.2048,-3.2048,-3.1764,-3.1219,-3.045,-2.9464,-2.8518,-2.7726,-2.7448,-2.7324,-2.7325,-2.7561,-2.7649,-2.7237,0.0,-2.7189,-2.671,-2.655,-2.6362,-2.6118,-2.637,-2.6533,-2.6533,-2.6533,-2.6533,-2.6533,-2.6396,-2.6396,-2.6533,-2.6396,-2.6671,-2.7293,-2.7846,-2.8398,-2.895,-2.9528,-2.9792,-2.9792,-2.9792,-2.9792,-2.9792,-2.9792,-2.9792,-2.9792,-2.9792,-2.9792,-2.9792,-2.9792,-2.9792,-2.9702,-3.2826,-3.2841,0.0,-3.3125,-3.3694,-3.4532,-3.5729,-3.6342,-3.6686,-3.6686,-3.6686,-3.6866,-3.736,-3.7404,-3.7404,-3.7404,-3.7404,-3.721,-3.6716,-3.6552,-3.6252,-3.5744,-3.5579,-3.5504,-3.5504,-3.4966,-3.4494,-3.4105,-3.2992,-3.1808,-3.0543,0.0,0.0,0.0,0.0,-3.1452,-3.2129,-3.2374,-3.3164,-3.4267,-3.4472,-3.4891,-3.5504,-3.5504,-3.5504,-3.5504,-3.5504,-3.5504,-3.5504,-3.5504,-3.5504,-3.5504,-3.5504,-3.5504,-3.5504,-3.5504,-3.5504,-3.5504,-3.5504,-3.51,-3.4696,-3.4696,-3.4203,-3.3709,-3.3709,-3.32,-3.2677,-3.2542,-3.1988,-3.1278,-3.0584,-3.0222,-2.9761,-2.8886,-2.8544,-2.8363,-2.8099,-2.8584,-2.8848,-2.8666,-2.8712,-2.857,-2.8051,-2.7484,-2.7095,-2.6782,-2.6589,-2.6533,-2.6533,-2.6533,-2.6533,-2.6533,-2.6339,-2.6339,-2.6533,-2.6339,-2.6664,-2.7469,-2.7896,-2.8461,-2.9126,-2.9578,-2.9792,-2.9792,-2.9792,-2.9792,-2.9792,-2.9792,-2.9792,-2.9792,-2.9792,-2.9792,-2.9792,-2.9792,-2.9792,-2.9792,-3.341,0.0,-3.4487,-3.5115,-3.5774,-3.6447,-3.712,-3.7285,-3.733,-3.733,-3.733,-3.7345,-3.7404,-3.7404,-3.7404,-3.7404,-3.7404,-3.7389,-3.733,-3.6791,-3.6462,-3.6402,-3.5818,-3.5504,-3.5504,-3.5444,-3.51,-3.4472,-3.4133,-3.2716,-3.0374,-3.1204,-3.1596,-3.1611,-3.167,-3.225,-3.3179,-3.3193,-3.3719,-3.4472,-3.4472,-3.4891,-3.5504,-3.5504,-3.5504,-3.5504,-3.5504,-3.5504,-3.5504,-3.5504,-3.5504,-3.5504,-3.5504,-3.5504,-3.5504,-3.5504,-3.5504,-3.5504,-3.5504,-3.5459,-3.5415,-3.5415,-3.4891,-3.4382,-3.4382,-3.3873,-3.323,-3.2647,-3.1988,-3.1409,-3.1029,-3.0911,-3.0777,-3.0421,-3.0571,-3.066,-3.0661,-3.0954,-3.094,-3.0182,-2.9875,-2.9484,-2.8939,-2.7855,-2.7284,-2.7537,-2.6905,-2.6533,-2.6533,-2.6533,-2.6533,-2.6533,-2.6465,-2.6465,-2.6533,-2.6465,-2.6992,-2.8034,-2.8084,-2.8674,-2.9716,-2.9767,-2.9792,-2.9792,-2.9792,-2.9792,-2.9792,-2.9792,-2.9792,-2.9792,-2.9792,-2.9792,-2.9792,-2.9792,-2.9792,-2.9792,-3.6899,-3.704,-3.714,-3.6842,-3.707,-3.741,-3.7907,-3.8003,-3.8138,-3.8556,-3.8257,-3.8153,-3.8571,-3.8616,-3.8616,-3.8616,-3.8616,-3.8437,-3.8018,-3.7764,-3.7285,-3.6522,-3.6237,-3.5908,-3.5519,-3.5504,-3.5305,-3.4942,-3.4088,-3.3043,-3.19,-3.1896,-3.2147,-3.2529,-3.262,-3.3099,-3.3832,-3.3973,-3.4424,-3.51,-3.51,-3.525,-3.5504,-3.5504,-3.5504,-3.5504,-3.5504,-3.5504,-3.5504,-3.5504,-3.5504,-3.5504,-3.5504,-3.5504,-3.5504,-3.5504,-3.5504,-3.5504,-3.5504,-3.5504,-3.5504,-3.5504,-3.5295,-3.51,-3.51,-3.4562,-3.4008,-3.3739,-3.2856,-3.1945,-3.141,-3.1161,-3.1029,-3.1102,-3.1043,-3.1087,-3.1278,-3.1409,-3.1278,-3.0777,-3.0493,-3.0054,-2.9532,-2.832,-2.7626,-2.771,-2.6973,-2.6533,-2.6533,-2.6533,-2.6533,-2.6533,-2.6533,-2.6533,-2.6533,-2.6533,-2.7017,-2.8109,-2.8109,-2.8699,-2.9792,-2.9792,-2.9792,-2.9792,-2.9792,-2.9792,-2.9792,-2.9792,-2.9792,-2.9792,-2.9792,-2.9792,-2.9792,-2.9792,-2.9792,-2.9792,-3.9392,-3.9473,-3.9377,-3.8779,-3.8589,-3.8666,-3.9055,-3.8888,-3.8871,-3.9349,-3.899,-3.8871,-3.9364,-3.9424,-3.9424,-3.9424,-3.9424,-3.9215,-3.8721,-3.8497,-3.7988,-3.709,-3.6686,-3.6267,-3.5804,-3.5609,-3.5439,-3.5294,-3.4371,-3.3654,-3.3129,-3.2626,-3.2682,-3.338,-3.368,-3.4163,-3.4565,-3.4707,-3.5055,-3.5504,-3.5504,-3.5504,-3.5504,-3.5504,-3.5504,-3.5504,-3.5504,-3.5504,-3.5504,-3.5504,-3.5504,-3.5504,-3.5504,-3.5504,-3.5504,-3.5504,-3.5504,-3.5504,-3.5504,-3.5504,-3.5504,-3.5504,-3.5504,-3.5504,-3.5504,-3.513,-3.4666,-3.4262,-3.3305,-3.2317,-3.1601,-3.1278,-3.1219,-3.1351,-3.1219,-3.1219,-3.1351,-3.1409,-3.1409,-3.1029,-3.0747,-3.0507,-3.0176,-2.903,-2.8324,-2.8465,-2.767,-2.704,-2.6521,-2.6533,-2.6533,-2.6533,-2.6533,-2.6533,-2.6533,-2.6697,-2.7168,-2.8109,-2.8273,-2.885,-2.9792,-2.9792,-2.9792,-2.9792,-2.9792,-2.9792,-2.9792,-2.9792,-2.9792,-2.9792,-2.9792,-2.9792,-2.9792,-2.9792,-2.9792,-2.9792,-3.9959,-4.0553,-4.0988,-4.0988,-4.0792,-4.0659,-4.0675,-3.9905,-3.9409,-3.9424,-3.9409,-3.9409,-3.9424,-3.9424,-3.9424,-3.9424,-3.9424,-3.9424,-3.9409,-3.8766,-3.8377,-3.8362,-3.7165,-3.6492,-3.6477,-3.5833,-3.5504,-3.5504,-3.5489,-3.4801,-3.3499,-3.3285,-3.355,-3.4218,-3.4887,-3.5279,-3.5489,-3.5489,-3.5489,-3.5504,-3.5504,-3.5504,-3.5504,-3.5504,-3.5504,-3.5504,-3.5504,-3.5504,-3.5504,-3.5504,-3.5504,-3.5504,-3.5504,-3.5504,-3.5504,-3.5504,-3.5504,-3.5504,-3.5504,-3.5504,-3.5504,-3.5504,-3.5504,-3.5504,-3.5504,-3.5489,-3.5115,-3.3784,-3.2976,-3.2317,-3.1601,-3.1482,-3.1409,-3.1087,-3.1278,-3.1409,-3.1029,-3.1278,-3.1409,-3.1029,-3.0747,-3.0687,-3.097,-2.9964,-2.9532,-3.0208,-2.9442,-2.8247,-2.6589,-2.6533,-2.6533,-2.6533,-2.6533,-2.6533,-2.6533,-2.7005,-2.7557,-2.8109,-2.8662,-2.9227,-2.9792,-2.9792,-2.9792,-2.9792,-2.9792,-2.9792,-2.9792,-2.9792,-2.9792,-2.9792,-2.9792,-2.9792,-2.9792,-2.9792,-2.9792,-2.9792,-4.3156,-4.3281,-4.3273,-4.2703,-4.2499,-4.2062,-4.0878,-4.0432,-4.0309,-4.0309,-4.0309,-4.0309,-4.0309,-3.9737,-3.9424,-3.9424,-3.9424,-3.9424,-3.9424,-3.9215,-3.8886,-3.8407,-3.8003,-3.7375,-3.6507,-3.6282,-3.5953,-3.5504,-3.504,-3.4577,-3.4158,-3.4095,-3.4454,-3.5111,-3.5335,-3.5439,-3.5504,-3.5504,-3.5504,-3.5504,-3.5504,-3.5504,-3.5504,-3.5504,-3.5504,-3.5504,-3.5504,-3.5504,-3.5504,-3.5504,-3.5504,-3.5504,-3.5504,-3.5504,-3.5504,-3.5504,-3.5504,-3.5504,-3.5504,-3.5504,-3.5504,-3.5504,-3.5504,-3.5504,-3.5504,-3.5504,-3.525,-3.4337,-3.3649,-3.2976,-3.2317,-3.1839,-3.1467,-3.1351,-3.1409,-3.1467,-3.1351,-3.1219,-3.1043,-3.0747,-3.0462,-3.0401,-3.0687,-2.9817,-2.943,-2.9889,-2.9091,-2.8211,-2.7324,-2.7284,-2.7095,-2.6521,-2.6533,-2.6533,-2.6533,-2.7005,-2.7557,-2.8109,-2.8662,-2.9239,-2.9792,-2.9792,-2.9792,-2.9792,-2.9792,-2.9792,-2.9792,-2.9792,-2.9792,-2.9792,-2.9792,-2.9792,-2.9792,-2.9792,-2.9792,-2.9792,-4.4587,-4.4587,-4.444,-4.3873,-4.3502,-4.2909,-4.1869,-4.1412,-4.1213,-4.1213,-4.1213,-4.1213,-4.1213,-4.0706,-4.013,-3.9481,-3.9424,-3.9424,-3.9424,-3.9424,-3.923,-3.8796,-3.8527,-3.8018,-3.7225,-3.6731,-3.6282,-3.5878,-3.519,-3.4861,-3.4861,-3.4861,-3.51,-3.5504,-3.5504,-3.5504,-3.5504,-3.5504,-3.5504,-3.5504,-3.5504,-3.5504,-3.5504,-3.5504,-3.5504,-3.5504,-3.5504,-3.5504,-3.5504,-3.5504,-3.5504,-3.5504,-3.5504,-3.5504,-3.5504,-3.5504,-3.5504,-3.5504,-3.5504,-3.5504,-3.5504,-3.5504,-3.5504,-3.5504,-3.5504,-3.5504,-3.531,-3.4622,-3.3948,-3.3305,-3.2632,-3.1973,-3.1482,-3.1482,-3.1482,-3.1467,-3.1351,-3.1146,-3.0911,-3.0628,-3.0401,-3.0401,-3.0747,-3.0219,-3.0028,-3.0404,-2.9878,-2.9308,-2.8721,-2.8247,-2.7868,-2.7484,-2.7417,-2.7387,-2.7267,-2.7844,-2.8206,-2.8423,-2.8988,-2.944,-2.9792,-2.9792,-2.9792,-2.9792,-2.9792,-2.9792,-2.9792,-2.9792,-2.9792,-2.9792,-2.9792,-2.9792,-2.9792,-2.9792,-2.9792,-2.9792,-4.4587,-4.4587,-4.4587,-4.4587,-4.3948,-4.3366,-4.3306,-4.2583,-4.2062,-4.2062,-4.2062,-4.2062,-4.2062,-4.2062,-4.1412,-3.9737,-3.9553,-3.9481,-3.9409,-3.9424,-3.9424,-3.9424,-3.8796,-3.8437,-3.8392,-3.7225,-3.6567,-3.6492,-3.5878,-3.5549,-3.5504,-3.5504,-3.5504,-3.5504,-3.5504,-3.5504,-3.5504,-3.5504,-3.5504,-3.5504,-3.5504,-3.5504,-3.5504,-3.5504,-3.5504,-3.5504,-3.5504,-3.5504,-3.5504,-3.5504,-3.5504,-3.5504,-3.5504,-3.5504,-3.5504,-3.5504,-3.5504,-3.5504,-3.5504,-3.5504,-3.5504,-3.5504,-3.5504,-3.5504,-3.5504,-3.5504,-3.5325,-3.4681,-3.4023,-3.3365,-3.2706,-3.2048,-3.1526,-3.1482,-3.1467,-3.1351,-3.1029,-3.097,-3.0851,-3.0628,-3.0568,-3.0687,-3.097,-3.1029,-3.1146,-3.1409,-3.1467,-3.1161,-3.0389,-2.9254,-2.8748,-2.9002,-2.9002,-2.8828,-2.8473,-2.9078,-2.9223,-2.9001,-2.9528,-2.9792,-2.9792,-2.9792,-2.9792,-2.9792,-2.9792,-2.9792,-2.9792,-2.9792,-2.9792,-2.9792,-2.9792,-2.9792,-2.9792,-2.9792,-2.9792,-2.9792,-4.4587,-4.4587,-4.4587,-4.4587,-4.444,-4.4064,-4.3366,-4.3108,-4.2986,-4.2986,-4.2986,-4.2986,-4.2986,-4.2986,-4.2583,-4.1478,-4.0758,-4.0115,-3.9409,-3.9424,-3.9424,-3.9424,-3.926,-3.8931,-3.8407,-3.8093,-3.7464,-3.6492,-3.6327,-3.5998,-3.5504,-3.5504,-3.5504,-3.5504,-3.5504,-3.5504,-3.5504,-3.5504,-3.5504,-3.5504,-3.5504,-3.5504,-3.5504,-3.5504,-3.5504,-3.5504,-3.5504,-3.5504,-3.5504,-3.5504,-3.5504,-3.5504,-3.5504,-3.5504,-3.5504,-3.5504,-3.5504,-3.5504,-3.5504,-3.5504,-3.5504,-3.5504,-3.5504,-3.5504,-3.5504,-3.5504,-3.5459,-3.5295,-3.4726,-3.4038,-3.338,-3.2721,-3.2123,-3.1556,-3.1278,-3.1087,-3.1029,-3.0792,-3.0687,-3.0628,-3.0568,-3.0687,-3.097,-3.1029,-3.1029,-3.1087,-3.1087,-3.1029,-3.0837,-3.0584,-2.995,-2.9002,-2.9002,-2.8828,-2.8473,-2.9078,-2.943,-2.9591,-2.9729,-2.9792,-2.9792,-2.9792,-2.9792,-2.9792,-2.9792,-2.9792,-2.9792,-2.9792,-2.9792,-2.9792,-2.9792,-2.9792,-2.9792,-2.9792,-2.9792,-2.9792,-4.4587,-4.4587,-4.4587,-4.4587,-4.4587,-4.444,-4.3948,-4.3873,-4.3873,-4.3873,-4.3873,-4.3873,-4.3873,-4.3873,-4.3545,-4.2645,-4.1804,-4.108,-4.0638,-4.0585,-4.0585,-4.0585,-4.0185,-3.9808,-3.9428,-3.8737,-3.7898,-3.6911,-3.6626,-3.6297,-3.5953,-3.5639,-3.5504,-3.5504,-3.5504,-3.5504,-3.5504,-3.5504,-3.5504,-3.5504,-3.5504,-3.5504,-3.5504,-3.5504,-3.5504,-3.5504,-3.5504,-3.5504,-3.5504,-3.5504,-3.5504,-3.5504,-3.5504,-3.5504,-3.5504,-3.5504,-3.5504,-3.5504,-3.5504,-3.5504,-3.5504,-3.5504,-3.5504,-3.5504,-3.5504,-3.5504,-3.5504,-3.5504,-3.4966,-3.4277,-3.3619,-3.2961,-3.2302,-3.1586,-3.1278,-3.1087,-3.1029,-3.0807,-3.0687,-3.0807,-3.0792,-3.0925,-3.1219,-3.1219,-3.1219,-3.1219,-3.1219,-3.1219,-3.1219,-3.1219,-3.0896,-3.0147,-3.042,-3.046,-3.0154,-3.0218,-3.0086,-2.9792,-2.9792,-2.9792,-2.9792,-2.9792,-2.9792,-2.9792,-2.9792,-2.9792,-2.9792,-2.9792,-2.9792,-2.9792,-2.9792,-2.9792,-2.9792,-2.9792,-2.9792,-2.9792,-4.4587,-4.4587,-4.4587,-4.4587,-4.4587,-4.4587,-4.4587,-4.4587,-4.4587,-4.4587,-4.4587,-4.4587,-4.4587,-4.4587,-4.4327,-4.3562,-4.2847,-4.2252,-4.1997,-4.1997,-4.1997,-4.1997,-4.128,-4.0878,-4.0878,-3.9466,-3.8337,-3.7554,-3.6926,-3.6582,-3.6477,-3.5804,-3.5504,-3.5504,-3.5504,-3.5504,-3.5504,-3.5504,-3.5504,-3.5504,-3.5504,-3.5504,-3.5504,-3.5504,-3.5504,-3.5504,-3.5504,-3.5504,-3.5504,-3.5504,-3.5504,-3.5504,-3.5504,-3.5504,-3.5504,-3.5504,-3.5504,-3.5504,-3.5504,-3.5504,-3.5504,-3.5504,-3.5504,-3.5504,-3.5504,-3.5504,-3.5504,-3.5504,-3.504,-3.4397,-3.3634,-3.3036,-3.2422,-3.1601,-3.1351,-3.1219,-3.1029,-3.0925,-3.0866,-3.097,-3.1029,-3.1219,-3.1467,-3.1482,-3.1482,-3.1482,-3.1482,-3.1482,-3.1482,-3.1482,-3.1526,-3.1616,-3.2213,-3.2416,-3.222,-3.1561,-3.0833,-2.9998,-2.9869,-2.9792,-2.9792,-2.9792,-2.9792,-2.9792,-2.9792,-2.9792,-2.9792,-2.9792,-2.9792,-2.9792,-2.9792,-2.9792,-2.9792,-2.9792,-2.9792,-2.9792,-4.4587,-4.4587,-4.4587,-4.4587,-4.4587,-4.4587,-4.4587,-4.4587,-4.4587,-4.4587,-4.4587,-4.4587,-4.4587,-4.4587,-4.457,-4.4384,-4.4253,-4.3545,-4.2125,-4.1997,-4.1997,-4.1997,-4.1869,-4.1804,-4.1804,-4.0836,-3.9681,-3.8242,-3.7584,-3.7,-3.6477,-3.5804,-3.5504,-3.5504,-3.5504,-3.5504,-3.5504,-3.5504,-3.5504,-3.5504,-3.5504,-3.5504,-3.5504,-3.5504,-3.5504,-3.5504,-3.5504,-3.5504,-3.5504,-3.5504,-3.5504,-3.5504,-3.5504,-3.5504,-3.5504,-3.5504,-3.5504,-3.5504,-3.5504,-3.5504,-3.5504,-3.5504,-3.5504,-3.5504,-3.5504,-3.5504,-3.5504,-3.5504,-3.5429,-3.4966,-3.3724,-3.341,-3.2946,-3.1676,-3.1219,-3.1029,-3.1029,-3.097,-3.097,-3.1029,-3.1219,-3.1409,-3.1482,-3.1482,-3.1482,-3.1482,-3.1482,-3.1482,-3.1482,-3.1482,-3.1735,-3.2347,-3.2467,-3.2638,-3.2961,-3.1765,-3.1106,-3.097,-3.0216,-2.9792,-2.9792,-2.9792,-2.9792,-2.9792,-2.9792,-2.9792,-2.9792,-2.9792,-2.9792,-2.9792,-2.9792,-2.9792,-2.9792,-2.9792,-2.9792,-2.9792,-4.4587,-4.4587,-4.4587,-4.4587,-4.4587,-4.4587,-4.4587,-4.4587,-4.4587,-4.4587,-4.4587,-4.4587,-4.4587,-4.4587,-4.4587,-4.4587,-4.4587,-4.4253,-4.3469,-4.341,-4.341,-4.341,-4.297,-4.2458,-4.1997,-4.1609,-4.079,-3.9627,-3.8956,-3.8046,-3.6971,-3.6327,-3.5848,-3.5504,-3.5504,-3.5504,-3.5504,-3.5504,-3.5504,-3.5504,-3.5504,-3.5504,-3.5504,-3.5504,-3.5504,-3.5504,-3.5504,-3.5504,-3.5504,-3.5504,-3.5504,-3.5504,-3.5504,-3.5504,-3.5504,-3.5504,-3.5504,-3.5504,-3.5504,-3.5504,-3.5504,-3.5504,-3.5504,-3.5504,-3.5504,-3.5504,-3.5504,-3.5504,-3.5504,-3.51,-3.3739,-3.3499,-3.3066,-3.1617,-3.1278,-3.1161,-3.1161,-3.1161,-3.1219,-3.1278,-3.1409,-3.1482,-3.1482,-3.1482,-3.1482,-3.1482,-3.1482,-3.1482,-3.1482,-3.1869,-3.2198,-3.2497,-3.32,-3.3554,-3.3595,-3.2961,-3.2464,-3.196,-3.097,-3.0558,-3.0558,-2.9998,-2.9792,-2.9792,-2.9792,-2.9792,-2.9792,-2.9792,-2.9792,-2.9792,-2.9792,-2.9792,-2.9792,-2.9792,-2.9792,-2.9792,-4.4587,-4.4587,-4.4587,-4.4587,-4.4587,-4.4587,-4.4587,-4.4587,-4.4587,-4.4587,-4.4587,-4.4587,-4.4587,-4.4587,-4.4587,-4.4587,-4.4587,-4.4587,-4.4587,-4.4587,-4.4587,-4.4587,-4.3948,-4.3169,-4.2316,-4.2316,-4.1804,-4.069,-4.0008,-3.8944,-3.7404,-3.6776,-3.6133,-3.5504,-3.5504,-3.5504,-3.5504,-3.5504,-3.5504,-3.5504,-3.5504,-3.5504,-3.5504,-3.5504,-3.5504,-3.5504,-3.5504,-3.5504,-3.5504,-3.5504,-3.5504,-3.5504,-3.5504,-3.5504,-3.5504,-3.5504,-3.5619,-3.5733,-3.5569,-3.5504,-3.5504,-3.5504,-3.5504,-3.5504,-3.5504,-3.5504,-3.5504,-3.5504,-3.5504,-3.51,-3.3739,-3.3499,-3.3005,-3.1559,-3.1351,-3.1351,-3.1351,-3.1351,-3.1409,-3.1482,-3.1482,-3.1482,-3.1482,-3.1482,-3.1482,-3.1482,-3.1616,-3.1706,-3.1706,-3.2377,-3.2811,-3.2961,-3.3948,-3.4436,-3.438,-3.4095,-3.3671,-3.289,-3.196,-3.1389,-3.118,-3.0419,-2.9998,-2.9792,-2.9792,-2.9792,-2.9792,-2.9792,-2.9792,-2.9792,-2.9792,-2.9792,-2.9792,-2.9792,-2.9792,-2.9792,-4.4587,-4.4587,-4.4587,-4.4587,-4.4587,-4.4587,-4.4587,-4.4587,-4.4587,-4.4587,-4.4587,-4.4587,-4.4587,-4.4587,-4.4587,-4.4587,-4.4587,-4.4587,-4.4587,-4.4587,-4.4587,-4.4587,-4.4514,-4.4121,-4.3229,-4.3169,-4.2379,-4.069,-4.0008,-3.8944,-3.7404,-3.6776,-3.6133,-3.5504,-3.5504,-3.5504,-3.5504,-3.5504,-3.5504,-3.5504,-3.5504,-3.5504,-3.5504,-3.5504,-3.5504,-3.5504,-3.5504,-3.5504,-3.5504,-3.5504,-3.5504,-3.5504,-3.5504,-3.5504,-3.5504,-3.5504,-3.6006,-3.6399,-3.5668,-3.5504,-3.5504,-3.5504,-3.5504,-3.5504,-3.5504,-3.5504,-3.5504,-3.5504,-3.5504,-3.51,-3.3739,-3.3499,-3.3066,-3.1691,-3.1482,-3.1482,-3.1482,-3.1482,-3.1482,-3.1482,-3.1482,-3.1482,-3.1482,-3.1482,-3.1482,-3.1482,-3.2093,-3.2437,-3.2437,-3.3066,-3.3709,-3.4307,-3.4427,-3.4801,-3.5359,-3.4476,-3.3959,-3.3876,-3.2961,-3.2033,-3.118,-3.1106,-3.062,-2.9792,-2.9792,-2.9792,-2.9792,-2.9792,-2.9792,-2.9792,-2.9792,-2.9792,-2.9792,-2.9792,-2.9792,-2.9792,-4.4587,-4.4587,-4.4587,-4.4587,-4.4587,-4.4587,-4.4587,-4.4587,-4.4587,-4.4587,-4.4587,-4.4587,-4.4587,-4.4587,-4.4587,-4.4587,-4.4587,-4.4587,-4.4587,-4.4587,-4.4587,-4.4587,-4.4587,-4.4457,-4.4121,-4.4138,-4.3213,-4.1543,-4.1274,-4.008,-3.8003,-3.736,-3.6953,-3.6761,-3.6348,-3.6477,-3.6951,-3.6951,-3.6951,-3.6951,-3.6951,-3.6951,-3.689,-3.6337,-3.6165,-3.6117,-3.5668,-3.5504,-3.5504,-3.5504,-3.5504,-3.5504,-3.5504,-3.5831,-3.629,-3.6768,-3.7115,-3.7279,-3.7011,-3.6585,-3.6165,-3.6165,-3.5846,-3.5504,-3.5504,-3.5504,-3.5504,-3.5504,-3.5504,-3.522,-3.4277,-3.3769,-3.3139,-3.2184,-3.1692,-3.1467,-3.1409,-3.1467,-3.1616,-3.2093,-3.2138,-3.2302,-3.2706,-3.2751,-3.2751,-3.2751,-3.2976,-3.3125,-3.3125,-3.3739,-3.4412,-3.51,-3.5115,-3.5235,-3.5504,-3.5133,-3.492,-3.4905,-3.3959,-3.2961,-3.2033,-3.1462,-3.0696,-2.9792,-2.9792,-2.9792,-2.9792,-2.9792,-2.9792,-2.9792,-2.9792,-2.9792,-2.9792,-2.9792,-2.9792,-2.9792,-4.4587,-4.4587,-4.4587,-4.4587,-4.4587,-4.4587,-4.4587,-4.4587,-4.4587,-4.4587,-4.4587,-4.4587,-4.4587,-4.4587,-4.4587,-4.4587,-4.4587,-4.4587,-4.4587,-4.4587,-4.4587,-4.4587,-4.4587,-4.4587,-4.4587,-4.4587,-4.3873,-4.2395,-4.2395,-4.1309,-3.9213,-3.8754,-3.8361,-3.7966,-3.7557,-3.7468,-3.7822,-3.7822,-3.7822,-3.7822,-3.7822,-3.7822,-3.7748,-3.7219,-3.698,-3.6919,-3.6415,-3.6196,-3.6196,-3.6196,-3.6196,-3.6196,-3.6196,-3.6585,-3.71,-3.7632,-3.7978,-3.8149,-3.8149,-3.7716,-3.7188,-3.6722,-3.6228,-3.5846,-3.5846,-3.5846,-3.5846,-3.5846,-3.5846,-3.557,-3.467,-3.4098,-3.3589,-3.2825,-3.2393,-3.2094,-3.202,-3.2079,-3.2317,-3.2766,-3.2826,-3.3006,-3.3455,-3.3499,-3.3499,-3.3499,-3.3694,-3.3903,-3.4113,-3.4547,-3.5011,-3.5489,-3.5504,-3.5504,-3.5504,-3.5504,-3.5504,-3.5504,-3.4839,-3.3959,-3.3031,-3.2393,-3.1549,-3.0633,-3.0355,-3.0203,-3.0203,-2.9934,-2.9792,-2.9792,-2.9792,-2.9792,-2.9792,-2.9792,-2.9792,-2.9792,-4.4587,-4.4587,-4.4587,-4.4587,-4.4587,-4.4587,-4.4587,-4.4587,-4.4587,-4.4587,-4.4587,-4.4587,-4.4587,-4.4587,-4.4587,-4.4587,-4.4587,-4.4587,-4.4587,-4.4587,-4.4587,-4.4587,-4.4587,-4.4587,-4.4587,-4.4587,-4.4196,-4.3306,-4.3306,-4.2488,-4.102,-4.1004,-4.0251,-3.8905,-3.8889,-3.852,-3.7822,-3.7822,-3.7822,-3.7822,-3.7822,-3.7822,-3.7822,-3.7806,-3.7822,-3.7822,-3.7822,-3.7822,-3.7822,-3.7822,-3.7822,-3.7822,-3.7822,-3.7822,-3.7806,-3.7822,-3.8358,-3.8908,-3.8908,-3.8908,-3.8564,-3.7008,-3.66,-3.6615,-3.6615,-3.66,-3.6615,-3.6615,-3.6615,-3.6168,-3.4781,-3.4487,-3.4262,-3.3604,-3.3499,-3.3499,-3.3499,-3.3499,-3.3499,-3.3499,-3.3499,-3.3499,-3.3514,-3.3514,-3.3514,-3.3514,-3.4113,-3.4786,-3.5474,-3.5504,-3.5504,-3.5504,-3.5504,-3.5504,-3.5504,-3.5504,-3.5504,-3.5504,-3.5504,-3.4986,-3.4027,-3.4027,-3.3518,-3.2522,-3.1609,-3.118,-3.1106,-3.0216,-2.9792,-2.9792,-2.9792,-2.9792,-2.9792,-2.9792,-2.9792,-2.9792,-4.4587,-4.4587,-4.4587,-4.4587,-4.4587,-4.4587,-4.4587,-4.4587,-4.4587,-4.4587,-4.4587,-4.4587,-4.4587,-4.4587,-4.4587,-4.4587,-4.4587,-4.4587,-4.4587,-4.4587,-4.4587,-4.4587,-4.4587,-4.4587,-4.4587,-4.4587,-4.4196,-4.3306,-4.3306,-4.2733,-4.1677,-4.1244,-4.0768,-4.0393,-3.9944,-3.9616,-3.9385,-3.9385,-3.9385,-3.9385,-3.9385,-3.9385,-3.9332,-3.8816,-3.858,-3.8525,-3.7978,-3.7822,-3.7822,-3.7822,-3.7822,-3.7863,-3.8414,-3.858,-3.869,-3.9226,-3.9558,-3.9731,-3.9731,-3.9731,-3.9489,-3.8453,-3.7831,-3.7456,-3.7456,-3.704,-3.6615,-3.6615,-3.6165,-3.5897,-3.5952,-3.5198,-3.457,-3.4941,-3.4122,-3.3499,-3.3499,-3.3499,-3.3664,-3.4128,-3.4188,-3.4382,-3.4861,-3.4906,-3.4906,-3.4906,-3.5085,-3.5295,-3.5489,-3.5504,-3.5504,-3.5504,-3.5504,-3.5504,-3.5504,-3.5504,-3.5504,-3.5504,-3.5504,-3.4986,-3.4027,-3.4027,-3.3518,-3.2522,-3.1609,-3.118,-3.1106,-3.0216,-2.9792,-2.9792,-2.9792,-2.9792,-2.9792,-2.9792,-2.9792,-2.9792,-4.4587,-4.4587,-4.4587,-4.4587,-4.4587,-4.4587,-4.4587,-4.4587,-4.4587,-4.4587,-4.4587,-4.4587,-4.4587,-4.4587,-4.4587,-4.4587,-4.4587,-4.4587,-4.4587,-4.4587,-4.4587,-4.4587,-4.4587,-4.4587,-4.4587,-4.4587,-4.4327,-4.3814,-4.3814,-4.3545,-4.3015,-4.2632,-4.2235,-4.191,-4.125,-4.0802,-4.051,-4.0206,-4.007,-4.007,-4.007,-4.007,-4.007,-3.9558,-3.9368,-3.9315,-3.8887,-3.8723,-3.8723,-3.8723,-3.8723,-3.8778,-3.9209,-3.9368,-3.9489,-3.9952,-4.007,-4.007,-4.007,-4.007,-3.9952,-3.9489,-3.8816,-3.8262,-3.8262,-3.7831,-3.7424,-3.7144,-3.6919,-3.6798,-3.6615,-3.6168,-3.5845,-3.5995,-3.5263,-3.4606,-3.434,-3.4292,-3.4442,-3.4846,-3.4891,-3.504,-3.5459,-3.5504,-3.5504,-3.5504,-3.5504,-3.5504,-3.5504,-3.5504,-3.5504,-3.5504,-3.5504,-3.5504,-3.5504,-3.5504,-3.5504,-3.5504,-3.5504,-3.5213,-3.461,-3.461,-3.4259,-3.3685,-3.2321,-3.1742,-3.1669,-3.0355,-2.9792,-2.9792,-2.9792,-2.9792,-2.9792,-2.9792,-2.9792,-2.9792,-4.4587,-4.4587,-4.4587,-4.4587,-4.4587,-4.4587,-4.4587,-4.4587,-4.4587,-4.4587,-4.4587,-4.4587,-4.4587,-4.4587,-4.4587,-4.4587,-4.4587,-4.4587,-4.4587,-4.4587,-4.4587,-4.4587,-4.4587,-4.4587,-4.4587,-4.4587,-4.4587,-4.4587,-4.4587,-4.4587,-4.4587,-4.4587,-4.4164,-4.3386,-4.2692,-4.1948,-4.117,-4.046,-4.0138,-4.007,-4.007,-4.007,-4.007,-4.007,-4.007,-4.007,-4.007,-4.007,-4.007,-4.007,-4.007,-4.007,-4.007,-4.007,-4.007,-4.007,-4.007,-4.007,-4.007,-4.007,-4.007,-4.007,-3.9542,-3.9032,-3.9032,-3.8962,-3.869,-3.8035,-3.8358,-3.8398,-3.7068,-3.7322,-3.7573,-3.6904,-3.6661,-3.6399,-3.5668,-3.5569,-3.5504,-3.5504,-3.5504,-3.5504,-3.5504,-3.5504,-3.5504,-3.5504,-3.5504,-3.5504,-3.5504,-3.5504,-3.5504,-3.5504,-3.5504,-3.5504,-3.5504,-3.5504,-3.5504,-3.5504,-3.5504,-3.5504,-3.5504,-3.5504,-3.5504,-3.5424,-3.3547,-3.2749,-3.2607,-3.0784,-3.0075,-3.0075,-2.9934,-2.9934,-2.9934,-2.9869,-2.9792,-2.9792,-4.4587,-4.4587,-4.4587,-4.4587,-4.4587,-4.4587,-4.4587,-4.4587,-4.4587,-4.4587,-4.4587,-4.4587,-4.4587,-4.4587,-4.4587,-4.4587,-4.4587,-4.4587,-4.4587,-4.4587,-4.4587,-4.4587,-4.4587,-4.4587,-4.4587,-4.4587,-4.4587,-4.4587,-4.4587,-4.4587,-4.4587,-4.4587,-4.4164,-4.3403,-4.325,-4.2439,-4.1187,-4.1035,-4.0629,-4.007,-4.007,-4.007,-4.007,-4.007,-4.007,-4.007,-4.007,-4.007,-4.007,-4.007,-4.007,-4.007,-4.007,-4.007,-4.007,-4.007,-4.007,-4.007,-4.007,-4.007,-4.007,-4.007,-3.9969,-3.9833,-3.9833,-3.9368,-3.8854,-3.869,-3.8302,-3.8076,-3.8342,-3.8076,-3.7921,-3.8342,-3.7408,-3.6554,-3.6384,-3.5831,-3.5504,-3.5504,-3.5504,-3.5504,-3.5504,-3.5504,-3.5504,-3.5504,-3.5504,-3.5504,-3.5504,-3.5504,-3.5504,-3.5504,-3.5504,-3.5504,-3.5504,-3.5504,-3.5504,-3.5504,-3.5504,-3.5504,-3.5504,-3.5504,-3.5504,-3.5424,-3.4245,-3.3671,-3.3602,-3.2464,-3.1974,-3.1901,-3.118,-3.0908,-3.0833,-3.0075,-2.9792,-2.9792,-4.4587,-4.4587,-4.4587,-4.4587,-4.4587,-4.4587,-4.4587,-4.4587,-4.4587,-4.4587,-4.4587,-4.4587,-4.4587,-4.4587,-4.4587,-4.4587,-4.4587,-4.4587,-4.4587,-4.4587,-4.4587,-4.4587,-4.4587,-4.4587,-4.4587,-4.4587,-4.4587,-4.4587,-4.4587,-4.4587,-4.4587,-4.4587,-4.4367,-4.3961,-4.3589,-4.298,-4.2219,-4.1508,-4.0984,-4.0578,-4.0223,-4.007,-4.007,-4.007,-4.007,-4.007,-4.007,-4.007,-4.007,-4.007,-4.007,-4.007,-4.007,-4.007,-4.007,-4.007,-4.007,-4.007,-4.007,-4.007,-4.007,-4.007,-4.007,-4.007,-4.007,-3.9782,-3.9368,-3.8962,-3.8924,-3.8887,-3.8908,-3.8924,-3.8887,-3.8908,-3.8213,-3.7584,-3.7203,-3.6829,-3.6415,-3.6054,-3.5991,-3.5894,-3.5504,-3.5504,-3.5504,-3.5504,-3.5504,-3.5504,-3.5504,-3.5504,-3.5504,-3.5504,-3.5504,-3.5504,-3.5504,-3.5504,-3.5504,-3.5504,-3.5504,-3.5504,-3.5504,-3.5504,-3.5504,-3.5424,-3.4461,-3.4027,-3.3945,-3.2961,-3.2593,-3.2536,-3.1609,-3.118,-3.1106,-3.0139,-2.9792,-2.9792,-4.4587,-4.4587,-4.4587,-4.4587,-4.4587,-4.4587,-4.4587,-4.4587,-4.4587,-4.4587,-4.4587,-4.4587,-4.4587,-4.4587,-4.4587,-4.4587,-4.4587,-4.4587,-4.4587,-4.4587,-4.4587,-4.4587,-4.4587,-4.4587,-4.4587,-4.4587,-4.4587,-4.4587,-4.4587,-4.4587,-4.4587,-4.4587,-4.4587,-4.4553,-4.391,-4.3538,-4.3335,-4.2117,-4.1441,-4.1153,-4.0527,-4.0189,-4.007,-4.007,-4.007,-4.007,-4.007,-4.007,-4.007,-4.007,-4.007,-4.007,-4.007,-4.007,-4.007,-4.007,-4.007,-4.007,-4.007,-4.007,-4.007,-4.007,-4.007,-4.007,-4.007,-4.007,-3.9901,-3.9246,-3.961,-3.9901,-3.9209,-3.9662,-3.9901,-3.9193,-3.8962,-3.869,-3.8092,-3.7863,-3.7573,-3.6904,-3.6661,-3.6384,-3.5733,-3.5554,-3.5504,-3.5504,-3.5504,-3.5504,-3.5504,-3.5504,-3.5504,-3.5504,-3.5504,-3.5504,-3.5504,-3.5504,-3.5504,-3.5504,-3.5504,-3.5504,-3.5504,-3.5504,-3.5504,-3.5424,-3.461,-3.4245,-3.4177,-3.3394,-3.3101,-3.3031,-3.2033,-3.1669,-3.1536,-3.0419,-2.9934,-2.9792,-4.4587,-4.4587,-4.4587,-4.4587,-4.4587,-4.4587,-4.4587,-4.4587,-4.4587,-4.4587,-4.4587,-4.4587,-4.4587,-4.4587,-4.4587,-4.4587,-4.4587,-4.4587,-4.4587,-4.4587,-4.4587,-4.4587,-4.4587,-4.4587,-4.4587,-4.4587,-4.4587,-4.4587,-4.4587,-4.4587,-4.4587,-4.4587,-4.4587,-4.4587,-4.4468,-4.4045,-4.3403,-4.32,-4.2388,-4.1187,-4.1085,-4.0663,-4.007,-4.007,-4.007,-4.007,-4.007,-4.007,-4.007,-4.007,-4.007,-4.007,-4.007,-4.007,-4.007,-4.007,-4.007,-4.007,-4.007,-4.007,-4.007,-4.007,-4.007,-4.007,-4.007,-4.007,-4.007,-3.9952,-4.002,-4.007,-3.9952,-4.002,-4.007,-3.9952,-3.9368,-3.8854,-3.8745,-3.8189,-3.7748,-3.7632,-3.7024,-3.6554,-3.643,-3.5894,-3.5504,-3.5504,-3.5504,-3.5504,-3.5504,-3.5504,-3.5504,-3.5504,-3.5504,-3.5504,-3.5504,-3.5504,-3.5504,-3.5504,-3.5504,-3.5504,-3.5504,-3.5504,-3.5504,-3.5504,-3.5359,-3.5294,-3.5279,-3.5148,-3.5133,-3.5001,-3.4027,-3.3602,-3.338,-3.1683,-3.0482,-2.9792,-4.4587,-4.4587,-4.4587,-4.4587,-4.4587,-4.4587,-4.4587,-4.4587,-4.4587,-4.4587,-4.4587,-4.4587,-4.4587,-4.4587,-4.4587,-4.4587,-4.4587,-4.4587,-4.4587,-4.4587,-4.4587,-4.4587,-4.4587,-4.4587,-4.4587,-4.4587,-4.4587,-4.4587,-4.4587,-4.4587,-4.4587,-4.4587,-4.4587,-4.4587,-4.4587,-4.4384,-4.4045,-4.3606,-4.2794,-4.1779,-4.1373,-4.0747,-4.007,-4.007,-4.007,-4.007,-4.007,-4.007,-4.007,-4.007,-4.007,-4.007,-4.007,-4.007,-4.007,-4.007,-4.007,-4.007,-4.007,-4.007,-4.007,-4.007,-4.007,-4.007,-4.007,-4.007,-4.007,-4.007,-4.007,-4.007,-4.007,-4.007,-4.007,-4.007,-3.9782,-3.9558,-3.9558,-3.9279,-3.8941,-3.8469,-3.7365,-3.6615,-3.6615,-3.5943,-3.5504,-3.5504,-3.5504,-3.5504,-3.5504,-3.5504,-3.5504,-3.5504,-3.5504,-3.5504,-3.5504,-3.5504,-3.5504,-3.5504,-3.5504,-3.5504,-3.5504,-3.5504,-3.5504,-3.5504,-3.5504,-3.5504,-3.5504,-3.5504,-3.5504,-3.5424,-3.4394,-3.3671,-3.3101,-3.2321,-3.1683,-3.1341]},{"header":{"parameterUnit":"m.s-1","parameterCategory":1,"la1":30.6,"la2":28.766,"lo1":-90.7593,"lo2":-88.6598,"dy":0.0162,"dx":0.0183,"nx":116,"ny":114,"refTime":"2023-07-10T12:00:00:Z","depth":0,"parameterNumber":3,"parameterNumberName":"V-component_of_WINDS"},"data":[0.0,0.0,0.0,0.0,0.0,0.0,0.0,0.0,0.0,0.0,0.0,0.0,0.0,0.0,0.0,0.0,0.0,0.0,0.0,0.0,0.0,0.0,0.0,0.0,0.0,0.0,0.0,0.0,0.0,0.0,0.0,0.0,0.0,0.0,0.0,0.0,0.0,0.0,0.0,0.0,0.0,0.0,0.0,0.0,0.0,0.0,0.0,0.0,0.0,0.0,0.0,0.0,0.0,0.0,0.0,0.0,0.0,0.0,0.0,0.0,0.0,0.0,0.0,0.0,0.0,0.0,0.0,0.0,0.0,0.0,0.0,0.0,0.0,0.0,0.0,0.0,0.0,0.0,0.0,0.0,0.0,0.0,0.0,0.0,0.0,0.0,0.0,0.0,0.0,0.0,0.0,0.0,0.0,0.0,0.0,0.0,0.0,0.0,0.0,0.0,0.0,0.0,0.0,0.0,0.0,0.0,0.0,0.0,0.0,0.0,0.0,0.0,0.0,0.0,0.0,0.0,0.0,0.0,0.0,0.0,0.0,0.0,0.0,0.0,0.0,0.0,0.0,0.0,0.0,0.0,0.0,0.0,0.0,0.0,0.0,0.0,0.0,0.0,0.0,0.0,0.0,0.0,0.0,0.0,0.0,0.0,0.0,0.0,0.0,0.0,0.0,0.0,0.0,0.0,0.0,0.0,0.0,0.0,0.0,0.0,0.0,0.0,0.0,0.0,0.0,0.0,0.0,0.0,0.0,0.0,0.0,0.0,0.0,0.0,0.0,0.0,0.0,0.0,0.0,0.0,0.0,0.0,0.0,0.0,0.0,0.0,0.0,0.0,0.0,0.0,0.0,0.0,0.0,0.0,0.0,0.0,0.0,0.0,0.0,0.0,0.0,0.0,0.0,0.0,0.0,0.0,0.0,0.0,0.0,0.0,0.0,0.0,0.0,0.0,0.0,0.0,0.0,0.0,0.0,0.0,0.0,0.0,0.0,0.0,0.0,0.0,0.0,0.0,0.0,0.0,0.0,0.0,0.0,0.0,0.0,0.0,0.0,0.0,0.0,0.0,0.0,0.0,0.0,0.0,0.0,0.0,0.0,0.0,0.0,0.0,0.0,0.0,0.0,0.0,0.0,0.0,0.0,0.0,0.0,0.0,0.0,0.0,0.0,0.0,0.0,0.0,0.0,0.0,0.0,0.0,0.0,0.0,0.0,0.0,0.0,0.0,0.0,0.0,0.0,0.0,0.0,0.0,0.0,0.0,0.0,0.0,0.0,0.0,0.0,0.0,0.0,0.0,0.0,0.0,0.0,0.0,0.0,0.0,0.0,0.0,0.0,0.0,0.0,0.0,0.0,0.0,0.0,0.0,0.0,0.0,0.0,0.0,0.0,0.0,0.0,0.0,0.0,0.0,0.0,0.0,0.0,0.0,0.0,0.0,0.0,0.0,0.0,0.0,0.0,0.0,0.0,0.0,0.0,0.0,0.0,0.0,0.0,0.0,0.0,0.0,0.0,0.0,0.0,0.0,0.0,0.0,0.0,0.0,0.0,0.0,0.0,0.0,0.0,0.0,0.0,0.0,0.0,0.0,0.0,0.0,0.0,0.0,0.0,0.0,0.0,0.0,0.0,0.0,0.0,0.0,0.0,0.0,0.0,0.0,0.0,0.0,0.0,0.0,0.0,0.0,0.0,0.0,0.0,0.0,0.0,0.0,0.0,0.0,0.0,0.0,0.0,0.0,0.0,0.0,0.0,0.0,0.0,0.0,0.0,0.0,0.0,0.0,0.0,0.0,0.0,0.0,0.0,0.0,0.0,0.0,0.0,0.0,0.0,0.0,0.0,0.0,0.0,0.0,0.0,0.0,0.0,0.0,0.0,0.0,0.0,0.0,0.0,0.0,0.0,0.0,0.0,0.0,0.0,0.0,0.0,0.0,0.0,0.0,0.0,0.0,0.0,0.0,0.0,0.0,0.0,0.0,0.0,0.0,0.0,0.0,0.0,0.0,0.0,0.0,0.0,0.0,0.0,0.0,0.0,0.0,0.0,0.0,0.0,0.0,0.0,0.0,0.0,0.0,0.0,0.0,0.0,0.0,0.0,0.0,0.0,0.0,0.0,0.0,0.0,0.0,0.0,0.0,0.0,0.0,0.0,0.0,0.0,0.0,0.0,0.0,0.0,0.0,0.0,0.0,0.0,0.0,0.0,0.0,0.0,0.0,0.0,0.0,0.0,0.0,0.0,0.0,0.0,0.0,0.0,0.0,0.0,0.0,0.0,0.0,0.0,0.0,0.0,0.0,0.0,0.0,0.0,0.0,0.0,0.0,0.0,0.0,0.0,0.0,0.0,0.0,0.0,0.0,0.0,0.0,0.0,0.0,0.0,0.0,0.0,0.0,0.0,0.0,0.0,0.0,0.0,0.0,0.0,0.0,0.0,0.0,0.0,0.0,0.0,0.0,0.0,0.0,0.0,0.0,0.0,0.0,0.0,0.0,0.0,0.0,0.0,0.0,0.0,0.0,0.0,0.0,0.0,0.0,0.0,0.0,0.0,0.0,0.0,0.0,0.0,0.0,0.0,0.0,0.0,0.0,0.0,0.0,0.0,0.0,0.0,0.0,0.0,0.0,0.0,0.0,0.0,0.0,0.0,0.0,0.0,0.0,0.0,0.0,0.0,0.0,0.0,0.0,0.0,0.0,0.0,0.0,0.0,0.0,0.0,0.0,0.0,0.0,0.0,0.0,0.0,0.0,0.0,0.0,0.0,0.0,0.0,0.0,0.0,0.0,0.0,0.0,0.0,0.0,0.0,0.0,0.0,0.0,0.0,0.0,0.0,0.0,0.0,0.0,0.0,0.0,0.0,0.0,0.0,0.0,0.0,0.0,0.0,0.0,0.0,0.0,0.0,0.0,0.0,0.0,0.0,0.0,0.0,0.0,0.0,0.0,0.0,0.0,0.0,0.0,0.0,0.0,0.0,0.0,0.0,0.0,0.0,0.0,0.0,0.0,0.0,0.0,0.0,0.0,0.0,0.0,0.0,0.0,0.0,0.0,0.0,0.0,0.0,0.0,0.0,0.0,0.0,0.0,0.0,0.0,0.0,0.0,0.0,0.0,0.0,0.0,0.0,0.0,0.0,0.0,0.0,0.0,0.0,0.0,0.0,0.0,0.0,0.0,0.0,0.0,0.0,0.0,0.0,0.0,0.0,0.0,0.0,0.0,0.0,0.0,0.0,0.0,0.0,0.0,0.0,0.0,0.0,0.0,0.0,0.0,0.0,0.0,0.0,0.0,0.0,0.0,0.0,0.0,0.0,0.0,0.0,0.0,0.0,0.0,0.0,0.0,0.0,0.0,0.0,0.0,0.0,0.0,0.0,0.0,0.0,0.0,0.0,0.0,0.0,0.0,0.0,0.0,0.0,0.0,0.0,0.0,0.0,0.0,0.0,0.0,0.0,0.0,0.0,0.0,0.0,0.0,0.0,0.0,0.0,0.0,0.0,0.0,0.0,0.0,0.0,0.0,0.0,0.0,0.0,0.0,0.0,0.0,0.0,0.0,0.0,0.0,0.0,0.0,0.0,0.0,0.0,0.0,0.0,0.0,0.0,0.0,0.0,0.0,0.0,0.0,0.0,0.0,0.0,0.0,0.0,0.0,0.0,0.0,0.0,0.0,0.0,0.0,0.0,0.0,0.0,0.0,0.0,0.0,0.0,0.0,0.0,0.0,0.0,0.0,0.0,0.0,0.0,0.0,0.0,0.0,0.0,0.0,0.0,0.0,0.0,0.0,0.0,0.0,0.0,0.0,0.0,0.0,0.0,0.0,0.0,0.0,0.0,0.0,0.0,0.0,0.0,0.0,0.0,0.0,0.0,0.0,0.0,0.0,0.0,0.0,0.0,0.0,0.0,0.0,0.0,0.0,0.0,0.0,0.0,0.0,0.0,0.0,0.0,0.0,0.0,0.0,0.0,0.0,0.0,0.0,0.0,0.0,0.0,0.0,0.0,0.0,0.0,0.0,0.0,0.0,0.0,0.0,0.0,0.0,0.0,0.0,0.0,0.0,0.0,0.0,0.0,0.0,0.0,0.0,0.0,0.0,0.0,0.0,0.0,0.0,0.0,0.0,0.0,0.0,0.0,0.0,0.0,0.0,0.0,0.0,0.0,0.0,0.0,0.0,0.0,0.0,0.0,0.0,0.0,0.0,0.0,0.0,0.0,0.0,0.0,0.0,0.0,0.0,0.0,0.0,0.0,0.0,0.0,0.0,0.0,0.0,0.0,0.0,0.0,0.0,0.0,0.0,0.0,0.0,0.0,0.0,0.0,0.0,0.0,0.0,0.0,0.0,0.0,0.0,0.0,0.0,0.0,0.0,0.0,0.0,0.0,0.0,0.0,0.0,0.0,0.0,0.0,0.0,0.0,0.0,0.0,0.0,0.0,0.0,0.0,0.0,0.0,0.0,0.0,0.0,0.0,0.0,0.0,0.0,0.0,0.0,0.0,0.0,0.0,0.0,0.0,0.0,0.0,0.0,0.0,0.0,0.0,0.0,0.0,0.0,0.0,0.0,0.0,0.0,0.0,0.0,0.0,0.0,0.0,0.0,0.0,0.0,0.0,0.0,0.0,0.0,0.0,0.0,0.0,0.0,0.0,0.0,0.0,0.0,0.0,0.0,0.0,0.0,0.0,0.0,0.0,0.0,0.0,0.0,0.0,0.0,0.0,0.0,0.0,0.0,0.0,0.0,0.0,0.0,0.0,0.0,0.0,0.0,0.0,0.0,0.0,0.0,0.0,0.0,0.0,0.0,0.0,0.0,0.0,0.0,0.0,0.0,0.0,0.0,0.0,0.0,0.0,0.0,0.0,0.0,0.0,0.0,0.0,0.0,0.0,0.0,0.0,0.0,0.0,0.0,0.0,0.0,0.0,0.0,0.0,0.0,0.0,0.0,0.0,0.0,0.0,0.0,0.0,0.0,0.0,0.0,0.0,0.0,0.0,0.0,0.0,0.0,0.0,0.0,0.0,0.0,0.0,0.0,0.0,0.0,0.0,0.0,0.0,0.0,0.0,0.0,0.0,0.0,0.0,0.0,0.0,0.0,0.0,0.0,0.0,0.0,0.0,0.0,0.0,0.0,0.0,0.0,0.0,0.0,0.0,0.0,0.0,0.0,0.0,0.0,0.0,0.0,0.0,0.0,0.0,0.0,0.0,0.0,0.0,0.0,0.0,0.0,0.0,0.0,0.0,0.0,0.0,0.0,0.0,0.0,0.0,0.0,0.0,0.0,0.0,0.0,0.0,0.0,0.0,0.0,0.0,0.0,0.0,0.0,0.0,0.0,0.0,0.0,0.0,0.0,0.0,0.0,0.0,0.0,0.0,0.0,0.0,0.0,0.0,0.0,0.0,0.0,0.0,0.0,0.0,0.0,0.0,0.0,0.0,0.0,0.0,0.0,0.0,0.0,0.0,0.0,0.0,0.0,0.0,0.0,0.0,0.0,0.0,0.0,0.0,0.0,0.0,0.0,0.0,0.0,0.0,0.0,0.0,0.0,0.0,0.0,0.0,0.0,0.0,0.0,0.0,0.0,0.0,0.0,0.0,0.0,0.0,0.0,0.0,0.0,0.0,0.0,0.0,0.0,0.0,0.0,0.0,0.0,0.0,0.0,0.0,0.0,0.0,0.0,0.0,0.0,0.0,0.0,0.0,0.0,0.0,0.0,0.0,0.0,0.0,0.0,0.0,0.0,0.0,0.0,0.0,0.0,0.0,0.0,0.0,0.0,0.0,0.0,0.0,0.0,0.0,0.0,0.0,0.0,0.0,0.0,0.0,0.0,0.0,0.0,0.0,0.0,0.0,0.0,0.0,0.0,0.0,0.0,0.0,0.0,0.0,0.0,0.0,0.0,0.0,0.0,0.0,0.0,0.0,0.0,0.0,0.0,0.0,0.0,0.0,0.0,0.0,0.0,0.0,0.0,0.0,0.0,0.0,0.0,0.0,0.0,0.0,0.0,0.0,0.0,0.0,0.0,0.0,0.0,0.0,0.0,0.0,0.0,0.0,0.0,0.0,0.0,0.0,0.0,0.0,0.0,0.0,0.0,0.0,0.0,0.0,0.0,-3.2585,-3.2128,0.0,0.0,0.0,0.0,0.0,0.0,0.0,0.0,0.0,0.0,0.0,0.0,0.0,0.0,0.0,0.0,0.0,0.0,0.0,0.0,0.0,0.0,0.0,0.0,0.0,0.0,0.0,0.0,0.0,0.0,0.0,0.0,0.0,0.0,0.0,0.0,0.0,0.0,0.0,0.0,0.0,0.0,0.0,0.0,0.0,0.0,0.0,0.0,0.0,0.0,0.0,0.0,0.0,0.0,0.0,0.0,0.0,0.0,0.0,0.0,0.0,0.0,0.0,0.0,0.0,0.0,0.0,0.0,0.0,0.0,0.0,0.0,0.0,0.0,0.0,0.0,0.0,0.0,0.0,0.0,0.0,0.0,0.0,0.0,0.0,0.0,0.0,0.0,0.0,0.0,0.0,0.0,0.0,0.0,0.0,0.0,0.0,0.0,0.0,0.0,0.0,0.0,0.0,0.0,0.0,0.0,0.0,0.0,0.0,0.0,0.0,0.0,0.0,0.0,-3.378,-3.2975,0.0,0.0,0.0,0.0,0.0,0.0,0.0,0.0,0.0,0.0,0.0,0.0,0.0,0.0,0.0,0.0,0.0,0.0,0.0,0.0,0.0,0.0,0.0,0.0,0.0,0.0,0.0,0.0,0.0,0.0,0.0,0.0,0.0,0.0,0.0,0.0,0.0,0.0,0.0,0.0,0.0,0.0,0.0,0.0,0.0,0.0,0.0,0.0,0.0,0.0,0.0,0.0,0.0,0.0,0.0,0.0,0.0,0.0,0.0,0.0,0.0,0.0,0.0,0.0,0.0,0.0,0.0,0.0,0.0,0.0,0.0,0.0,0.0,0.0,0.0,0.0,0.0,0.0,0.0,0.0,0.0,0.0,0.0,0.0,0.0,0.0,0.0,0.0,0.0,0.0,0.0,0.0,0.0,0.0,0.0,0.0,0.0,0.0,0.0,0.0,0.0,0.0,0.0,0.0,0.0,0.0,0.0,0.0,-3.5099,-3.5876,-3.7187,-3.6479,-3.6408,-3.6814,-3.5646,-3.4531,-3.3543,-3.3829,0.0,0.0,0.0,0.0,0.0,0.0,0.0,0.0,0.0,0.0,0.0,0.0,0.0,0.0,0.0,0.0,0.0,0.0,0.0,0.0,0.0,0.0,0.0,0.0,0.0,0.0,0.0,0.0,0.0,0.0,0.0,0.0,0.0,0.0,0.0,0.0,0.0,0.0,0.0,0.0,0.0,0.0,0.0,0.0,0.0,0.0,0.0,0.0,0.0,0.0,0.0,0.0,0.0,0.0,0.0,0.0,0.0,0.0,0.0,0.0,0.0,0.0,0.0,0.0,0.0,0.0,0.0,0.0,0.0,0.0,0.0,0.0,0.0,0.0,0.0,0.0,0.0,0.0,0.0,0.0,0.0,0.0,0.0,0.0,0.0,0.0,-3.1207,-3.1496,0.0,0.0,0.0,0.0,0.0,0.0,0.0,0.0,0.0,0.0,0.0,0.0,0.0,-3.5562,-3.6245,-3.6875,-3.7217,-3.7275,-3.7856,-3.8247,-3.8449,-3.8339,-3.8327,-3.8389,-3.8198,0.0,-3.6017,-3.607,0.0,0.0,0.0,0.0,0.0,0.0,0.0,0.0,0.0,0.0,0.0,0.0,0.0,0.0,0.0,0.0,0.0,0.0,0.0,0.0,0.0,0.0,0.0,0.0,0.0,0.0,0.0,0.0,0.0,0.0,0.0,0.0,0.0,0.0,0.0,0.0,0.0,0.0,0.0,0.0,0.0,0.0,0.0,0.0,0.0,0.0,0.0,0.0,0.0,0.0,0.0,0.0,0.0,0.0,0.0,0.0,0.0,0.0,0.0,0.0,0.0,0.0,0.0,0.0,0.0,0.0,0.0,0.0,0.0,0.0,0.0,0.0,0.0,0.0,0.0,0.0,0.0,0.0,0.0,0.0,0.0,0.0,0.0,0.0,0.0,-3.1182,-3.1593,-3.2145,-3.2286,-3.2701,0.0,0.0,0.0,0.0,0.0,0.0,0.0,0.0,0.0,-3.6254,-3.6626,-3.7169,-3.7905,-3.8615,-3.898,-3.8951,-3.9675,-4.0304,-4.0726,-4.0726,-4.0726,-4.0726,-4.0726,-4.0079,-3.9024,-3.8237,-3.7914,-3.7912,0.0,0.0,0.0,0.0,-3.6333,-3.6567,0.0,0.0,0.0,0.0,0.0,0.0,0.0,0.0,0.0,0.0,0.0,0.0,0.0,0.0,0.0,-2.1314,0.0,0.0,0.0,0.0,0.0,0.0,0.0,0.0,0.0,0.0,0.0,0.0,0.0,0.0,0.0,0.0,0.0,0.0,0.0,0.0,0.0,0.0,0.0,0.0,0.0,0.0,0.0,0.0,0.0,0.0,0.0,0.0,0.0,0.0,0.0,0.0,0.0,0.0,0.0,0.0,0.0,0.0,0.0,0.0,0.0,0.0,0.0,0.0,0.0,0.0,0.0,0.0,0.0,0.0,0.0,0.0,0.0,0.0,0.0,0.0,0.0,-3.1905,-3.2228,-3.286,-3.3011,-3.3375,0.0,0.0,0.0,0.0,0.0,0.0,-3.6155,-3.6945,-3.766,-3.8227,-3.8264,-3.8693,-3.9606,-4.0414,-4.091,-4.113,-4.1937,-4.2653,-4.3222,-4.3222,-4.3222,-4.3222,-4.3222,-4.2892,-4.2176,-4.0296,-3.949,-3.9409,-3.8748,-3.8599,-3.8665,-3.7711,-3.7507,-3.7626,0.0,0.0,0.0,0.0,0.0,0.0,0.0,0.0,0.0,0.0,0.0,0.0,0.0,0.0,-2.0691,-2.2876,-2.3109,-2.4072,0.0,0.0,0.0,0.0,0.0,0.0,0.0,0.0,0.0,0.0,0.0,0.0,0.0,0.0,0.0,0.0,0.0,0.0,0.0,0.0,0.0,0.0,0.0,0.0,0.0,0.0,0.0,0.0,0.0,0.0,0.0,0.0,0.0,0.0,0.0,0.0,0.0,0.0,0.0,0.0,0.0,0.0,0.0,0.0,0.0,0.0,0.0,0.0,0.0,0.0,0.0,0.0,0.0,0.0,0.0,0.0,0.0,0.0,0.0,0.0,0.0,-3.3813,-3.3943,0.0,0.0,0.0,0.0,-3.6615,-3.7314,-3.7673,-3.7599,-3.8349,-3.9113,-3.9766,-3.9803,-4.0524,-4.2103,-4.291,-4.3699,-4.447,-4.5278,-4.5681,-4.5718,-4.5718,-4.5718,-4.5718,-4.5718,-4.57,-4.5424,-4.2286,-4.0983,-4.091,-4.0115,-4.0262,-4.0868,-4.0042,-4.0194,-4.0763,0.0,0.0,0.0,0.0,0.0,0.0,0.0,0.0,0.0,0.0,0.0,0.0,0.0,-2.005,-2.0798,-2.2132,-2.2781,-2.3874,-2.5607,0.0,0.0,0.0,0.0,0.0,0.0,0.0,0.0,0.0,0.0,0.0,0.0,0.0,0.0,0.0,0.0,0.0,0.0,0.0,0.0,0.0,0.0,0.0,0.0,0.0,0.0,0.0,0.0,0.0,0.0,0.0,0.0,0.0,0.0,0.0,0.0,0.0,0.0,0.0,0.0,0.0,0.0,0.0,0.0,0.0,0.0,0.0,0.0,0.0,0.0,0.0,0.0,0.0,0.0,0.0,0.0,0.0,0.0,0.0,0.0,-3.4605,-3.5165,0.0,-3.675,-3.6823,-3.7156,-3.8025,-3.8752,-3.9153,-3.9123,-4.0375,-4.1415,-4.2176,-4.2727,-4.3516,-4.4599,-4.4892,-4.5186,-4.548,-4.5755,-4.6177,-4.6673,-4.6673,-4.6673,-4.6673,-4.6673,-4.6379,-4.581,-4.4654,-4.4195,-4.4103,-4.3296,-4.2855,-4.2543,-4.1735,-4.1313,-4.1075,0.0,0.0,0.0,0.0,0.0,0.0,0.0,0.0,0.0,0.0,0.0,-1.9762,-1.969,-2.0015,-2.0762,-2.2094,-2.2781,-2.3874,-2.5575,0.0,0.0,0.0,0.0,0.0,0.0,0.0,0.0,0.0,0.0,0.0,0.0,0.0,0.0,0.0,0.0,0.0,0.0,0.0,0.0,0.0,0.0,0.0,-3.2921,0.0,0.0,0.0,0.0,0.0,0.0,0.0,0.0,0.0,0.0,0.0,0.0,0.0,0.0,0.0,0.0,0.0,0.0,0.0,0.0,0.0,0.0,0.0,0.0,0.0,0.0,0.0,0.0,0.0,0.0,0.0,0.0,0.0,0.0,0.0,-3.522,-3.5817,-3.6415,-3.7198,-3.8295,-3.8375,-3.8725,-3.9522,-4.0538,-4.1111,-4.1111,-4.2635,-4.3754,-4.4287,-4.4837,-4.5498,-4.6305,-4.6305,-4.6434,-4.6709,-4.6709,-4.7003,-4.7517,-4.7517,-4.7517,-4.7517,-4.7517,-4.7205,-4.6709,-4.6709,-4.6709,-4.6599,-4.5535,-4.4782,-4.425,-4.3699,-4.3185,-4.2727,0.0,0.0,0.0,0.0,0.0,0.0,0.0,0.0,0.0,0.0,-1.969,-1.969,-1.969,-1.9711,-2.0656,-2.2959,-2.3192,-2.4225,-2.6522,-2.6691,0.0,0.0,0.0,0.0,0.0,0.0,0.0,0.0,0.0,0.0,0.0,0.0,0.0,0.0,0.0,0.0,0.0,0.0,0.0,0.0,0.0,0.0,-3.2734,0.0,0.0,0.0,0.0,0.0,0.0,0.0,0.0,0.0,0.0,0.0,0.0,0.0,0.0,0.0,0.0,0.0,0.0,0.0,0.0,0.0,0.0,0.0,0.0,0.0,0.0,0.0,0.0,0.0,0.0,0.0,0.0,0.0,-3.5027,-3.5064,-3.5762,-3.7485,-3.7647,-3.826,-3.9939,-4.0042,-4.0359,-4.1203,-4.269,-4.3552,-4.3552,-4.5076,-4.5938,-4.5938,-4.5957,-4.6361,-4.715,-4.715,-4.7535,-4.8306,-4.8306,-4.8306,-4.8306,-4.8306,-4.8306,-4.8306,-4.8306,-4.8306,-4.8306,-4.8306,-4.8306,-4.8159,-4.6581,-4.5957,-4.5938,-4.5938,-4.592,-4.5902,0.0,0.0,0.0,0.0,0.0,0.0,0.0,0.0,0.0,0.0,-1.969,-1.969,-1.969,-1.9965,-2.0802,-2.2493,-2.3278,-2.4395,-2.6092,0.0,0.0,0.0,0.0,0.0,0.0,0.0,0.0,0.0,0.0,0.0,0.0,0.0,0.0,0.0,0.0,0.0,0.0,0.0,0.0,0.0,0.0,0.0,-3.284,0.0,0.0,0.0,0.0,0.0,0.0,0.0,0.0,0.0,0.0,0.0,0.0,0.0,0.0,0.0,0.0,0.0,0.0,0.0,0.0,0.0,0.0,0.0,0.0,0.0,0.0,0.0,0.0,0.0,0.0,0.0,0.0,-3.6597,-3.6028,-3.6964,-3.8083,-3.9142,-3.9753,-4.0744,-4.2375,-4.254,-4.3075,-4.4488,-4.4984,-4.5241,-4.5241,-4.6214,-4.6783,-4.6783,-4.7352,-4.7755,-4.7976,-4.7976,-4.8086,-4.8306,-4.8306,-4.8306,-4.8306,-4.8306,-4.8306,-4.8306,-4.8306,-4.8306,-4.8306,-4.8306,-4.8306,-4.8269,-4.781,-4.7278,-4.6783,-4.6783,-4.6416,-4.5902,0.0,0.0,0.0,0.0,0.0,0.0,0.0,0.0,0.0,0.0,-1.969,-1.969,-1.969,-1.9909,-2.0767,-2.2566,-2.3278,-2.4361,-2.6162,0.0,0.0,0.0,0.0,0.0,0.0,0.0,0.0,0.0,0.0,0.0,0.0,0.0,0.0,0.0,0.0,0.0,0.0,0.0,0.0,0.0,0.0,0.0,-3.311,-3.2965,-3.3111,-3.3364,-3.3196,-3.3226,-3.3291,-3.2534,0.0,0.0,0.0,0.0,0.0,0.0,0.0,0.0,0.0,0.0,0.0,0.0,0.0,0.0,0.0,0.0,0.0,0.0,0.0,0.0,0.0,0.0,0.0,0.0,-3.7147,-3.8065,-3.8285,-3.8836,-3.9753,-4.1222,-4.1827,-4.2745,-4.4342,-4.4507,-4.4892,-4.5828,-4.6214,-4.6416,-4.6416,-4.7186,-4.7609,-4.7609,-4.8067,-4.8306,-4.8306,-4.8306,-4.8306,-4.8306,-4.8306,-4.8306,-4.8306,-4.8306,-4.8306,-4.8306,-4.8306,-4.8306,-4.8306,-4.8306,-4.8306,-4.8306,0.0,0.0,0.0,0.0,-4.7315,-4.6911,0.0,0.0,0.0,0.0,0.0,0.0,0.0,0.0,0.0,0.0,0.0,-1.969,-1.969,-1.969,-2.062,-2.2923,-2.3122,-2.4139,0.0,0.0,0.0,0.0,0.0,0.0,0.0,0.0,0.0,0.0,0.0,0.0,0.0,0.0,0.0,0.0,0.0,0.0,0.0,0.0,0.0,0.0,0.0,0.0,-3.3336,-3.3072,-3.3152,-3.3316,-3.2912,-3.3006,-3.3316,-3.2862,0.0,0.0,0.0,0.0,0.0,0.0,0.0,0.0,0.0,0.0,0.0,0.0,0.0,0.0,0.0,0.0,0.0,0.0,0.0,0.0,0.0,0.0,0.0,0.0,-3.8524,-3.9643,-4.1167,-4.0836,-4.124,-4.3369,-4.3718,-4.436,-4.5883,-4.6049,-4.6067,-4.6159,-4.6838,-4.726,-4.726,-4.7921,0.0,0.0,0.0,-4.8306,-4.8306,-4.8306,-4.8306,-4.8306,-4.8306,-4.8306,-4.8306,-4.8306,-4.8306,-4.8306,-4.8306,-4.8306,-4.8306,-4.8306,-4.8306,-4.8306,-4.8306,-4.8306,-4.8306,-4.8306,-4.8306,-4.8306,0.0,0.0,0.0,0.0,0.0,0.0,0.0,0.0,0.0,-1.8792,-1.9346,-1.969,-1.969,-1.969,-2.0476,-2.2384,-2.2671,-2.3731,0.0,0.0,0.0,0.0,0.0,0.0,0.0,0.0,0.0,0.0,0.0,0.0,0.0,0.0,0.0,0.0,0.0,0.0,0.0,0.0,0.0,0.0,0.0,0.0,-3.3097,-3.3371,-3.3362,-3.3232,-3.3124,-3.3154,-3.3202,-3.2952,-3.2921,-3.3032,-3.3286,0.0,0.0,0.0,0.0,0.0,0.0,0.0,0.0,0.0,0.0,0.0,0.0,0.0,0.0,0.0,0.0,0.0,0.0,0.0,0.0,-3.9276,-4.0653,-4.1937,-4.2892,-4.3461,-4.3938,-4.4415,-4.5039,-4.581,-4.6783,-4.6874,-4.715,-4.7792,-4.7994,-4.8086,-4.8086,-4.8233,-4.8306,-4.8306,-4.8306,-4.8306,-4.8306,-4.8306,-4.8306,-4.8306,-4.8306,0.0,-4.8306,-4.8306,-4.8306,-4.8306,-4.8306,-4.8306,-4.8306,-4.8306,-4.8306,-4.8306,-4.8306,-4.8306,-4.8306,-4.8306,-4.8306,-4.8306,0.0,0.0,0.0,0.0,0.0,0.0,0.0,0.0,0.0,0.0,-1.9271,-1.969,-1.969,-1.9726,-2.0491,-2.2325,-2.3617,0.0,0.0,0.0,0.0,0.0,0.0,0.0,0.0,0.0,0.0,0.0,0.0,0.0,0.0,0.0,0.0,0.0,0.0,0.0,0.0,0.0,0.0,0.0,0.0,0.0,-3.3722,-3.3413,-3.3317,-3.3327,-3.2707,-3.2631,-3.2809,-3.2466,-3.25,-3.2745,-3.3032,-3.3081,-3.3019,0.0,0.0,0.0,0.0,0.0,0.0,0.0,0.0,0.0,0.0,0.0,0.0,0.0,0.0,-3.6376,0.0,0.0,-3.9698,-4.0891,-4.2103,-4.3185,-4.3993,-4.5149,-4.592,-4.592,-4.6269,-4.6838,-4.7627,-4.7719,-4.7884,-4.8269,-4.8306,-4.8306,-4.8306,-4.8306,-4.8306,-4.8306,-4.8306,-4.8306,-4.8306,-4.8306,-4.8306,-4.8306,-4.8306,-4.8306,-4.8306,-4.8306,-4.8306,-4.8306,-4.8306,-4.8306,-4.8306,-4.8306,-4.8306,-4.8306,-4.8306,-4.8306,-4.8306,-4.8306,-4.8306,-4.8306,0.0,0.0,0.0,0.0,0.0,0.0,0.0,0.0,0.0,0.0,0.0,-1.954,-1.9675,-1.9762,-2.0542,0.0,0.0,0.0,0.0,0.0,0.0,0.0,0.0,0.0,0.0,0.0,0.0,0.0,0.0,0.0,0.0,0.0,0.0,0.0,0.0,0.0,0.0,0.0,0.0,0.0,0.0,0.0,-3.438,-3.3453,-3.3256,-3.3354,-3.2193,-3.2022,-3.2316,-3.1933,-3.2057,-3.2417,-3.2745,-3.2872,-3.2903,-3.3006,-3.3226,0.0,0.0,0.0,0.0,0.0,0.0,0.0,0.0,0.0,-3.6413,-3.6046,-3.7019,-3.8046,-3.8358,-3.9478,-4.0891,-4.2506,-4.3314,-4.4066,-4.5039,-4.6287,-4.7186,-4.7333,-4.7352,-4.7609,-4.8251,-4.8306,-4.8306,-4.8306,-4.8306,-4.8306,-4.8306,-4.8306,-4.8306,-4.8306,-4.8306,-4.8306,-4.8306,-4.8306,-4.8306,-4.8306,-4.8306,-4.8306,-4.8306,-4.8306,-4.8306,-4.8306,-4.8306,-4.8306,-4.8306,-4.8306,-4.8306,-4.8306,-4.8306,-4.8306,-4.8306,-4.8306,-4.8306,-4.8306,0.0,0.0,0.0,0.0,0.0,0.0,0.0,0.0,0.0,0.0,0.0,0.0,0.0,0.0,0.0,0.0,0.0,0.0,0.0,0.0,0.0,0.0,0.0,0.0,0.0,0.0,0.0,0.0,0.0,0.0,0.0,0.0,0.0,0.0,0.0,0.0,0.0,0.0,0.0,0.0,0.0,0.0,-3.4404,-3.3677,-3.3237,-3.2973,-3.2102,-3.1808,-3.1861,-3.1825,-3.1808,-3.1968,-3.24,-3.2713,-3.2872,-3.2798,0.0,-3.3452,-3.3322,-3.3989,-3.4731,-3.4673,-3.54,-3.634,0.0,0.0,-3.7734,-3.9074,-3.9496,-4.0065,-4.1497,-4.1901,-4.2561,-4.4176,-4.4525,-4.5112,-4.6636,-4.7003,-4.7388,-4.8086,-4.8177,-4.8214,-4.8306,-4.8306,-4.8306,-4.8306,-4.8306,-4.8306,-4.8306,-4.8306,-4.8306,-4.8306,-4.8306,-4.8306,-4.8306,-4.8306,-4.8306,-4.8306,-4.8306,-4.8306,-4.8306,-4.8306,-4.8306,-4.8306,-4.8306,-4.8306,-4.8306,-4.8306,-4.8306,-4.8306,-4.8306,-4.8306,-4.8306,-4.8306,-4.8306,-4.8306,0.0,0.0,0.0,0.0,0.0,0.0,0.0,0.0,0.0,0.0,0.0,0.0,0.0,0.0,0.0,0.0,0.0,0.0,0.0,0.0,0.0,0.0,0.0,0.0,0.0,0.0,0.0,0.0,0.0,0.0,0.0,0.0,0.0,0.0,0.0,0.0,0.0,0.0,0.0,0.0,0.0,0.0,-3.3778,-3.3034,-3.2706,-3.2513,-3.1722,-3.1449,0.0,0.0,-3.1449,-3.1582,-3.2282,-3.2517,-3.2634,-3.3006,-3.3256,0.0,-3.4043,-3.4477,0.0,0.0,-3.7044,-3.79,-3.8707,-3.9258,-3.979,-4.0469,-4.0965,-4.1497,-4.2176,-4.2671,-4.3369,0.0,-4.5094,-4.581,-4.6966,-4.7517,-4.7921,-4.8269,-4.8306,-4.8306,-4.8306,-4.8306,-4.8306,-4.8306,-4.8306,-4.8306,-4.8306,-4.8306,-4.8306,-4.8306,-4.8306,-4.8306,-4.8306,-4.8306,-4.8306,-4.8306,-4.8306,-4.8306,-4.8306,-4.8306,-4.8306,-4.8306,-4.8306,-4.8306,-4.8306,-4.8306,-4.8306,-4.8306,-4.8306,-4.8306,-4.8306,-4.8306,-4.8306,-4.8306,0.0,0.0,0.0,0.0,0.0,0.0,0.0,0.0,0.0,0.0,0.0,0.0,0.0,0.0,0.0,0.0,0.0,0.0,0.0,0.0,0.0,0.0,0.0,0.0,0.0,0.0,0.0,0.0,0.0,0.0,0.0,0.0,0.0,0.0,0.0,0.0,0.0,0.0,0.0,0.0,0.0,0.0,-3.3034,-3.2493,-3.2154,-3.1918,-3.1376,-3.119,0.0,0.0,-3.119,-3.1329,-3.2021,-3.2265,-3.2419,-3.2993,-3.3309,-3.3689,-3.4539,0.0,0.0,-3.7424,-3.8597,-3.957,-4.0377,-4.102,-4.1497,-4.1735,-4.2231,-4.2635,-4.2635,-4.3112,-4.3754,-4.458,-4.5388,-4.6177,-4.7003,-4.781,-4.8306,-4.8306,-4.8306,-4.8306,-4.8306,-4.8306,-4.8306,-4.8306,-4.8306,-4.8306,-4.8306,-4.8306,-4.8306,-4.8306,-4.8306,-4.8306,-4.8306,-4.8306,-4.8306,-4.8306,-4.8306,-4.8306,-4.8306,-4.8306,-4.8306,-4.8306,-4.8306,-4.8306,-4.8306,-4.8306,-4.8306,-4.8306,-4.8306,-4.8306,-4.8306,-4.8306,-4.8306,-4.8306,0.0,0.0,0.0,0.0,0.0,0.0,0.0,0.0,0.0,0.0,0.0,0.0,0.0,0.0,0.0,0.0,0.0,0.0,0.0,0.0,0.0,0.0,0.0,0.0,0.0,0.0,0.0,0.0,0.0,0.0,0.0,0.0,0.0,0.0,0.0,0.0,0.0,0.0,0.0,0.0,0.0,0.0,-3.2307,-3.229,-3.185,-3.1224,-3.1207,0.0,0.0,0.0,-3.119,-3.1269,-3.1542,-3.1949,0.0,-3.2472,-3.3119,0.0,0.0,0.0,-3.7941,-3.8446,-3.98,-4.1258,-4.2047,-4.2249,-4.2488,-4.3259,-4.3442,-4.3442,-4.3442,-4.3461,-4.3754,-4.458,-4.5388,-4.6177,-4.7003,-4.781,-4.8306,-4.8306,-4.8306,-4.8306,0.0,-4.8306,-4.8306,-4.8306,-4.8306,-4.8306,-4.8306,-4.8306,-4.8306,-4.8306,-4.8306,-4.8306,-4.8306,-4.8306,-4.8306,-4.8306,-4.8306,-4.8306,-4.8306,-4.8306,-4.8306,-4.8306,-4.8306,-4.8306,-4.8306,-4.8306,-4.8306,-4.8306,-4.8306,-4.8306,-4.8306,-4.8306,-4.8306,-4.8306,0.0,0.0,0.0,0.0,0.0,0.0,0.0,0.0,0.0,0.0,0.0,0.0,0.0,0.0,0.0,0.0,0.0,0.0,0.0,0.0,0.0,0.0,0.0,0.0,0.0,0.0,0.0,0.0,0.0,0.0,0.0,0.0,0.0,0.0,0.0,0.0,0.0,0.0,0.0,0.0,0.0,0.0,-3.1562,-3.1562,-3.141,-3.119,0.0,0.0,0.0,0.0,-3.119,-3.1252,-3.162,0.0,0.0,-3.302,-3.3646,-3.4429,0.0,0.0,-3.8598,-4.0074,-4.1172,-4.2121,-4.291,-4.3094,-4.3167,-4.3424,-4.3497,-4.3497,-4.3497,-4.3497,-4.3754,-4.458,-4.4947,-4.5571,-4.6929,-4.7352,-4.7719,-4.8251,-4.8306,0.0,0.0,0.0,0.0,-4.8306,-4.8306,-4.8306,-4.8306,-4.8306,-4.8306,-4.8306,-4.8306,-4.8306,-4.8306,-4.8306,-4.8306,-4.8306,-4.8306,-4.8306,-4.8306,-4.8306,-4.8306,-4.8306,-4.8306,-4.8306,-4.8306,-4.8306,-4.8306,-4.8306,-4.8306,-4.8306,-4.8306,-4.8306,-4.8306,-4.8306,0.0,0.0,0.0,0.0,0.0,0.0,0.0,0.0,0.0,0.0,0.0,0.0,0.0,0.0,0.0,0.0,0.0,0.0,0.0,0.0,0.0,0.0,0.0,0.0,0.0,0.0,0.0,0.0,0.0,0.0,0.0,0.0,0.0,0.0,0.0,0.0,0.0,0.0,0.0,0.0,0.0,0.0,-3.0651,-3.0398,-3.0487,0.0,0.0,0.0,0.0,0.0,0.0,-3.1252,-3.162,-3.205,-3.2615,-3.3459,-3.4288,-3.526,-3.6708,-3.8131,-3.9589,-4.1051,-4.2068,-4.2855,-4.3369,-4.3497,-4.3497,-4.3497,-4.3497,-4.3497,-4.3497,-4.3497,-4.3663,-4.4195,-4.4525,-4.5168,-4.6507,-4.6929,-4.7407,-4.8214,-4.8306,-4.8306,0.0,0.0,0.0,-4.8306,-4.8306,-4.8306,-4.8306,-4.8306,-4.8306,-4.8306,-4.8306,-4.8306,-4.8306,-4.8306,-4.8306,-4.8306,-4.8306,-4.8306,-4.8306,-4.8306,-4.8306,-4.8306,-4.8306,-4.8306,-4.8306,-4.8306,-4.8306,-4.8306,-4.8306,-4.8306,-4.8306,-4.8306,-4.8306,-4.8306,0.0,0.0,0.0,0.0,0.0,0.0,0.0,0.0,0.0,0.0,0.0,0.0,0.0,0.0,0.0,0.0,0.0,0.0,0.0,0.0,0.0,0.0,0.0,0.0,0.0,0.0,0.0,0.0,0.0,0.0,0.0,0.0,0.0,0.0,0.0,0.0,0.0,0.0,0.0,0.0,0.0,0.0,-2.9666,-2.8946,0.0,0.0,0.0,0.0,0.0,0.0,0.0,0.0,0.0,0.0,-3.3276,-3.3863,-3.5028,-3.6343,-3.7425,-3.9213,-4.0846,-4.1315,-4.245,-4.3444,-4.3444,-4.3408,-4.3389,-4.3424,-4.3387,-4.3369,0.0,0.0,-4.3389,-4.3424,-4.4068,-4.4893,-4.5773,-4.6562,-4.737,0.0,0.0,0.0,0.0,0.0,0.0,-4.8306,0.0,-4.8306,-4.8306,-4.8306,-4.8306,-4.8306,-4.8306,-4.8306,-4.8306,-4.8306,-4.8306,-4.8306,-4.8306,-4.8306,-4.8306,-4.8306,-4.8306,-4.8306,-4.8306,-4.8306,-4.8306,-4.8306,-4.8306,-4.8306,-4.8267,-4.8267,-4.8306,-4.8267,-4.8267,-4.8306,0.0,0.0,0.0,0.0,0.0,0.0,0.0,0.0,0.0,0.0,0.0,0.0,0.0,0.0,0.0,0.0,0.0,0.0,0.0,0.0,0.0,0.0,0.0,0.0,0.0,0.0,0.0,0.0,0.0,0.0,0.0,0.0,0.0,0.0,0.0,0.0,0.0,0.0,0.0,0.0,0.0,0.0,-2.9005,0.0,0.0,0.0,0.0,0.0,0.0,0.0,0.0,0.0,0.0,0.0,-3.3175,-3.5002,-3.6047,-3.701,-3.8761,-4.0205,-4.1289,-4.164,-4.23,-4.2902,-4.2902,-4.2394,-4.2032,-4.2461,-4.2038,-4.1635,0.0,0.0,0.0,-4.2512,-4.2959,0.0,-4.5663,-4.6085,0.0,-4.8141,0.0,-4.8306,-4.8306,-4.8306,0.0,0.0,-4.8306,-4.8306,-4.8306,-4.8306,-4.8306,-4.8306,-4.8306,-4.8306,-4.8306,-4.8306,-4.8306,-4.8306,-4.8306,-4.8306,-4.8306,-4.8306,-4.8306,-4.8306,-4.8306,-4.8306,-4.8306,-4.8306,-4.8306,-4.8267,-4.7797,-4.7897,-4.8267,-4.7797,-4.7897,-4.8306,0.0,0.0,0.0,0.0,0.0,0.0,0.0,0.0,0.0,0.0,0.0,0.0,0.0,0.0,0.0,0.0,0.0,0.0,0.0,0.0,0.0,0.0,0.0,0.0,0.0,0.0,0.0,0.0,0.0,0.0,0.0,0.0,0.0,0.0,0.0,0.0,0.0,0.0,0.0,0.0,0.0,0.0,0.0,0.0,0.0,0.0,0.0,0.0,0.0,0.0,0.0,-3.1365,-3.2236,-3.2775,-3.3407,-3.5589,0.0,-3.7638,-3.9316,-4.0662,-4.1573,-4.1411,-4.208,-4.2564,-4.2049,-4.1522,-4.1169,-4.118,-4.096,0.0,0.0,0.0,0.0,0.0,0.0,0.0,-4.5059,-4.5461,-4.6099,0.0,-4.8104,0.0,-4.7937,-4.8132,-4.8172,0.0,-4.8172,-4.8306,-4.8306,-4.8306,-4.8306,-4.8306,-4.8035,-4.7897,-4.7897,-4.7897,-4.8035,-4.8306,-4.8306,-4.8306,-4.8306,-4.8306,-4.8306,-4.8306,-4.8306,-4.8172,-4.7897,-4.7897,-4.7738,-4.7409,-4.7088,-4.7176,-4.7409,-4.7088,-4.7194,-4.747,0.0,0.0,0.0,0.0,0.0,0.0,0.0,0.0,0.0,0.0,0.0,0.0,0.0,0.0,0.0,0.0,0.0,0.0,0.0,0.0,0.0,0.0,0.0,0.0,0.0,0.0,0.0,0.0,0.0,0.0,0.0,0.0,0.0,0.0,0.0,0.0,0.0,0.0,0.0,0.0,0.0,0.0,0.0,0.0,0.0,0.0,0.0,0.0,0.0,0.0,-3.1123,-3.1343,-3.2171,-3.2882,-3.3812,-3.5993,-3.7205,-3.8201,-3.9514,-4.0761,-4.1534,-4.1041,-4.1664,-4.2203,-4.1118,-4.073,-4.0433,-3.9756,0.0,-3.9914,-3.9967,-4.027,-4.0839,-4.1812,0.0,-4.2084,-4.4163,-4.4869,-4.5645,-4.6852,-4.7696,-4.7977,-4.7428,-4.7897,-4.7977,-4.7428,-4.7937,-4.8306,-4.8306,-4.8306,-4.8267,-4.8172,-4.7572,-4.7299,-4.7299,-4.7342,-4.7614,-4.8075,-4.8132,-4.8172,-4.8172,-4.8075,-4.8114,-4.8172,-4.8075,-4.7738,-4.7299,-4.7299,-4.691,-4.6383,-4.6336,-4.6336,-4.6383,-4.6336,-4.6336,-4.6383,0.0,0.0,0.0,0.0,0.0,0.0,0.0,0.0,0.0,0.0,0.0,0.0,0.0,0.0,0.0,0.0,0.0,0.0,0.0,0.0,0.0,0.0,0.0,0.0,0.0,0.0,0.0,0.0,0.0,0.0,0.0,0.0,0.0,0.0,0.0,0.0,0.0,0.0,0.0,0.0,0.0,0.0,0.0,0.0,0.0,0.0,0.0,0.0,0.0,0.0,-3.07,-3.1427,-3.278,-3.3305,-3.3947,-3.6825,-3.7733,-3.832,-4.0181,-4.0845,-4.1041,-4.0949,-4.1122,-4.1173,-4.0662,-3.9849,0.0,0.0,0.0,-3.7286,-3.7356,-3.7756,0.0,-3.9999,0.0,0.0,0.0,0.0,-4.5935,0.0,0.0,0.0,0.0,0.0,0.0,0.0,-4.7937,-4.8306,-4.8306,-4.8306,-4.8075,-4.7572,-4.691,-4.6571,-4.6571,-4.7132,-4.7194,-4.6756,-4.7281,-4.7572,-4.753,-4.6999,-4.7044,-4.753,-4.6999,-4.6664,-4.6571,-4.6571,-4.6524,-4.6336,-4.5865,-4.5965,-4.6336,-4.5815,-4.5965,-4.6383,0.0,0.0,0.0,0.0,0.0,0.0,0.0,0.0,0.0,0.0,0.0,0.0,0.0,0.0,0.0,0.0,0.0,0.0,0.0,0.0,0.0,0.0,0.0,0.0,0.0,0.0,0.0,0.0,0.0,0.0,0.0,0.0,0.0,0.0,0.0,0.0,0.0,0.0,0.0,0.0,0.0,0.0,0.0,0.0,0.0,0.0,0.0,0.0,0.0,0.0,-3.0345,-3.0886,-3.2357,-3.3085,-3.3931,-3.6552,-3.7601,-3.8258,-4.0007,-4.0703,-4.081,-4.0528,-4.0427,-4.0175,-3.9475,0.0,0.0,0.0,0.0,-3.5581,-3.579,0.0,0.0,0.0,0.0,0.0,0.0,0.0,0.0,0.0,0.0,0.0,0.0,0.0,0.0,-4.6448,-4.6955,-4.7452,-4.7797,-4.7512,-4.7044,-4.6448,-4.6112,-4.5915,-4.5915,-4.6257,-4.6401,-4.6413,-4.671,-4.6864,-4.6864,-4.6571,-4.6571,-4.6864,-4.6524,-4.624,-4.5915,-4.5915,-4.5732,-4.5407,-4.5125,-4.5232,-4.5407,-4.5142,-4.5232,-4.5459,0.0,0.0,0.0,0.0,0.0,0.0,0.0,0.0,0.0,0.0,0.0,0.0,0.0,0.0,0.0,0.0,0.0,0.0,0.0,0.0,0.0,0.0,0.0,0.0,0.0,0.0,0.0,0.0,0.0,0.0,0.0,0.0,0.0,0.0,0.0,0.0,0.0,0.0,0.0,0.0,0.0,0.0,0.0,0.0,0.0,0.0,0.0,0.0,0.0,0.0,-2.9837,-3.0277,-3.1275,-3.2408,-3.3812,-3.591,-3.7077,-3.799,-3.9445,-4.0058,-4.0178,-3.9932,-3.9631,-3.9118,-3.806,-3.6874,0.0,0.0,-3.4509,-3.4318,-3.4606,0.0,0.0,0.0,0.0,0.0,0.0,0.0,0.0,0.0,0.0,0.0,0.0,0.0,0.0,-4.5563,-4.5915,-4.6478,-4.715,-4.6571,-4.6014,-4.5494,-4.5355,-4.532,-4.532,-4.5459,-4.5699,-4.6014,-4.6161,-4.6192,-4.6192,-4.6046,-4.6094,-4.6192,-4.6046,-4.5732,-4.532,-4.532,-4.5052,-4.4587,-4.4587,-4.4587,-4.4587,-4.4587,-4.4587,-4.4587,0.0,0.0,0.0,0.0,0.0,0.0,0.0,0.0,0.0,0.0,0.0,0.0,0.0,0.0,0.0,0.0,0.0,0.0,0.0,0.0,0.0,0.0,0.0,0.0,0.0,0.0,0.0,0.0,0.0,0.0,0.0,0.0,0.0,0.0,0.0,0.0,0.0,0.0,0.0,0.0,0.0,0.0,0.0,0.0,0.0,0.0,0.0,0.0,0.0,0.0,0.0,-3.0023,-2.9465,-3.119,-3.3711,-3.5267,0.0,0.0,-3.8684,-3.8647,-3.8292,-3.8937,-3.858,-3.7789,-3.6818,0.0,0.0,-3.3885,-3.349,-3.3438,-3.3546,-3.4394,0.0,0.0,0.0,0.0,0.0,0.0,0.0,0.0,0.0,0.0,0.0,0.0,0.0,-4.5494,-4.5545,-4.5833,-4.6478,-4.5915,-4.5545,-4.5511,-4.4944,-4.4665,-4.4665,-4.5232,-4.5284,-4.4759,-4.532,-4.5597,-4.5545,-4.4998,-4.5035,-4.5545,-4.4998,-4.472,-4.4665,-4.4665,-4.4626,-4.4587,-4.4587,-4.4587,-4.4587,-4.4587,-4.4587,-4.4587,0.0,0.0,0.0,0.0,0.0,0.0,0.0,0.0,0.0,0.0,0.0,0.0,0.0,0.0,0.0,0.0,0.0,0.0,0.0,0.0,0.0,0.0,0.0,0.0,0.0,0.0,0.0,0.0,0.0,0.0,0.0,0.0,0.0,0.0,0.0,0.0,0.0,0.0,0.0,0.0,0.0,0.0,0.0,0.0,0.0,0.0,0.0,0.0,0.0,0.0,0.0,0.0,-2.9465,-3.0768,0.0,0.0,-3.5193,-3.6508,-3.7939,-3.8125,-3.7973,-3.8261,-3.7818,-3.7109,-3.6345,0.0,0.0,-3.3332,-3.2728,-3.2453,-3.2633,-3.3756,-3.4815,0.0,0.0,0.0,0.0,0.0,0.0,0.0,0.0,0.0,0.0,0.0,-4.4944,-4.4944,-4.4944,-4.5035,-4.532,-4.5089,-4.4944,-4.4944,-4.472,-4.4587,-4.4587,-4.4869,-4.4869,-4.457,-4.4869,-4.4944,-4.4944,-4.472,-4.472,-4.4944,-4.472,-4.4587,-4.4587,-4.4587,-4.4587,-4.4587,-4.4587,-4.4587,-4.4587,-4.4587,-4.4587,-4.4587,0.0,0.0,0.0,0.0,0.0,0.0,0.0,0.0,0.0,0.0,0.0,0.0,0.0,0.0,0.0,0.0,0.0,0.0,0.0,0.0,0.0,0.0,0.0,0.0,0.0,0.0,0.0,-1.9592,-1.9964,-2.0553,0.0,0.0,-2.167,-2.1974,0.0,0.0,0.0,0.0,0.0,0.0,0.0,0.0,0.0,0.0,0.0,0.0,0.0,0.0,0.0,0.0,0.0,0.0,0.0,0.0,0.0,0.0,-3.4067,-3.5355,-3.6598,-3.6755,-3.662,-3.684,-3.6407,-3.5749,0.0,0.0,0.0,-3.2655,-3.2107,-3.1873,-3.2054,-3.3345,-3.4449,0.0,0.0,0.0,0.0,0.0,0.0,0.0,0.0,0.0,0.0,0.0,-4.4587,-4.4587,-4.4587,-4.4587,-4.4587,-4.4587,-4.4587,-4.4587,-4.4587,-4.4587,-4.4587,-4.4587,-4.4587,-4.4587,-4.4587,-4.4587,-4.4587,-4.4587,-4.4587,-4.4587,-4.4587,-4.4587,-4.4587,-4.4587,-4.4587,-4.4587,-4.4587,-4.4587,-4.4587,-4.4587,-4.4587,-4.4587,0.0,0.0,0.0,0.0,0.0,0.0,0.0,0.0,0.0,0.0,0.0,0.0,0.0,0.0,0.0,0.0,0.0,0.0,0.0,0.0,0.0,0.0,0.0,0.0,0.0,0.0,0.0,-1.8235,-1.8882,-1.9755,-2.0805,-2.0805,-2.1244,-2.1998,0.0,0.0,0.0,0.0,0.0,0.0,0.0,0.0,0.0,0.0,0.0,0.0,0.0,0.0,0.0,0.0,0.0,0.0,0.0,0.0,0.0,0.0,-3.2947,-3.3609,-3.4499,-3.4117,-3.3626,-3.4336,-3.4084,-3.3437,0.0,0.0,-3.2578,-3.1788,-3.1709,-3.18,-3.18,-3.3041,-3.4093,-3.4133,0.0,0.0,0.0,0.0,0.0,0.0,0.0,0.0,0.0,0.0,-4.4587,-4.4587,-4.4587,-4.4587,-4.4587,-4.4587,-4.4587,-4.4587,-4.4587,-4.4587,-4.4587,-4.4587,-4.4587,-4.4587,-4.4587,-4.4587,-4.4587,-4.4587,-4.4587,-4.4587,-4.4587,-4.4587,-4.4587,-4.4587,-4.4587,-4.4587,-4.4587,-4.4587,-4.4587,-4.4587,-4.4587,-4.4587,0.0,0.0,0.0,0.0,0.0,0.0,0.0,0.0,0.0,0.0,0.0,0.0,0.0,0.0,0.0,0.0,0.0,0.0,0.0,0.0,0.0,0.0,0.0,0.0,0.0,0.0,0.0,-1.8416,-1.8604,-1.9398,-2.0716,-2.0788,-2.1228,-2.1998,-2.2106,0.0,0.0,0.0,0.0,0.0,0.0,0.0,0.0,0.0,0.0,0.0,0.0,0.0,0.0,0.0,0.0,0.0,0.0,0.0,0.0,0.0,0.0,0.0,-3.3607,-3.3802,-3.3649,-3.3837,-3.3826,-3.3631,-3.2855,0.0,-3.2616,-3.1863,-3.1709,-3.1709,-3.18,-3.3059,-3.4093,-3.4093,-3.5542,0.0,0.0,0.0,0.0,0.0,0.0,0.0,0.0,0.0,-4.4587,-4.4587,-4.4587,-4.4587,-4.4587,-4.4587,-4.4587,-4.4587,-4.4587,-4.4587,-4.4587,-4.4587,-4.4587,-4.4587,-4.4587,-4.4587,-4.4587,-4.4587,-4.4587,-4.4587,-4.4587,-4.4587,-4.4587,-4.4587,-4.4587,-4.4587,-4.4587,-4.4587,-4.4587,-4.4587,-4.4587,-4.4587,0.0,0.0,0.0,0.0,0.0,0.0,0.0,0.0,0.0,0.0,0.0,0.0,0.0,0.0,0.0,0.0,0.0,0.0,0.0,0.0,0.0,0.0,0.0,0.0,0.0,0.0,-1.7429,-1.812,-1.812,-1.8759,-1.993,-2.0283,-2.0883,-2.1653,-2.2046,0.0,0.0,0.0,0.0,0.0,0.0,0.0,-2.5693,0.0,0.0,0.0,0.0,0.0,0.0,0.0,0.0,0.0,0.0,0.0,0.0,0.0,-2.9761,0.0,0.0,-3.2616,-3.2844,-3.2781,-3.2884,0.0,0.0,0.0,-3.2311,-3.1812,-3.1932,-3.2035,-3.1852,-3.3244,-3.4364,-3.4128,-3.5311,0.0,0.0,0.0,0.0,0.0,0.0,0.0,0.0,-4.4626,-4.4587,-4.4587,-4.4587,-4.4587,-4.4587,-4.4587,-4.4587,-4.4587,-4.4587,-4.4587,-4.4587,-4.4587,-4.4587,-4.4587,-4.4587,-4.4587,-4.4587,-4.4587,-4.4587,-4.4587,-4.4587,-4.4587,0.0,-4.4587,-4.4587,-4.4587,-4.4587,-4.4587,-4.4587,-4.4587,-4.4587,-4.4587,0.0,0.0,0.0,0.0,0.0,0.0,0.0,0.0,0.0,0.0,0.0,0.0,0.0,0.0,0.0,0.0,0.0,0.0,0.0,0.0,0.0,0.0,0.0,0.0,0.0,-1.7002,-1.7216,-1.7515,-1.7515,-1.7887,-1.8618,-1.9478,-2.0293,-2.1053,-2.19,-2.2282,-2.231,-2.231,-2.2699,-2.3376,-2.4171,-2.4898,0.0,0.0,0.0,0.0,0.0,0.0,0.0,0.0,0.0,0.0,0.0,0.0,0.0,0.0,0.0,0.0,0.0,0.0,0.0,0.0,0.0,0.0,0.0,0.0,0.0,-3.1703,-3.2328,-3.2697,-3.199,-3.3601,-3.4799,-3.4214,0.0,0.0,0.0,0.0,0.0,0.0,0.0,0.0,-4.4793,-4.4682,-4.4587,-4.4587,-4.4587,-4.4587,-4.4587,-4.4587,-4.4587,-4.4587,-4.4587,-4.4587,-4.4587,-4.4587,-4.4587,-4.4587,-4.4587,-4.4587,-4.4587,-4.4587,-4.4587,-4.4587,-4.4587,-4.4587,-4.4587,-4.4587,-4.4587,-4.4587,-4.4587,-4.4587,-4.4587,-4.4587,-4.4587,-4.4587,0.0,0.0,0.0,0.0,0.0,0.0,0.0,0.0,0.0,0.0,0.0,0.0,0.0,0.0,0.0,0.0,0.0,0.0,0.0,0.0,0.0,0.0,0.0,0.0,0.0,-1.7002,-1.7216,-1.7515,-1.7515,-1.7887,-1.8618,-1.9393,-2.0197,-2.1053,-2.186,-2.2254,-2.231,-2.231,-2.2412,-2.2682,-2.3998,-2.4594,0.0,0.0,0.0,0.0,-2.6691,-2.6825,0.0,0.0,0.0,0.0,0.0,0.0,0.0,0.0,-2.8355,-2.9403,-2.9486,0.0,-3.1688,-3.1542,0.0,0.0,0.0,0.0,0.0,0.0,0.0,0.0,0.0,0.0,0.0,0.0,0.0,0.0,0.0,0.0,0.0,0.0,0.0,-4.4626,-4.4626,-4.4626,-4.4587,-4.4587,-4.4587,-4.4587,-4.4587,-4.4587,-4.4587,-4.4587,-4.4587,-4.4587,-4.4587,-4.4587,-4.4587,-4.4587,-4.4587,-4.4587,-4.4587,-4.4587,-4.4587,-4.4587,-4.4587,-4.4587,-4.4587,-4.4587,-4.4587,-4.4587,-4.4587,-4.4587,-4.4587,-4.4587,-4.4587,-4.4587,0.0,0.0,0.0,0.0,0.0,0.0,0.0,0.0,0.0,0.0,0.0,0.0,0.0,0.0,0.0,0.0,0.0,0.0,0.0,0.0,0.0,0.0,0.0,0.0,0.0,-1.7002,-1.7216,-1.7515,-1.7515,-1.7721,-1.8184,-1.9269,-2.0066,-2.0591,-2.1737,-2.2271,-2.231,-2.231,-2.231,-2.2446,-2.39,0.0,0.0,0.0,0.0,0.0,-2.6775,-2.6876,0.0,-2.7023,-2.712,-2.7184,0.0,0.0,0.0,0.0,-2.825,-2.9438,-2.9351,-3.0556,-3.1763,-3.1614,-3.1688,-3.18,0.0,0.0,0.0,0.0,0.0,0.0,0.0,0.0,0.0,0.0,0.0,0.0,0.0,0.0,0.0,0.0,0.0,-4.4181,0.0,-4.4587,-4.4587,-4.4587,-4.4587,-4.4587,-4.4587,-4.4587,-4.4587,-4.4587,-4.4587,-4.4587,-4.4587,-4.4587,-4.4587,-4.4587,-4.4587,-4.4587,-4.4587,-4.4587,-4.4587,-4.4587,-4.4587,-4.4587,-4.4587,-4.4587,-4.4587,-4.4587,-4.4587,-4.4587,-4.4587,-4.4587,-4.4587,-4.4587,0.0,0.0,0.0,0.0,0.0,0.0,0.0,0.0,0.0,0.0,0.0,0.0,0.0,0.0,0.0,0.0,0.0,0.0,0.0,0.0,0.0,0.0,0.0,0.0,-1.6789,-1.7002,-1.7265,-1.764,-1.764,-1.7762,-1.798,-1.9387,-2.0168,-2.0407,-2.1735,-2.231,-2.231,-2.231,-2.231,-2.2446,-2.39,0.0,0.0,0.0,0.0,0.0,0.0,0.0,0.0,-2.7087,-2.7201,-2.7299,-2.7299,0.0,0.0,0.0,0.0,0.0,-2.9472,-3.0592,-3.1726,-3.1576,-3.1688,-3.18,0.0,0.0,0.0,0.0,0.0,0.0,0.0,0.0,0.0,0.0,0.0,0.0,0.0,0.0,0.0,0.0,0.0,0.0,-4.4519,-4.4587,-4.4587,-4.4587,-4.4587,-4.4587,-4.4587,-4.4587,-4.4587,-4.4587,-4.4587,-4.4587,-4.4587,-4.4587,-4.4587,-4.4587,-4.4587,-4.4587,-4.4587,-4.4587,-4.4587,-4.4587,-4.4587,-4.4587,-4.4587,-4.4587,-4.4587,-4.4587,-4.4587,-4.4587,-4.4587,-4.4587,-4.4587,-4.4587,0.0,0.0,0.0,0.0,0.0,0.0,0.0,0.0,0.0,0.0,0.0,0.0,0.0,0.0,0.0,0.0,0.0,0.0,0.0,0.0,0.0,0.0,0.0,-1.6591,-1.6789,-1.7002,-1.751,-1.8369,-1.8369,-1.8743,-1.9487,-2.0391,-2.1227,-2.1972,-2.2209,-2.231,-2.231,-2.231,-2.231,-2.2446,-2.39,0.0,0.0,0.0,0.0,0.0,0.0,0.0,0.0,-2.7007,-2.7154,-2.7299,-2.7299,0.0,0.0,0.0,0.0,0.0,-2.9437,-3.0484,-3.1671,-3.1726,-3.1763,-3.18,0.0,0.0,0.0,0.0,0.0,0.0,0.0,0.0,0.0,0.0,0.0,0.0,0.0,0.0,0.0,0.0,0.0,-4.4451,-4.457,-4.4587,-4.4587,-4.4587,-4.4587,-4.4587,-4.4587,-4.4587,-4.4587,-4.4587,-4.4587,-4.4587,-4.4587,-4.4587,-4.4587,-4.4587,-4.4587,-4.4587,-4.4587,-4.4587,-4.4587,-4.4587,-4.4587,-4.4587,-4.4587,-4.4587,-4.4587,-4.4587,-4.4587,-4.4587,-4.4587,-4.4587,-4.4587,-4.4587,0.0,0.0,0.0,0.0,0.0,0.0,0.0,0.0,0.0,0.0,0.0,0.0,0.0,0.0,0.0,0.0,0.0,0.0,0.0,0.0,0.0,0.0,-1.6448,-1.6591,-1.6789,-1.7002,-1.756,-1.8493,-1.8493,-1.8934,-1.977,-2.0619,-2.1473,-2.231,-2.231,-2.231,-2.231,-2.231,-2.2547,-2.2987,0.0,0.0,0.0,0.0,0.0,0.0,0.0,0.0,0.0,0.0,-2.6794,-2.7201,-2.7282,0.0,0.0,0.0,0.0,0.0,-2.9455,-3.0556,-3.1709,-3.1709,-3.1671,-3.1651,0.0,0.0,0.0,0.0,0.0,0.0,0.0,0.0,0.0,0.0,0.0,0.0,0.0,0.0,-4.2392,0.0,0.0,-4.4113,-4.4536,-4.4587,-4.4587,-4.4587,-4.4587,-4.4587,-4.4587,-4.4587,-4.4587,-4.4587,-4.4587,-4.4587,-4.4587,-4.4587,-4.4587,-4.4587,-4.4587,-4.4587,-4.4587,-4.4587,-4.4587,-4.4587,-4.4587,-4.4587,-4.4587,-4.4587,-4.4587,-4.4587,-4.4587,-4.4587,-4.4587,-4.4587,-4.4587,-4.4587,0.0,0.0,0.0,0.0,0.0,0.0,0.0,0.0,0.0,0.0,0.0,0.0,0.0,0.0,0.0,0.0,0.0,0.0,0.0,0.0,-1.6191,-1.6501,-1.6512,-1.6659,-1.6866,-1.7027,-1.7642,-1.8757,-1.8757,-1.9256,-2.0261,-2.0938,-2.1653,-2.231,-2.231,-2.2412,-2.2564,-2.2564,-2.2958,-2.3667,0.0,0.0,0.0,0.0,0.0,0.0,0.0,0.0,0.0,0.0,0.0,0.0,0.0,0.0,0.0,-2.7299,-2.8213,-2.9282,-2.9455,-3.0471,-3.1485,-3.1582,0.0,0.0,-3.1517,0.0,0.0,0.0,0.0,0.0,0.0,0.0,0.0,0.0,0.0,0.0,-4.2209,-4.1953,-4.2377,-4.4483,-4.4101,-4.3927,-4.4519,-4.4587,-4.4587,-4.4587,-4.4587,-4.4587,-4.4587,-4.4587,-4.4587,-4.4587,-4.4587,-4.4587,-4.4587,-4.4587,-4.4587,-4.4587,-4.4587,-4.4587,-4.4587,-4.4587,-4.4587,-4.4587,-4.4587,-4.4587,-4.4587,-4.4587,-4.4587,-4.4587,-4.4587,-4.4587,-4.4587,-4.4587,-4.4587,-4.4587,0.0,0.0,0.0,0.0,0.0,0.0,0.0,0.0,0.0,0.0,0.0,0.0,0.0,0.0,0.0,0.0,0.0,0.0,0.0,0.0,-1.6163,-1.6501,-1.6617,-1.6825,-1.706,-1.7085,-1.7887,-1.9518,-1.9518,-2.0295,-2.1831,-2.2051,-2.2175,-2.231,-2.231,-2.2682,-2.3325,-2.3325,-2.3705,-2.4334,-2.4444,0.0,0.0,0.0,0.0,0.0,0.0,0.0,0.0,0.0,0.0,0.0,0.0,0.0,-2.7299,-2.7299,-2.7851,-2.8627,-2.9317,-3.004,-3.0759,-3.1445,0.0,0.0,-3.1555,0.0,0.0,0.0,0.0,0.0,0.0,0.0,0.0,0.0,0.0,-4.0696,-4.2136,0.0,-4.2848,-4.4439,-4.4519,-4.4519,-4.457,-4.4587,-4.4587,-4.4587,-4.4587,-4.4587,-4.4587,-4.4587,-4.4587,-4.4587,-4.4587,-4.4587,-4.4587,-4.4587,-4.4587,-4.4587,-4.4587,-4.4587,-4.4587,-4.4587,-4.4587,-4.4587,-4.4587,-4.4587,-4.4587,-4.4587,-4.4587,-4.4587,-4.4587,-4.4587,-4.4587,-4.4587,-4.4587,-4.4587,0.0,0.0,0.0,0.0,0.0,0.0,0.0,0.0,0.0,0.0,0.0,0.0,0.0,0.0,0.0,0.0,0.0,0.0,0.0,0.0,-1.6382,-1.6686,-1.685,-1.7052,-1.7345,-1.7345,-1.8079,-1.9601,-2.055,-2.1349,-2.1998,-2.2152,-2.2242,-2.2327,-2.2784,-2.311,-2.3367,-2.3883,-2.4146,-2.4273,-2.4444,-2.4492,0.0,0.0,0.0,0.0,0.0,0.0,0.0,0.0,-2.6533,0.0,0.0,0.0,-2.7282,-2.7201,-2.7767,-2.8558,-2.9299,-3.0005,-3.069,-3.1445,0.0,0.0,0.0,0.0,0.0,0.0,0.0,0.0,0.0,0.0,0.0,0.0,0.0,-4.0646,-4.2083,-4.2286,-4.2861,-4.4401,-4.4587,-4.4587,-4.4587,-4.4587,-4.4587,-4.4587,-4.4587,-4.4587,-4.4587,-4.4587,-4.4587,-4.4587,-4.4587,-4.4587,-4.4587,-4.4587,-4.4587,-4.4587,-4.4587,-4.4587,-4.4587,-4.4587,-4.4587,-4.4587,-4.4587,-4.4587,-4.4587,-4.4587,-4.4587,-4.4587,-4.4587,-4.4587,-4.4587,-4.4587,-4.4587,-4.4587,0.0,0.0,0.0,0.0,0.0,0.0,0.0,0.0,0.0,0.0,0.0,0.0,0.0,0.0,0.0,0.0,0.0,0.0,0.0,0.0,-1.6479,-1.6789,-1.7152,-1.751,-1.7806,-1.8038,-1.865,-1.9601,-2.1126,-2.1911,-2.1998,-2.2089,-2.2315,-2.2654,-2.3144,-2.3573,-2.3984,-2.4534,-2.4673,-2.4511,-2.4452,-2.4247,0.0,0.0,0.0,0.0,0.0,0.0,0.0,0.0,0.0,0.0,0.0,0.0,0.0,0.0,-2.7562,-2.8215,-2.923,-2.9816,-3.0417,0.0,0.0,0.0,0.0,0.0,0.0,0.0,0.0,0.0,0.0,0.0,0.0,0.0,-3.9799,-4.0595,-4.2083,-4.2286,-4.2861,-4.4401,-4.4587,-4.4587,-4.4587,-4.4587,-4.4587,-4.4587,-4.4587,-4.4587,-4.4587,-4.4587,-4.4587,-4.4587,-4.4587,-4.4587,-4.4587,-4.4587,-4.4587,-4.4587,-4.4587,-4.4587,-4.4587,-4.4587,-4.4587,-4.4587,-4.4587,-4.4587,-4.4587,-4.4587,-4.4587,-4.4587,-4.4587,-4.4587,-4.4587,-4.4587,-4.4587,-4.4587,0.0,0.0,0.0,0.0,0.0,0.0,0.0,0.0,0.0,0.0,0.0,0.0,0.0,0.0,0.0,0.0,0.0,0.0,0.0,-1.6166,-1.6398,-1.6805,-1.7503,-1.8103,-1.8509,-1.922,-1.9601,-1.9601,-2.1085,-2.1869,-2.1998,-2.1998,0.0,0.0,0.0,0.0,-2.5313,-2.5313,-2.5263,-2.5146,-2.4477,-2.3727,-2.2998,0.0,0.0,0.0,0.0,0.0,0.0,0.0,0.0,0.0,0.0,0.0,0.0,0.0,-2.7201,-2.7461,-2.9059,-2.9523,0.0,0.0,0.0,0.0,0.0,0.0,0.0,0.0,0.0,0.0,0.0,0.0,0.0,-4.0186,-4.0188,-4.0595,-4.2066,-4.2286,-4.2861,-4.4384,-4.4587,-4.4587,-4.4587,-4.4587,-4.4587,-4.4587,-4.4587,-4.4587,-4.4587,-4.4587,-4.4587,-4.4587,-4.4587,-4.4587,-4.4587,-4.4587,-4.4587,-4.4587,-4.4587,-4.4587,-4.4587,-4.4587,-4.4587,-4.4587,-4.4587,-4.4587,-4.4587,-4.4587,-4.4587,-4.4587,-4.4587,-4.4587,-4.4587,-4.4587,-4.4587,-4.4587,0.0,0.0,0.0,0.0,0.0,0.0,0.0,0.0,0.0,0.0,0.0,0.0,0.0,0.0,0.0,0.0,0.0,0.0,0.0,-1.6463,-1.6924,-1.7551,-1.8052,-1.8637,-1.9253,-2.0009,-2.0373,-2.0373,-2.1433,-2.1969,-2.1998,0.0,0.0,-2.3325,0.0,0.0,-2.5229,-2.533,-2.4996,-2.4365,-2.4261,-2.3742,-2.314,0.0,0.0,0.0,0.0,0.0,0.0,0.0,0.0,0.0,0.0,0.0,0.0,0.0,-2.7809,-2.8185,-2.9604,0.0,0.0,0.0,0.0,0.0,0.0,0.0,0.0,0.0,0.0,0.0,0.0,0.0,0.0,-4.0087,-4.0138,-4.0409,-4.139,-4.1965,-4.2658,-4.3639,-4.4248,-4.4587,-4.4587,-4.4587,-4.4587,-4.4587,-4.4587,-4.4587,-4.4587,-4.4587,-4.4587,-4.4587,-4.4587,-4.4587,-4.4587,-4.4587,-4.4587,-4.4587,-4.4587,-4.4587,-4.4587,-4.4587,-4.4587,-4.4587,-4.4587,-4.4587,-4.4587,-4.4587,-4.4587,-4.4587,-4.4587,-4.4587,-4.4587,-4.4587,-4.4587,-4.4587,0.0,0.0,0.0,0.0,0.0,0.0,0.0,0.0,0.0,0.0,0.0,0.0,0.0,0.0,0.0,0.0,0.0,0.0,0.0,0.0,-1.7322,-1.8146,-1.8672,-1.9381,-2.0287,-2.0759,-2.1032,-2.1118,-2.1666,-2.2091,0.0,0.0,-2.3502,-2.4074,0.0,-2.5396,-2.561,-2.5679,-2.5212,-2.4431,-2.4514,-2.4114,-2.3562,0.0,0.0,0.0,0.0,0.0,0.0,0.0,0.0,0.0,0.0,0.0,0.0,0.0,-2.8305,-2.8835,-2.9975,0.0,0.0,0.0,0.0,0.0,0.0,0.0,0.0,0.0,0.0,0.0,-3.9377,-3.9783,0.0,-4.007,-4.007,-4.0341,-4.1102,-4.1576,-4.2134,-4.2878,-4.3656,-4.4113,-4.4113,-4.4401,-4.4587,-4.4587,-4.4587,-4.4587,-4.4587,-4.4587,-4.4587,-4.4587,-4.4587,-4.4587,-4.4587,-4.4587,-4.4587,-4.4587,-4.4587,-4.4587,-4.4587,-4.4587,-4.4587,-4.4587,-4.4587,-4.4587,-4.4587,-4.4587,-4.4587,-4.4587,-4.4587,-4.4587,-4.4587,-4.4587,-4.4587,-4.4587,0.0,0.0,0.0,0.0,0.0,0.0,0.0,0.0,0.0,0.0,0.0,0.0,0.0,0.0,0.0,0.0,0.0,0.0,0.0,0.0,-1.7742,-1.8637,-1.9374,-2.0304,-2.1401,-2.1448,-2.1573,-2.1897,-2.1927,0.0,0.0,0.0,-2.393,-2.5196,0.0,-2.5643,-2.622,-2.6137,-2.5723,-2.511,-2.511,-2.4696,-2.4183,-2.4928,0.0,0.0,0.0,0.0,0.0,0.0,0.0,0.0,0.0,0.0,0.0,-2.8083,-2.8645,-2.9391,0.0,0.0,0.0,0.0,0.0,0.0,0.0,0.0,0.0,0.0,0.0,0.0,-3.9952,-4.007,-4.007,-4.007,-4.007,-4.0307,-4.1018,-4.117,-4.1457,-4.2117,-4.2861,-4.3318,-4.3318,-4.3956,-4.4412,-4.4412,-4.435,-4.4384,-4.4384,-4.4384,-4.4384,-4.4384,-4.4384,-4.4384,-4.4384,-4.4384,-4.4384,-4.4514,-4.4514,-4.4514,-4.4587,-4.4587,-4.4587,-4.4587,-4.4587,-4.4587,-4.4587,-4.4587,-4.4587,-4.4587,-4.4587,-4.4587,-4.4587,-4.4587,-4.4587,-4.4587,0.0,0.0,0.0,0.0,0.0,0.0,0.0,0.0,0.0,0.0,0.0,0.0,0.0,0.0,0.0,0.0,0.0,0.0,0.0,0.0,-1.8623,-1.9358,-2.0431,-2.1224,-2.1691,-2.1721,-2.2019,-2.2659,-2.2704,0.0,0.0,0.0,0.0,-2.5212,0.0,-2.6071,-2.617,-2.559,-2.5259,-2.511,-2.511,-2.5011,-2.4944,-2.5726,-2.6009,0.0,0.0,0.0,0.0,0.0,0.0,0.0,0.0,-2.7164,-2.7908,-2.8463,-2.9191,0.0,0.0,0.0,0.0,0.0,0.0,0.0,0.0,0.0,0.0,0.0,0.0,0.0,-4.0054,-4.007,-4.007,-4.007,-4.007,-4.0138,-4.029,-4.0832,-4.1271,-4.1424,-4.2083,-4.254,-4.254,-4.2629,-4.27,-4.27,-4.2643,-4.2567,-4.2567,-4.2567,-4.2567,-4.2567,-4.2567,-4.2567,-4.2567,-4.2567,-4.2909,-4.3562,-4.3562,-4.3948,-4.4587,-4.4587,-4.4587,-4.4587,-4.4587,-4.4587,-4.4587,-4.4587,-4.4587,-4.4587,-4.4587,-4.4587,-4.4587,-4.4587,-4.4587,-4.4587,0.0,0.0,0.0,0.0,0.0,0.0,0.0,0.0,0.0,0.0,0.0,0.0,0.0,0.0,0.0,0.0,0.0,0.0,0.0,0.0,0.0,0.0,-2.0556,-2.1215,-2.1937,-2.1937,-2.244,-2.3437,0.0,0.0,0.0,0.0,0.0,-2.5675,0.0,-2.622,-2.6187,-2.5806,-2.564,-2.564,-2.564,-2.564,-2.5673,-2.6073,-2.6222,-2.6203,-2.6222,0.0,0.0,0.0,0.0,0.0,0.0,0.0,-2.8774,-2.9139,-2.9816,-3.0527,0.0,0.0,0.0,0.0,0.0,0.0,0.0,0.0,0.0,0.0,0.0,-3.9952,-3.961,-3.9833,-3.9952,-3.961,-3.985,-3.9969,-3.961,-4.0187,-4.0543,-4.0127,-4.1079,-4.1639,-4.1285,-4.1548,-4.1559,-4.1173,-4.1074,-4.118,-4.1469,-4.1501,-4.1645,-4.1981,-4.1997,-4.1997,-4.1997,-4.1997,-4.2252,-4.2645,-4.2645,-4.3108,-4.4006,-4.4384,-4.4587,-4.4587,-4.4587,-4.4587,-4.4587,-4.4587,-4.4587,-4.4587,-4.4587,-4.4587,-4.4587,-4.4587,-4.4587,-4.4587,0.0,0.0,0.0,0.0,0.0,0.0,0.0,0.0,0.0,0.0,0.0,0.0,0.0,0.0,0.0,0.0,0.0,0.0,0.0,0.0,0.0,0.0,-2.0578,-2.1114,-2.2239,-2.239,-2.2996,0.0,0.0,0.0,0.0,0.0,0.0,-2.622,0.0,-2.622,-2.622,-2.622,-2.622,-2.622,-2.622,-2.6286,-2.6402,-2.6402,-2.6468,-2.6584,-2.6584,-2.6501,-2.6385,-2.646,0.0,0.0,0.0,0.0,-2.9694,-2.9694,-3.0229,-3.0871,0.0,0.0,0.0,0.0,0.0,0.0,0.0,0.0,0.0,0.0,0.0,-3.9833,-3.9032,-3.9558,-3.9782,-3.8854,-3.9385,-3.961,-3.8799,-3.9262,-3.9454,-3.8799,-3.981,-4.0371,-3.9775,-4.0206,-4.0307,-3.9617,-3.9545,-3.9817,-4.0357,-4.0388,-4.0642,-4.1164,-4.1179,-4.1243,-4.1354,-4.1354,-4.1482,-4.1804,-4.1933,-4.2458,-4.3306,-4.4064,-4.4457,-4.4587,-4.4587,-4.4587,-4.4587,-4.4587,-4.4587,-4.4587,-4.4587,-4.4587,-4.4587,-4.4587,-4.4587,-4.4587,0.0,0.0,0.0,0.0,0.0,0.0,0.0,0.0,0.0,0.0,0.0,0.0,0.0,0.0,0.0,0.0,0.0,0.0,-2.0119,0.0,0.0,-2.1471,-2.1748,-2.2202,-2.2955,-2.347,-2.3983,0.0,0.0,0.0,0.0,0.0,0.0,-2.622,0.0,0.0,-2.622,-2.622,-2.622,-2.622,-2.622,-2.6584,-2.7168,-2.7168,-2.7566,-2.8092,-2.8092,-2.7677,-2.7168,-2.7168,-2.7254,0.0,0.0,0.0,-2.9609,-2.9609,-3.0125,0.0,0.0,0.0,0.0,0.0,0.0,0.0,0.0,0.0,0.0,0.0,-3.8271,-3.9833,-3.9032,-3.9558,-3.9627,-3.8206,-3.858,-3.8799,-3.8035,-3.8035,-3.8092,-3.7978,-3.8116,-3.8253,-3.8123,-3.8081,-3.806,-3.7935,-3.7816,-3.7827,-3.785,-3.785,-3.7896,-3.7971,-3.7971,-3.8258,-3.8901,-3.8916,-3.9589,-4.0878,-4.1674,-4.2458,-4.3306,-4.3426,-4.3873,-4.4587,-4.4587,-4.4587,-4.4587,-4.4587,-4.4587,-4.4587,-4.4587,-4.4587,-4.4587,-4.4587,-4.4587,-4.4587,0.0,0.0,0.0,0.0,0.0,0.0,0.0,0.0,0.0,0.0,0.0,0.0,0.0,0.0,0.0,-1.9577,-1.9619,-1.9928,-2.0707,-2.1178,-2.1605,-2.2024,-2.2155,-2.2686,-2.3674,-2.3977,-2.4476,0.0,0.0,0.0,0.0,-2.6216,-2.6311,0.0,0.0,0.0,0.0,0.0,-2.6599,-2.68,-2.6562,-2.6896,-2.7457,-2.7355,-2.747,-2.7688,-2.7987,-2.7751,-2.7315,-2.7512,-2.7774,-2.7981,-2.7981,0.0,0.0,0.0,-3.007,0.0,0.0,0.0,0.0,0.0,0.0,0.0,0.0,0.0,0.0,0.0,-3.6492,-3.7679,-3.7676,-3.8264,-3.843,-3.7322,-3.779,-3.8019,-3.7263,-3.7515,-3.7632,-3.716,-3.7515,-3.7632,-3.7144,-3.7063,-3.6893,-3.6432,-3.636,-3.6507,-3.6881,-3.6896,-3.7045,-3.7404,-3.7404,-3.7539,-3.7838,-3.7838,-3.8181,-3.885,-3.9741,-4.0563,-4.1383,-4.1894,-4.3032,-4.4587,-4.4587,-4.4587,-4.4587,-4.4587,-4.4587,-4.4587,-4.4587,-4.4587,-4.4587,-4.4587,-4.4587,-4.4587,0.0,0.0,0.0,0.0,0.0,0.0,0.0,0.0,0.0,0.0,0.0,0.0,0.0,0.0,0.0,0.0,-2.04,-2.0704,-2.1286,-2.1956,-2.2363,-2.2548,-2.2624,-2.3163,-2.4205,-2.4372,0.0,0.0,0.0,0.0,-2.513,-2.6163,-2.6328,0.0,-2.6531,0.0,0.0,0.0,0.0,0.0,0.0,-2.7243,-2.7724,-2.7588,-2.7572,-2.7715,-2.8098,-2.8001,-2.7731,-2.7923,-2.822,-2.8485,-2.8458,-2.8894,0.0,0.0,0.0,0.0,0.0,0.0,0.0,0.0,0.0,0.0,0.0,0.0,0.0,0.0,-3.4727,-3.5347,-3.5832,-3.6829,-3.7308,-3.6415,-3.698,-3.7219,-3.6446,-3.6814,-3.6995,-3.6399,-3.6874,-3.6995,-3.6399,-3.6337,-3.6117,-3.5569,-3.5504,-3.5714,-3.6207,-3.6237,-3.6447,-3.6911,-3.6926,-3.7,-3.718,-3.733,-3.7404,-3.7404,-3.8035,-3.8774,-3.964,-4.0264,-4.1708,-4.3771,-4.4142,-4.4401,-4.4553,-4.4367,-4.4282,-4.4265,-4.4079,-4.3995,-4.3995,-4.3995,-4.3995,-4.3995,0.0,0.0,0.0,0.0,0.0,0.0,0.0,0.0,0.0,0.0,0.0,0.0,-1.8702,-1.9839,-2.0655,-2.073,-2.1355,-2.1795,-2.2018,-2.2217,-2.2578,-2.3225,-2.353,0.0,-2.4282,0.0,0.0,0.0,0.0,0.0,-2.4831,-2.5839,-2.6141,-2.5831,-2.6836,-2.7421,-2.7704,0.0,0.0,0.0,0.0,0.0,0.0,-2.8148,-2.8605,-2.9194,-2.9358,-2.9162,-2.8751,-2.848,-2.8597,-2.8799,-2.8501,-2.8894,-2.9515,0.0,0.0,0.0,0.0,0.0,0.0,0.0,0.0,0.0,0.0,0.0,0.0,-3.271,-3.32,-3.3609,-3.364,-3.541,-3.6564,-3.5691,-3.6165,-3.6384,-3.5668,-3.5619,-3.5619,-3.5554,-3.5619,-3.5619,-3.5554,-3.5554,-3.5569,-3.5504,-3.5504,-3.5519,-3.5549,-3.5549,-3.5564,-3.5609,-3.5609,-3.5908,-3.6537,-3.712,-3.7404,-3.7404,-3.7473,-3.7901,-3.8774,-3.8774,-3.975,-4.1451,-4.2875,-4.391,-4.4519,-4.3792,-4.347,-4.3403,-4.2692,-4.2405,-4.2405,-4.2405,-4.2405,-4.2405,0.0,0.0,0.0,0.0,0.0,0.0,0.0,0.0,0.0,0.0,0.0,0.0,0.0,-2.0797,-2.1374,-2.1422,-2.2118,-2.2576,-2.2561,-2.3067,-2.3498,-2.3743,-2.3963,-2.4153,-2.4369,0.0,0.0,0.0,0.0,-2.4695,-2.4523,-2.5538,-2.5827,-2.5548,-2.6978,-2.7576,-2.7474,-2.7566,0.0,0.0,0.0,0.0,0.0,0.0,0.0,0.0,-2.8842,0.0,-2.8451,-2.8573,-2.8589,-2.8575,-2.8436,-2.8311,-2.8185,-2.8397,-2.8697,0.0,0.0,0.0,0.0,0.0,0.0,0.0,0.0,0.0,0.0,-3.1814,-3.2091,-3.2364,-3.2804,-3.3829,-3.4728,-3.4853,-3.5055,-3.5332,-3.5509,-3.5504,-3.5504,-3.5504,-3.5504,-3.5504,-3.5504,-3.5504,-3.5504,-3.5504,-3.5504,-3.5504,-3.5504,-3.5504,-3.5504,-3.5504,-3.5504,-3.5624,-3.5848,-3.6073,-3.6193,-3.6193,-3.6193,-3.6591,-3.7343,-3.7343,-3.8483,-4.0496,-4.1056,-4.1992,-4.3081,-4.2811,-4.2692,-4.2675,-4.2388,-4.2286,-4.2286,-4.2286,-4.2286,-4.2286,0.0,0.0,0.0,0.0,0.0,0.0,0.0,0.0,0.0,0.0,0.0,0.0,0.0,0.0,-2.2154,-2.2374,-2.2918,-2.3232,-2.3134,-2.3682,-2.3982,-2.3982,-2.4124,-2.425,-2.4343,0.0,0.0,0.0,0.0,0.0,0.0,-2.5481,-2.5792,-2.5379,-2.696,-2.7588,0.0,0.0,0.0,-2.8545,0.0,0.0,-2.8301,0.0,0.0,0.0,0.0,0.0,-2.8398,-2.8431,-2.8446,-2.8429,-2.8348,-2.804,-2.7735,-2.775,-2.8202,0.0,0.0,0.0,0.0,0.0,0.0,0.0,0.0,0.0,-3.0443,-3.1046,-3.1317,-3.1616,-3.2108,-3.2542,-3.3125,-3.4008,-3.4143,-3.4382,-3.507,-3.516,-3.525,-3.5474,-3.5504,-3.5504,-3.5504,-3.5504,-3.5504,-3.5504,-3.5504,-3.5504,-3.5504,-3.5504,-3.5504,-3.5504,-3.5504,-3.5504,-3.5504,-3.5504,-3.5504,-3.5504,-3.5504,-3.5782,-3.6228,-3.6228,-3.723,-3.8958,-3.9202,-4.0448,-4.2269,-4.2016,-4.1931,-4.1897,-4.1644,-4.1542,-4.1542,-4.1542,-4.1542,-4.1542,0.0,0.0,0.0,0.0,0.0,0.0,0.0,0.0,0.0,0.0,0.0,0.0,0.0,0.0,0.0,-2.355,-2.3739,-2.3797,-2.3797,-2.3925,-2.3997,-2.4013,-2.4155,-2.4212,-2.4227,0.0,0.0,0.0,0.0,0.0,0.0,0.0,-2.5874,-2.5349,-2.6718,-2.7534,-2.7866,0.0,-2.8608,-2.8858,0.0,-2.8301,-2.802,0.0,0.0,0.0,-2.8168,-2.8429,-2.8622,-2.8168,-2.8235,-2.8463,0.0,-2.8284,-2.8273,-2.7596,-2.7873,0.0,0.0,0.0,0.0,0.0,0.0,0.0,0.0,0.0,-2.9907,-3.0428,-3.1031,-3.1509,-3.1482,-3.1482,-3.1958,-3.323,-3.3455,-3.3694,-3.4352,-3.4442,-3.4696,-3.537,-3.5444,-3.5459,-3.5474,-3.5474,-3.5489,-3.5504,-3.5504,-3.5504,-3.5504,-3.5504,-3.5504,-3.5504,-3.5504,-3.5504,-3.5504,-3.5504,-3.5504,-3.5504,-3.5504,-3.5504,-3.5504,-3.5504,-3.5894,-3.6661,-3.7456,-3.9437,-4.2168,-4.1457,-4.117,-4.1102,-4.0358,-4.007,-4.007,-4.007,-4.007,-4.007,0.0,0.0,0.0,0.0,0.0,0.0,0.0,0.0,0.0,0.0,0.0,0.0,-2.2135,-2.2812,-2.3387,-2.358,-2.3638,-2.3653,-2.3653,-2.3696,-2.3921,-2.4417,-2.4535,-2.4821,-2.5198,0.0,0.0,0.0,0.0,0.0,0.0,0.0,0.0,0.0,-2.5503,-2.5931,-2.6096,-2.7736,0.0,-2.8525,-2.8235,-2.8103,0.0,0.0,0.0,0.0,0.0,-2.8688,-2.8738,-2.8601,-2.8434,-2.8192,0.0,0.0,0.0,0.0,0.0,0.0,-2.8411,0.0,0.0,0.0,0.0,0.0,0.0,0.0,-2.9509,-3.0463,-3.0784,-3.1069,-3.145,-3.1482,-3.1601,-3.2018,-3.2482,-3.3021,-3.3679,-3.3769,-3.3844,-3.4023,-3.4053,-3.4233,-3.4711,-3.4756,-3.4966,-3.5474,-3.5504,-3.5504,-3.5504,-3.5504,-3.5504,-3.5504,-3.5504,-3.5504,-3.5504,-3.5504,-3.5504,-3.5504,-3.5504,-3.5504,-3.5504,-3.5504,-3.5894,-3.66,-3.6859,-3.8056,-3.9844,-4.0237,-4.0392,-4.0358,-4.0155,-4.007,-4.007,-4.007,-4.007,-4.007,0.0,0.0,0.0,0.0,0.0,0.0,0.0,0.0,0.0,0.0,0.0,0.0,-2.2801,-2.3228,-2.3509,-2.3566,-2.3551,-2.3551,-2.348,-2.3835,-2.4164,-2.4537,-2.5002,-2.5364,0.0,0.0,0.0,0.0,0.0,0.0,0.0,0.0,0.0,0.0,0.0,0.0,0.0,0.0,0.0,0.0,-2.7692,0.0,0.0,-2.8157,-2.8402,0.0,-2.9117,-2.9222,-2.9207,-2.9155,-2.8873,-2.8396,-2.7498,0.0,0.0,0.0,0.0,0.0,0.0,0.0,0.0,0.0,0.0,0.0,-2.8641,-2.886,-2.9182,-2.9726,-3.0258,-3.0683,-3.1031,-3.1345,-3.1482,-3.1482,-3.1854,-3.2332,-3.2991,-3.308,-3.3185,-3.3469,-3.3499,-3.3649,-3.4023,-3.4068,-3.4233,-3.4637,-3.4666,-3.4786,-3.5055,-3.5355,-3.5504,-3.5504,-3.5504,-3.5504,-3.5504,-3.5504,-3.5504,-3.5504,-3.5504,-3.5504,-3.5504,-3.5504,-3.5718,-3.6165,-3.6446,-3.7306,-3.8525,-3.9262,-3.9782,-4.007,-4.007,-4.007,-4.007,-4.007,-4.007,-4.007,0.0,0.0,0.0,0.0,0.0,0.0,0.0,0.0,0.0,0.0,-2.2849,-2.3319,-2.3466,-2.3466,-2.3466,-2.3466,-2.3523,-2.348,-2.3319,-2.4015,-2.4492,-2.4579,-2.5315,-2.5783,0.0,0.0,0.0,0.0,0.0,0.0,0.0,0.0,0.0,0.0,0.0,0.0,0.0,0.0,0.0,-2.7349,-2.7142,-2.747,0.0,0.0,-2.8876,-2.9071,-2.9636,-2.9862,-2.9847,-2.9663,-2.9403,-2.8849,-2.764,-2.7786,0.0,0.0,-2.7934,0.0,0.0,0.0,0.0,0.0,-2.8396,0.0,-2.8118,-2.8525,-2.8864,-2.8681,-2.9559,-3.0368,-3.0387,-3.0956,-3.142,-3.142,-3.148,-3.1734,-3.2317,-3.2407,-3.2617,-3.3215,-3.3275,-3.3305,-3.338,-3.338,-3.3425,-3.3484,-3.3499,-3.3754,-3.4337,-3.5011,-3.5385,-3.5385,-3.5474,-3.5504,-3.5504,-3.5504,-3.5504,-3.5504,-3.5504,-3.5504,-3.5504,-3.5504,-3.5504,-3.5569,-3.6165,-3.698,-3.7863,-3.8525,-3.9315,-4.007,-4.007,-4.007,-4.007,-4.007,-4.007,-4.007,-1.8053,0.0,0.0,0.0,0.0,0.0,0.0,0.0,0.0,0.0,0.0,0.0,0.0,-2.3246,-2.3201,-2.3319,-2.3363,-2.3348,-2.3319,-2.3437,-2.4029,-2.5018,-2.5242,-2.5804,-2.687,0.0,0.0,0.0,0.0,0.0,0.0,0.0,0.0,0.0,0.0,0.0,0.0,0.0,0.0,-2.7111,-2.7497,-2.8102,-2.8773,-2.8703,-2.9289,-3.0203,-3.0338,-3.0383,-3.0308,-2.9922,-2.9735,-2.9531,-2.8956,-2.8789,-2.8789,-2.8363,0.0,0.0,0.0,0.0,0.0,-2.8186,-2.8235,0.0,-2.8299,-2.8406,-2.8602,-2.8849,-2.9204,-2.9538,-2.99,-3.0588,-3.1082,-3.1082,-3.1479,-3.1715,-3.1704,-3.1676,-3.1764,-3.1898,-3.1913,-3.2123,-3.2647,-3.2706,-3.2931,-3.3455,-3.3499,-3.3559,-3.3679,-3.4322,-3.4681,-3.4681,-3.522,-3.5504,-3.5504,-3.5504,-3.5504,-3.5504,-3.5504,-3.5504,-3.5504,-3.5504,-3.5504,-3.5504,-3.5668,-3.6477,-3.7806,-3.7978,-3.8832,-4.007,-4.007,-4.007,-4.007,-4.007,-4.007,-4.007,-1.8282,0.0,0.0,0.0,0.0,0.0,0.0,0.0,0.0,0.0,0.0,0.0,0.0,0.0,-2.4078,-2.4156,-2.4217,-2.4202,-2.4063,-2.4511,-2.5029,-2.5565,-2.5953,-2.6503,-2.7167,-2.7284,0.0,0.0,0.0,0.0,0.0,0.0,0.0,0.0,0.0,0.0,0.0,0.0,-2.6801,-2.7519,-2.7357,0.0,-2.8934,-2.9072,-2.9684,-3.0552,-3.0896,-3.1016,-3.0911,-3.0323,-3.0277,-3.028,-2.9667,-2.9331,-2.9032,-2.8763,-2.8377,-2.8005,-2.8103,-2.8054,-2.802,-2.8103,-2.8103,0.0,0.0,-2.8103,-2.8145,-2.8379,-2.8662,-2.8994,-2.9357,-3.0219,-3.094,-3.0995,-3.146,-3.1727,-3.167,-3.1539,-3.1482,-3.1482,-3.1482,-3.1601,-3.1988,-3.2018,-3.2153,-3.2497,-3.2826,-3.3006,-3.3006,-3.3634,-3.4128,-3.4472,-3.4816,-3.516,-3.5504,-3.5504,-3.5504,-3.5504,-3.5504,-3.5504,-3.5504,-3.5504,-3.5504,-3.5504,-3.5504,-3.6133,-3.7203,-3.7203,-3.8117,-3.9542,-3.9952,-4.007,-4.007,-4.007,-4.007,-4.007,-1.8518,0.0,0.0,0.0,0.0,0.0,0.0,0.0,0.0,0.0,0.0,0.0,0.0,0.0,0.0,0.0,-2.514,-2.5091,-2.4883,-2.5575,-2.5977,-2.5944,-2.6593,-2.6997,-2.713,-2.713,0.0,0.0,0.0,0.0,0.0,0.0,0.0,0.0,0.0,0.0,0.0,0.0,0.0,-2.8006,0.0,-2.7911,-2.9056,-2.9559,-3.0163,-3.0776,-3.1345,-3.1482,-3.145,-3.0896,-3.0865,-3.0849,-3.0265,-2.9735,-2.9291,-2.9307,-2.8733,-2.8102,-2.8202,-2.8061,-2.7905,-2.7955,-2.7955,-2.7955,0.0,0.0,0.0,-2.784,-2.8177,0.0,0.0,0.0,0.0,-3.063,-3.1293,-3.1739,-3.1618,-3.1522,-3.1539,-3.1539,-3.1539,-3.1539,-3.1539,-3.1539,-3.1539,-3.1482,-3.2033,-3.2332,-3.2317,-3.2946,-3.3544,-3.4083,-3.4218,-3.4622,-3.5295,-3.531,-3.537,-3.5504,-3.5504,-3.5504,-3.5504,-3.5504,-3.5504,-3.5504,-3.5504,-3.5958,-3.6615,-3.6615,-3.7408,-3.8745,-3.9558,-3.9952,-4.007,-4.007,-4.007,-4.007,-1.9623,-1.9788,0.0,0.0,0.0,0.0,0.0,0.0,0.0,0.0,0.0,0.0,0.0,0.0,0.0,0.0,0.0,-2.525,-2.5091,-2.5165,0.0,-2.5814,-2.5901,-2.6236,-2.6817,-2.6951,-2.7003,0.0,0.0,0.0,0.0,0.0,0.0,0.0,-2.5634,0.0,0.0,0.0,-2.7859,0.0,-2.8397,-2.8922,0.0,-3.0218,-3.0821,-3.1377,-3.1452,-3.1482,-3.1524,-3.1637,-3.1257,-3.08,-3.0997,-3.0418,-2.9796,-3.0149,-2.9416,-2.8591,-2.8849,-2.8293,-2.7675,-2.779,-2.784,-2.784,-2.7955,0.0,-2.7955,-2.7955,0.0,-2.821,-2.8126,0.0,0.0,-2.9325,-3.0688,-3.1573,-3.1026,-3.1279,-3.1597,-3.1727,-3.1597,-3.1597,-3.1727,-3.1784,-3.167,-3.1539,-3.173,-3.1775,-3.1644,-3.2273,-3.2662,-3.2736,-3.3305,-3.3918,-3.4592,-3.4592,-3.4906,-3.5504,-3.5504,-3.5504,-3.5504,-3.5504,-3.5504,-3.5504,-3.5504,-3.5958,-3.6615,-3.6615,-3.7144,-3.7978,-3.8745,-3.9489,-4.007,-4.007,-4.007,-4.007,-1.9798,-1.9862,0.0,0.0,0.0,0.0,0.0,0.0,0.0,0.0,0.0,0.0,0.0,0.0,0.0,0.0,0.0,-2.6184,-2.6044,-2.6016,0.0,-2.6373,-2.6358,-2.6489,-2.6779,-2.6846,-2.6899,0.0,-2.6937,0.0,0.0,0.0,0.0,0.0,-2.6411,0.0,-2.7365,0.0,-2.8137,0.0,0.0,-2.9784,-3.0108,-3.0417,-3.0926,-3.1482,-3.1482,-3.1482,-3.1539,-3.1597,-3.1474,-3.1347,-3.1403,-3.0951,-3.0407,-3.0446,-2.987,-2.9214,-2.932,-2.9057,-2.8794,-2.8847,-2.8561,-2.8381,-2.8824,-2.8613,-2.8393,-2.8429,0.0,0.0,0.0,0.0,0.0,0.0,-3.0038,-3.0643,-3.041,-3.0443,-3.0814,-3.1709,-3.1727,-3.1727,-3.1799,-3.1799,-3.1727,-3.1539,-3.167,-3.1727,-3.1539,-3.1794,-3.2123,-3.2497,-3.2781,-3.3245,-3.3903,-3.4292,-3.4622,-3.4906,-3.531,-3.5504,-3.5504,-3.5504,-3.5504,-3.5504,-3.5504,-3.5668,-3.5943,-3.5943,-3.6399,-3.7144,-3.7408,-3.8342,-3.9368,-3.9368,-3.9731,-4.007,-2.0238,0.0,0.0,0.0,0.0,0.0,0.0,0.0,0.0,0.0,0.0,0.0,-2.5458,-2.6259,0.0,0.0,-2.6854,-2.6864,-2.6787,-2.6816,-2.6792,-2.6814,-2.6737,-2.6705,-2.6759,-2.664,-2.6674,0.0,0.0,0.0,0.0,0.0,0.0,0.0,0.0,-2.7402,-2.761,0.0,-2.8693,-2.8946,-2.9967,-3.0473,-3.058,-3.0735,-3.1106,-3.1482,-3.1482,-3.1482,-3.1539,-3.1539,-3.1534,-3.1528,-3.1595,-3.1246,-3.079,-3.09,-3.0398,-2.9834,-2.9888,-2.9768,-2.9579,-2.9579,-2.922,-2.8996,-2.9475,-2.9205,-2.8914,-2.9071,-2.9019,0.0,0.0,0.0,-2.9003,-2.8814,0.0,-2.9841,-2.9645,-2.9689,-3.0177,-3.1377,-3.1679,-3.1784,-3.1841,-3.1841,-3.1784,-3.1597,-3.1784,-3.1784,-3.1539,-3.1482,-3.1691,-3.2228,-3.2243,-3.2557,-3.3215,-3.3709,-3.4128,-3.4487,-3.4981,-3.5325,-3.5504,-3.5504,-3.5504,-3.5504,-3.5504,-3.5504,-3.5504,-3.5504,-3.5846,-3.6275,-3.6275,-3.7144,-3.8325,-3.8728,-3.9262,-3.9782,-2.133,-2.1004,0.0,0.0,0.0,0.0,0.0,0.0,0.0,0.0,0.0,0.0,0.0,0.0,0.0,0.0,-2.7047,-2.7047,-2.7047,-2.712,-2.7001,-2.6895,-2.651,-2.6438,-2.6722,-2.6313,-2.634,0.0,0.0,0.0,0.0,0.0,0.0,0.0,0.0,-2.7354,-2.8037,-2.8926,-2.9674,-3.0253,-3.0436,-3.0783,-3.1248,-3.1437,-3.1452,-3.1482,-3.1482,-3.1482,-3.1539,-3.1727,-3.1347,-3.0895,-3.1728,-3.1399,-3.088,-3.1713,-3.1242,-3.0533,-3.0729,-3.0223,-2.9579,-2.9579,-2.9564,-2.9549,-2.9579,-2.9564,-2.9619,-2.9726,-2.978,-2.9569,-2.8876,-2.9313,-2.929,-2.7865,-2.8764,0.0,0.0,-2.9175,-2.9943,-3.0714,-3.1377,-3.1841,-3.1996,-3.1996,-3.194,-3.1784,-3.194,-3.1883,-3.1539,-3.1482,-3.1482,-3.1511,-3.1511,-3.1884,-3.2542,-3.2557,-3.3215,-3.4472,-3.4502,-3.4861,-3.5504,-3.5504,-3.5504,-3.5504,-3.5504,-3.5504,-3.5504,-3.5504,-3.5504,-3.5569,-3.5569,-3.6006,-3.6828,-3.8342,-3.8908,-3.9032,0.0,0.0,0.0,0.0,0.0,0.0,0.0,-2.3023,0.0,0.0,-2.4802,0.0,0.0,-2.6716,-2.7187,-2.7285,-2.7681,-2.7786,-2.7453,-2.7464,-2.7256,-2.693,-2.685,-2.6665,-2.6279,-2.654,-2.6411,0.0,0.0,0.0,0.0,0.0,0.0,0.0,0.0,-2.7129,0.0,0.0,0.0,0.0,0.0,-3.0216,-3.0524,-3.1146,-3.1351,-3.1409,-3.1467,-3.1482,-3.1539,-3.1597,-3.1447,-3.1282,-3.158,-3.1489,-3.1297,-3.158,-3.1432,-3.1195,-3.1252,-3.1031,-3.0881,-3.0881,-3.0522,-3.0313,-3.0776,-3.0522,-3.0193,-3.0248,-3.0248,-2.9918,-2.8839,-2.8839,-2.8741,-2.7876,-2.8117,-2.8342,0.0,-2.8554,-2.9064,-2.9418,-3.0552,-3.1288,-3.1329,-3.1738,-3.194,-3.1784,-3.1841,-3.1784,-3.1539,-3.1482,-3.1482,-3.1482,-3.1482,-3.1586,-3.1869,-3.2302,-3.2961,-3.3829,-3.4262,-3.4846,-3.5504,-3.5504,-3.5504,-3.5504,-3.5504,-3.5504,-3.5504,-3.5504,-3.5504,-3.5504,-3.5504,-3.5668,-3.6006,-3.7024,-3.8044,-3.9032,-2.2033,0.0,0.0,0.0,0.0,0.0,0.0,-2.362,-2.4236,0.0,-2.5283,-2.5981,-2.627,-2.7037,-2.7618,-2.7713,-2.8066,-2.8239,-2.8014,-2.7906,-2.7693,-2.7267,-2.7126,-2.6787,-2.6196,-2.6311,-2.6254,-2.5947,0.0,-2.6378,0.0,0.0,0.0,0.0,0.0,0.0,-2.7161,0.0,-2.8172,0.0,0.0,-2.9721,-3.0043,-3.0614,-3.0933,-3.1143,-3.118,-3.1192,-3.1192,-3.1192,-3.1047,-3.0918,-3.0918,-3.0758,-3.0584,-3.0584,-3.0837,-3.1087,-3.1087,-3.1278,-3.1409,-3.1161,-3.0951,-3.0872,-3.1057,-3.0936,-3.081,-3.0624,-3.0753,-3.0481,-2.9258,-2.8994,-2.8779,-2.8156,-2.7891,-2.774,0.0,-2.8015,-2.8284,-2.8372,-2.9614,-3.0628,-3.098,-3.1389,-3.1682,-3.1883,-3.1898,-3.1784,-3.1597,-3.1539,-3.1482,-3.1482,-3.1482,-3.1482,-3.1482,-3.1958,-3.2617,-3.3499,-3.3918,-3.4607,-3.5504,-3.5504,-3.5504,-3.5504,-3.5504,-3.5504,-3.5504,-3.5504,-3.5504,-3.5504,-3.5504,-3.5504,-3.5619,-3.6337,-3.7584,-3.8962,-2.3025,0.0,0.0,0.0,-2.2836,0.0,-2.3916,-2.4141,-2.4418,-2.5,-2.5663,-2.6355,-2.6969,-2.7379,-2.7784,-2.8341,-2.8258,-2.8331,-2.8728,-2.8524,-2.8282,-2.7921,-2.7357,-2.6848,-2.6492,-2.5849,-2.5942,-2.6829,0.0,0.0,0.0,0.0,0.0,0.0,-2.6849,0.0,-2.723,-2.8278,-2.8759,-2.8876,-2.8967,-2.9352,-2.9824,-2.9893,-3.0285,-3.0729,-3.0671,-3.0596,-3.0596,-3.0596,-3.0292,-2.9811,-2.9811,-2.949,-2.9085,-2.9058,-2.9623,-3.0251,-3.0269,-3.0777,-3.1219,-3.045,-3.0837,-3.1161,-3.0389,-3.0837,-3.1219,-3.0777,-3.1087,-3.1026,-3.0001,-2.9651,-2.9301,-2.8697,-2.8023,-2.7625,-2.7625,-2.7625,-2.7625,-2.7625,-2.8712,-2.9853,-3.0773,-3.0964,-3.1253,-3.189,-3.1981,-3.194,-3.1784,-3.1597,-3.1482,-3.1482,-3.1482,-3.1482,-3.1482,-3.1482,-3.2183,-3.344,-3.3484,-3.4173,-3.5459,-3.5489,-3.5504,-3.5504,-3.5504,-3.5504,-3.5504,-3.5504,-3.5504,-3.5504,-3.5504,-3.5504,-3.5619,-3.6337,-3.7526,-3.8799,-2.3053,-2.3477,-2.374,0.0,-2.369,-2.3828,-2.3979,-2.4343,-2.501,-2.598,-2.6299,-2.6754,-2.7725,-2.8245,-2.8635,-2.8787,-2.9114,-2.9252,-2.9096,-2.8997,-2.8768,-2.8295,-2.7851,-2.7276,-2.6646,-2.6647,-2.6387,-2.5847,0.0,0.0,-2.6634,0.0,0.0,0.0,0.0,0.0,-2.6643,-2.727,-2.7557,-2.7549,-2.8358,-2.8826,-2.8998,-2.9724,-3.0055,-3.0214,-3.0515,-3.0596,-3.0596,-3.0596,-3.0499,-3.0362,-3.0362,-3.0333,-3.0113,-2.9738,-2.973,-2.9826,-2.9443,-2.9504,-2.9566,-2.938,-2.9504,-2.9566,-2.938,-2.9504,-2.9628,-2.9504,-2.9566,-2.9567,-2.9448,-2.8986,-2.8656,-2.8591,-2.8023,-2.7625,-2.7625,-2.7625,-2.7625,-2.7625,-2.7874,-2.8441,-2.9275,-3.0295,-3.0945,-3.1112,-3.1426,-3.1597,-3.1597,-3.1539,-3.1482,-3.1482,-3.1482,-3.1482,-3.1482,-3.1482,-3.1943,-3.2766,-3.326,-3.3933,-3.4756,-3.5265,-3.5504,-3.5504,-3.5504,-3.5504,-3.5504,-3.5504,-3.5504,-3.5504,-3.5504,-3.5504,-3.5619,-3.6337,-3.6843,-3.735,-2.3866,-2.4142,0.0,-2.4356,-2.4757,-2.5071,-2.5071,-2.5335,-2.5937,-2.703,-2.7394,-2.777,-2.8398,-2.8963,-2.9302,-2.9302,-2.9603,-2.9718,-2.9606,-2.9517,-2.9277,-2.8781,-2.8451,-2.802,-2.7321,-2.7056,-2.6791,-2.6528,0.0,0.0,-2.6591,0.0,0.0,0.0,0.0,-2.6422,0.0,-2.6804,-2.71,-2.7396,-2.7911,-2.8477,0.0,-2.9473,-2.9738,-2.9918,-3.0144,-3.023,-3.023,-3.023,-3.0045,-2.9834,-2.9834,-2.9733,-2.9455,-2.9138,-2.9306,-2.9565,-2.9227,-2.9272,-2.9261,-2.8858,-2.8862,-2.8876,-2.8492,-2.8748,-2.8939,-2.8762,-2.8889,-2.8969,-2.8884,-2.8805,-2.8682,-2.8636,-2.8278,-2.7919,-2.767,-2.7829,-2.8023,-2.8023,-2.8278,-2.8644,-2.9087,-2.99,-3.0633,-3.1166,-3.1501,-3.1597,-3.1597,-3.1539,-3.1482,-3.1482,-3.1597,-3.1597,-3.1482,-3.1597,-3.1927,-3.2527,-3.3185,-3.3844,-3.4502,-3.519,-3.5504,-3.5504,-3.5504,-3.5504,-3.5504,-3.5504,-3.5504,-3.5504,-3.5504,-3.5504,-3.5554,-3.5943,-3.6337,-3.6722,-2.482,0.0,0.0,0.0,-2.5887,-2.6615,-2.6766,-2.6716,-2.7042,-2.8084,-2.8637,-2.895,-2.9038,-2.949,-2.9792,-2.9792,-2.9792,-2.9869,-3.0088,-2.9856,-2.9642,-2.9264,-2.9038,-2.8699,-2.8222,-2.7334,-2.7201,-2.7748,0.0,0.0,0.0,0.0,0.0,0.0,0.0,0.0,0.0,-2.6713,-2.7169,-2.7818,-2.7723,-2.8312,-2.9212,-2.9301,-2.9492,-2.9792,-2.9792,-2.9792,-2.9792,-2.9792,-2.9453,-2.9038,-2.9038,-2.8712,-2.831,-2.8235,-2.8754,-2.9345,-2.928,-2.9426,-2.9429,-2.8605,-2.8638,-2.8614,-2.7855,-2.817,-2.857,-2.8157,-2.839,-2.857,-2.8274,-2.8767,-2.9059,-2.8532,-2.8447,-2.824,-2.7632,-2.7994,0.0,0.0,-2.9059,0.0,-2.9699,-2.9793,-3.0383,-3.1558,-3.1739,-3.1727,-3.1727,-3.1597,-3.1482,-3.1482,-3.167,-3.167,-3.1482,-3.167,-3.2,-3.2527,-3.3185,-3.3844,-3.4502,-3.519,-3.5504,-3.5504,-3.5504,-3.5504,-3.5504,-3.5504,-3.5504,-3.5504,-3.5504,-3.5504,-3.5504,-3.5504,-3.5894,-3.6508,-2.4755,0.0,0.0,0.0,-2.6703,-2.7444,-2.836,-2.8109,-2.8047,-2.8699,-2.8875,-2.9114,-2.9591,-2.9729,-2.9792,-2.9792,-2.9792,-2.9792,-2.9869,-2.9792,-2.9741,-2.9718,-2.9176,-2.8888,-2.8787,-2.8306,-2.7944,-2.7659,-2.7156,0.0,0.0,0.0,0.0,0.0,0.0,0.0,-2.7126,-2.7162,0.0,-2.7857,-2.8142,-2.8654,-2.9263,-2.9606,-2.9704,-2.9792,-2.9792,-2.9792,-2.9792,-2.9792,-2.9729,-2.9641,-2.9641,-2.9578,-2.9402,-2.8925,-2.8849,-2.8897,-2.8429,-2.8371,-2.8367,-2.8223,-2.7875,-2.7538,-2.7399,-2.7181,-2.6905,-2.685,-2.685,-2.7108,-2.7683,-2.8255,-2.8426,-2.7852,-2.7797,-2.7611,-2.7153,-2.7223,-2.7539,0.0,-2.8438,-2.8995,-3.0227,-3.0342,-3.0488,-3.0728,-3.1225,-3.1539,-3.1539,-3.1539,-3.1482,-3.1482,-3.1539,-3.1539,-3.1482,-3.1539,-3.1869,-3.2527,-3.3185,-3.3844,-3.4502,-3.519,-3.5504,-3.5504,-3.5504,-3.5504,-3.5504,-3.5504,-3.5504,-3.5504,-3.5504,-3.5504,-3.5504,-3.5504,-3.5554,-3.5782,-2.6151,0.0,0.0,0.0,-2.7344,-2.8084,-2.9202,-2.939,-2.9503,-2.9767,-2.9804,-3.0018,-3.057,-3.062,-3.062,-3.062,-3.062,-3.0507,-3.0231,-3.0218,-3.0093,-2.9804,-2.9528,-2.9377,-2.9377,-2.89,-2.8644,-2.8584,-2.7844,-2.7343,0.0,0.0,0.0,0.0,0.0,-2.7491,0.0,0.0,-2.7864,-2.8499,-2.8644,-2.9025,-2.9542,-2.9768,-2.9792,-2.9792,-2.9792,-2.9792,-2.9792,-2.9792,-2.9792,-2.9792,-2.9792,-2.9792,-2.9741,-2.9453,-2.9377,-2.9315,-2.9051,-2.8762,-2.8536,-2.8536,-2.8109,-2.7708,-2.7708,-2.7281,-2.6892,-2.6892,-2.6653,-2.6782,-2.7537,-2.8082,-2.8271,-2.7848,-2.7931,-2.7806,-2.7088,-2.7322,-2.7649,-2.8082,0.0,-2.9285,-3.0324,-3.0542,-3.073,-3.0989,-3.1287,-3.1482,-3.1482,-3.1482,-3.1482,-3.1482,-3.1597,-3.1597,-3.1482,-3.1597,-3.1927,-3.2527,-3.3185,-3.3844,-3.4502,-3.519,-3.5504,-3.5504,-3.5504,-3.5504,-3.5504,-3.5504,-3.5504,-3.5504,-3.5504,-3.5504,-3.5504,-3.5504,-3.5504,-3.5554,-2.7544,-2.7557,0.0,-2.7795,-2.8273,-2.8976,-2.998,-3.0495,-3.0783,-3.0783,-3.0783,-3.0934,-3.1348,-3.1386,-3.1386,-3.1386,-3.1386,-3.1223,-3.0809,-3.067,-3.0419,-2.9993,-2.9854,-2.9792,-2.9792,-2.934,-2.9202,-2.9387,-2.8554,-2.7773,-2.7141,0.0,0.0,0.0,0.0,-2.7704,-2.8177,-2.7895,-2.8324,-2.9138,-2.8925,-2.9277,-2.9792,-2.9792,-2.9792,-2.9792,-2.9792,-2.9792,-2.9792,-2.9792,-2.9792,-2.9792,-2.9792,-2.9792,-2.9792,-2.9792,-2.9792,-2.9792,-2.9792,-2.9453,-2.9114,-2.9114,-2.8699,-2.8285,-2.8285,-2.7858,-2.7419,-2.7306,-2.6841,-2.6714,-2.7417,-2.7815,-2.7996,-2.7895,-2.805,-2.7872,-2.7135,-2.7363,-2.7737,-2.7925,-2.8712,-2.9456,-2.995,-3.0524,-3.0896,-3.1219,-3.1409,-3.1482,-3.1482,-3.1482,-3.1482,-3.1482,-3.167,-3.167,-3.1482,-3.167,-3.206,-3.2736,-3.3245,-3.3918,-3.4711,-3.525,-3.5504,-3.5504,-3.5504,-3.5504,-3.5504,-3.5504,-3.5504,-3.5504,-3.5504,-3.5504,-3.5504,-3.5504,-3.5504,-3.5504,-2.8034,0.0,-2.8938,-2.9465,-3.0018,-3.0583,-3.1148,-3.1286,-3.1323,-3.1323,-3.1323,-3.1336,-3.1386,-3.1386,-3.1386,-3.1386,-3.1386,-3.1373,-3.1323,-3.0871,-3.0595,-3.0545,-3.0055,-2.9792,-2.9792,-2.9741,-2.9453,-2.8925,-2.9024,-2.8066,-2.6057,-2.7365,-2.7954,-2.7967,-2.8019,-2.8158,-2.8337,-2.835,-2.8545,-2.8925,-2.8925,-2.9277,-2.9792,-2.9792,-2.9792,-2.9792,-2.9792,-2.9792,-2.9792,-2.9792,-2.9792,-2.9792,-2.9792,-2.9792,-2.9792,-2.9792,-2.9792,-2.9792,-2.9792,-2.9754,-2.9716,-2.9716,-2.9277,-2.885,-2.885,-2.8423,-2.7883,-2.7394,-2.6841,-2.6589,-2.6973,-2.7108,-2.7229,-2.7511,-2.7285,-2.7126,-2.7007,-2.679,-2.6896,-2.7657,-2.8103,-2.8597,-2.9066,-3.0133,-3.0703,-3.045,-3.1087,-3.1482,-3.1482,-3.1482,-3.1482,-3.1482,-3.1539,-3.1539,-3.1482,-3.1539,-3.2168,-3.341,-3.3469,-3.4173,-3.5415,-3.5474,-3.5504,-3.5504,-3.5504,-3.5504,-3.5504,-3.5504,-3.5504,-3.5504,-3.5504,-3.5504,-3.5504,-3.5504,-3.5504,-3.5504,-2.7428,-2.7533,-2.7987,-2.9044,-2.9355,-3.0025,-3.1667,-3.1888,-3.2001,-3.2353,-3.2102,-3.2014,-3.2365,-3.2403,-3.2403,-3.2403,-3.2403,-3.2252,-3.1901,-3.1687,-3.1286,-3.0645,-3.0407,-3.0131,-2.9804,-2.9792,-2.9756,-2.958,-2.8986,-2.8346,-2.7608,-2.785,-2.8068,-2.8402,-2.8357,-2.852,-2.8895,-2.876,-2.9013,-2.9453,-2.9453,-2.9578,-2.9792,-2.9792,-2.9792,-2.9792,-2.9792,-2.9792,-2.9792,-2.9792,-2.9792,-2.9792,-2.9792,-2.9792,-2.9792,-2.9792,-2.9792,-2.9792,-2.9792,-2.9792,-2.9792,-2.9792,-2.9616,-2.9453,-2.9453,-2.9001,-2.8536,-2.831,-2.757,-2.6924,-2.6709,-2.685,-2.6973,-2.6918,-2.6985,-2.6905,-2.6714,-2.6589,-2.6714,-2.7229,-2.7577,-2.8026,-2.8519,-2.9072,-2.9625,-3.024,-3.1029,-3.1482,-3.1482,-3.1482,-3.1482,-3.1482,-3.1482,-3.1482,-3.1482,-3.1482,-3.2198,-3.3499,-3.3499,-3.4203,-3.5504,-3.5504,-3.5504,-3.5504,-3.5504,-3.5504,-3.5504,-3.5504,-3.5504,-3.5504,-3.5504,-3.5504,-3.5504,-3.5504,-3.5504,-3.5504,-2.72,-2.7256,-2.77,-2.8564,-2.9211,-3.0073,-3.1626,-3.2199,-3.2616,-3.3018,-3.2717,-3.2616,-3.3031,-3.3081,-3.3081,-3.3081,-3.3081,-3.2905,-3.2491,-3.2303,-3.1876,-3.1122,-3.0783,-3.0432,-3.0043,-2.988,-2.9869,-3.0011,-2.9226,-2.8743,-2.8545,-2.8112,-2.8285,-2.8762,-2.8893,-2.9049,-2.9391,-2.9252,-2.9415,-2.9792,-2.9792,-2.9792,-2.9792,-2.9792,-2.9792,-2.9792,-2.9792,-2.9792,-2.9792,-2.9792,-2.9792,-2.9792,-2.9792,-2.9792,-2.9792,-2.9792,-2.9792,-2.9792,-2.9792,-2.9792,-2.9792,-2.9792,-2.9792,-2.9792,-2.9792,-2.9478,-2.9089,-2.875,-2.7946,-2.7118,-2.6634,-2.6714,-2.6782,-2.6658,-2.6782,-2.6782,-2.6658,-2.6589,-2.6589,-2.6973,-2.7323,-2.759,-2.7894,-2.828,-2.8822,-2.9476,-3.0329,-3.097,-3.1467,-3.1482,-3.1482,-3.1482,-3.1482,-3.1482,-3.1482,-3.1676,-3.2377,-3.3499,-3.3694,-3.4382,-3.5504,-3.5504,-3.5504,-3.5504,-3.5504,-3.5504,-3.5504,-3.5504,-3.5504,-3.5504,-3.5504,-3.5504,-3.5504,-3.5504,-3.5504,-3.5504,-2.772,-2.8132,-2.8567,-2.8567,-3.0047,-3.1199,-3.1211,-3.2314,-3.3068,-3.3081,-3.3068,-3.3068,-3.3081,-3.3081,-3.3081,-3.3081,-3.3081,-3.3081,-3.3068,-3.2528,-3.2202,-3.219,-3.1185,-3.062,-3.0608,-3.0068,-2.9792,-2.9792,-2.9779,-2.9202,-2.8109,-2.8303,-2.8654,-2.9225,-2.9796,-2.9998,-2.9779,-2.9779,-2.9779,-2.9792,-2.9792,-2.9792,-2.9792,-2.9792,-2.9792,-2.9792,-2.9792,-2.9792,-2.9792,-2.9792,-2.9792,-2.9792,-2.9792,-2.9792,-2.9792,-2.9792,-2.9792,-2.9792,-2.9792,-2.9792,-2.9792,-2.9792,-2.9792,-2.9792,-2.9792,-2.9779,-2.9465,-2.8348,-2.767,-2.7118,-2.6634,-2.6533,-2.6589,-2.6905,-2.6714,-2.6589,-2.6973,-2.6714,-2.6589,-2.6973,-2.7323,-2.739,-2.704,-2.8065,-2.8519,-2.7802,-2.8556,-2.9766,-3.1409,-3.1482,-3.1482,-3.1482,-3.1482,-3.1482,-3.1482,-3.2183,-3.2841,-3.3499,-3.4158,-3.4831,-3.5504,-3.5504,-3.5504,-3.5504,-3.5504,-3.5504,-3.5504,-3.5504,-3.5504,-3.5504,-3.5504,-3.5504,-3.5504,-3.5504,-3.5504,-3.5504,-2.6317,-2.6523,-2.6909,-2.7732,-2.8397,-2.9315,-3.0944,-3.1589,-3.1777,-3.1777,-3.1777,-3.1777,-3.1777,-3.2612,-3.3081,-3.3081,-3.3081,-3.3081,-3.3081,-3.2905,-3.2629,-3.2227,-3.1888,-3.1361,-3.0633,-3.0444,-3.0168,-2.9792,-2.9402,-2.9013,-2.8662,-2.8736,-2.9038,-2.9592,-2.9781,-2.9869,-2.9792,-2.9792,-2.9792,-2.9792,-2.9792,-2.9792,-2.9792,-2.9792,-2.9792,-2.9792,-2.9792,-2.9792,-2.9792,-2.9792,-2.9792,-2.9792,-2.9792,-2.9792,-2.9792,-2.9792,-2.9792,-2.9792,-2.9792,-2.9792,-2.9792,-2.9792,-2.9792,-2.9792,-2.9792,-2.9792,-2.9578,-2.8812,-2.8235,-2.767,-2.7118,-2.6716,-2.6521,-2.6658,-2.6589,-2.6521,-2.6658,-2.6782,-2.6985,-2.7323,-2.7669,-2.7736,-2.739,-2.7563,-2.7806,-2.8117,-2.8216,-2.896,-3.0615,-3.0703,-3.0896,-3.1467,-3.1482,-3.1482,-3.1482,-3.2183,-3.2841,-3.3499,-3.4158,-3.4846,-3.5504,-3.5504,-3.5504,-3.5504,-3.5504,-3.5504,-3.5504,-3.5504,-3.5504,-3.5504,-3.5504,-3.5504,-3.5504,-3.5504,-3.5504,-3.5504,-2.5742,-2.5742,-2.5917,-2.6754,-2.7315,-2.8132,-2.959,-3.0226,-3.0496,-3.0496,-3.0496,-3.0496,-3.0496,-3.1235,-3.2064,-3.2982,-3.3081,-3.3081,-3.3081,-3.3081,-3.2918,-3.2554,-3.2328,-3.1901,-3.1235,-3.0821,-3.0444,-3.0105,-2.9528,-2.9252,-2.9252,-2.9252,-2.9453,-2.9792,-2.9792,-2.9792,-2.9792,-2.9792,-2.9792,-2.9792,-2.9792,-2.9792,-2.9792,-2.9792,-2.9792,-2.9792,-2.9792,-2.9792,-2.9792,-2.9792,-2.9792,-2.9792,-2.9792,-2.9792,-2.9792,-2.9792,-2.9792,-2.9792,-2.9792,-2.9792,-2.9792,-2.9792,-2.9792,-2.9792,-2.9792,-2.9792,-2.9628,-2.9051,-2.8486,-2.7946,-2.7381,-2.6829,-2.6533,-2.6533,-2.6533,-2.6521,-2.6658,-2.6837,-2.7108,-2.7456,-2.7736,-2.7736,-2.7323,-2.721,-2.7275,-2.7617,-2.7498,-2.7934,-2.9226,-2.9766,-3.0147,-3.0524,-3.0584,-3.082,-3.1368,-3.2031,-3.2879,-3.3873,-3.4547,-3.5085,-3.5504,-3.5504,-3.5504,-3.5504,-3.5504,-3.5504,-3.5504,-3.5504,-3.5504,-3.5504,-3.5504,-3.5504,-3.5504,-3.5504,-3.5504,-3.5504,-2.5742,-2.5742,-2.5742,-2.5742,-2.6668,-2.7494,-2.7589,-2.8588,-2.9315,-2.9315,-2.9315,-2.9315,-2.9315,-2.9315,-3.0226,-3.2612,-3.2896,-3.2982,-3.3068,-3.3081,-3.3081,-3.3081,-3.2554,-3.2252,-3.2215,-3.1235,-3.0683,-3.062,-3.0105,-2.9829,-2.9792,-2.9792,-2.9792,-2.9792,-2.9792,-2.9792,-2.9792,-2.9792,-2.9792,-2.9792,-2.9792,-2.9792,-2.9792,-2.9792,-2.9792,-2.9792,-2.9792,-2.9792,-2.9792,-2.9792,-2.9792,-2.9792,-2.9792,-2.9792,-2.9792,-2.9792,-2.9792,-2.9792,-2.9792,-2.9792,-2.9792,-2.9792,-2.9792,-2.9792,-2.9792,-2.9792,-2.9641,-2.9101,-2.8549,-2.7996,-2.7444,-2.6892,-2.6571,-2.6533,-2.6521,-2.6658,-2.6973,-2.704,-2.7175,-2.7456,-2.7523,-2.739,-2.704,-2.6973,-2.6837,-2.6589,-2.6521,-2.685,-2.7604,-2.8748,-2.9254,-2.9002,-2.9002,-2.9722,-3.1209,-3.1873,-3.303,-3.4562,-3.519,-3.5504,-3.5504,-3.5504,-3.5504,-3.5504,-3.5504,-3.5504,-3.5504,-3.5504,-3.5504,-3.5504,-3.5504,-3.5504,-3.5504,-3.5504,-3.5504,-3.5504,-2.5742,-2.5742,-2.5742,-2.5742,-2.5917,-2.6476,-2.7494,-2.7861,-2.8049,-2.8049,-2.8049,-2.8049,-2.8049,-2.8049,-2.8588,-3.0135,-3.1134,-3.2052,-3.3068,-3.3081,-3.3081,-3.3081,-3.2943,-3.2667,-3.2227,-3.1964,-3.1436,-3.062,-3.0482,-3.0206,-2.9792,-2.9792,-2.9792,-2.9792,-2.9792,-2.9792,-2.9792,-2.9792,-2.9792,-2.9792,-2.9792,-2.9792,-2.9792,-2.9792,-2.9792,-2.9792,-2.9792,-2.9792,-2.9792,-2.9792,-2.9792,-2.9792,-2.9792,-2.9792,-2.9792,-2.9792,-2.9792,-2.9792,-2.9792,-2.9792,-2.9792,-2.9792,-2.9792,-2.9792,-2.9792,-2.9792,-2.9754,-2.9616,-2.9139,-2.8561,-2.8009,-2.7457,-2.6954,-2.6596,-2.6714,-2.6905,-2.6973,-2.7242,-2.739,-2.7456,-2.7523,-2.739,-2.704,-2.6973,-2.6973,-2.6905,-2.6905,-2.6973,-2.7162,-2.7417,-2.8051,-2.9002,-2.9002,-2.9722,-3.1209,-3.1873,-3.3264,-3.5265,-3.5429,-3.5504,-3.5504,-3.5504,-3.5504,-3.5504,-3.5504,-3.5504,-3.5504,-3.5504,-3.5504,-3.5504,-3.5504,-3.5504,-3.5504,-3.5504,-3.5504,-3.5504,-2.5742,-2.5742,-2.5742,-2.5742,-2.5742,-2.5917,-2.6668,-2.6754,-2.6754,-2.6754,-2.6754,-2.6754,-2.6754,-2.6754,-2.721,-2.8495,-2.9681,-3.0676,-3.1323,-3.1424,-3.1424,-3.1424,-3.1965,-3.2092,-3.1786,-3.2075,-3.18,-3.0972,-3.0733,-3.0457,-3.0168,-2.9905,-2.9792,-2.9792,-2.9792,-2.9792,-2.9792,-2.9792,-2.9792,-2.9792,-2.9792,-2.9792,-2.9792,-2.9792,-2.9792,-2.9792,-2.9792,-2.9792,-2.9792,-2.9792,-2.9792,-2.9792,-2.9792,-2.9792,-2.9792,-2.9792,-2.9792,-2.9792,-2.9792,-2.9792,-2.9792,-2.9792,-2.9792,-2.9792,-2.9792,-2.9792,-2.9792,-2.9792,-2.934,-2.8762,-2.821,-2.7657,-2.7105,-2.6622,-2.6714,-2.6905,-2.6973,-2.7255,-2.739,-2.7255,-2.7242,-2.7121,-2.6782,-2.6782,-2.6782,-2.6782,-2.6782,-2.6782,-2.6782,-2.6782,-2.7095,-2.7868,-2.812,-2.8905,-3.0419,-3.2122,-3.3857,-3.5504,-3.5504,-3.5504,-3.5504,-3.5504,-3.5504,-3.5504,-3.5504,-3.5504,-3.5504,-3.5504,-3.5504,-3.5504,-3.5504,-3.5504,-3.5504,-3.5504,-3.5504,-3.5504,-2.5742,-2.5742,-2.5742,-2.5742,-2.5742,-2.5742,-2.5742,-2.5742,-2.5742,-2.5742,-2.5742,-2.5742,-2.5742,-2.5742,-2.611,-2.722,-2.8226,-2.9039,-2.9407,-2.9407,-2.9407,-2.9407,-3.0406,-3.0944,-3.0944,-3.1675,-3.1884,-3.1512,-3.0984,-3.0696,-3.0608,-3.0043,-2.9792,-2.9792,-2.9792,-2.9792,-2.9792,-2.9792,-2.9792,-2.9792,-2.9792,-2.9792,-2.9792,-2.9792,-2.9792,-2.9792,-2.9792,-2.9792,-2.9792,-2.9792,-2.9792,-2.9792,-2.9792,-2.9792,-2.9792,-2.9792,-2.9792,-2.9792,-2.9792,-2.9792,-2.9792,-2.9792,-2.9792,-2.9792,-2.9792,-2.9792,-2.9792,-2.9792,-2.9402,-2.8863,-2.8222,-2.772,-2.7205,-2.6634,-2.6658,-2.6782,-2.6973,-2.7121,-2.7188,-2.704,-2.6973,-2.6782,-2.6521,-2.6533,-2.6533,-2.6533,-2.6533,-2.6533,-2.6533,-2.6533,-2.6571,-2.6647,-2.703,-2.8055,-2.9654,-3.254,-3.4394,-3.5279,-3.5439,-3.5504,-3.5504,-3.5504,-3.5504,-3.5504,-3.5504,-3.5504,-3.5504,-3.5504,-3.5504,-3.5504,-3.5504,-3.5504,-3.5504,-3.5504,-3.5504,-3.5504,-2.5742,-2.5742,-2.5742,-2.5742,-2.5742,-2.5742,-2.5742,-2.5742,-2.5742,-2.5742,-2.5742,-2.5742,-2.5742,-2.5742,-2.5732,-2.6014,-2.6197,-2.721,-2.9223,-2.9407,-2.9407,-2.9407,-2.959,-2.9681,-2.9681,-3.0772,-3.1563,-3.2089,-3.1537,-3.1047,-3.0608,-3.0043,-2.9792,-2.9792,-2.9792,-2.9792,-2.9792,-2.9792,-2.9792,-2.9792,-2.9792,-2.9792,-2.9792,-2.9792,-2.9792,-2.9792,-2.9792,-2.9792,-2.9792,-2.9792,-2.9792,-2.9792,-2.9792,-2.9792,-2.9792,-2.9792,-2.9792,-2.9792,-2.9792,-2.9792,-2.9792,-2.9792,-2.9792,-2.9792,-2.9792,-2.9792,-2.9792,-2.9792,-2.9729,-2.934,-2.8298,-2.8034,-2.7645,-2.6697,-2.6782,-2.6973,-2.6973,-2.704,-2.704,-2.6973,-2.6782,-2.6589,-2.6533,-2.6533,-2.6533,-2.6533,-2.6533,-2.6533,-2.6533,-2.6533,-2.6747,-2.7143,-2.7243,-2.8247,-3.0204,-3.2751,-3.4095,-3.4245,-3.5067,-3.5504,-3.5504,-3.5504,-3.5504,-3.5504,-3.5504,-3.5504,-3.5504,-3.5504,-3.5504,-3.5504,-3.5504,-3.5504,-3.5504,-3.5504,-3.5504,-3.5504,-2.5742,-2.5742,-2.5742,-2.5742,-2.5742,-2.5742,-2.5742,-2.5742,-2.5742,-2.5742,-2.5742,-2.5742,-2.5742,-2.5742,-2.5742,-2.5742,-2.5742,-2.6197,-2.7295,-2.7389,-2.7389,-2.7389,-2.8038,-2.8773,-2.9407,-2.9954,-3.0737,-3.1662,-3.1126,-3.0947,-3.1022,-3.0482,-3.008,-2.9792,-2.9792,-2.9792,-2.9792,-2.9792,-2.9792,-2.9792,-2.9792,-2.9792,-2.9792,-2.9792,-2.9792,-2.9792,-2.9792,-2.9792,-2.9792,-2.9792,-2.9792,-2.9792,-2.9792,-2.9792,-2.9792,-2.9792,-2.9792,-2.9792,-2.9792,-2.9792,-2.9792,-2.9792,-2.9792,-2.9792,-2.9792,-2.9792,-2.9792,-2.9792,-2.9792,-2.9453,-2.831,-2.8109,-2.7745,-2.6766,-2.6714,-2.685,-2.685,-2.685,-2.6782,-2.6714,-2.6589,-2.6533,-2.6533,-2.6533,-2.6533,-2.6533,-2.6533,-2.6533,-2.6533,-2.6741,-2.7017,-2.7268,-2.7858,-2.9039,-3.0784,-3.1969,-3.2749,-3.3241,-3.4245,-3.4691,-3.4691,-3.5279,-3.5504,-3.5504,-3.5504,-3.5504,-3.5504,-3.5504,-3.5504,-3.5504,-3.5504,-3.5504,-3.5504,-3.5504,-3.5504,-3.5504,-2.5742,-2.5742,-2.5742,-2.5742,-2.5742,-2.5742,-2.5742,-2.5742,-2.5742,-2.5742,-2.5742,-2.5742,-2.5742,-2.5742,-2.5742,-2.5742,-2.5742,-2.5742,-2.5742,-2.5742,-2.5742,-2.5742,-2.6668,-2.7767,-2.8947,-2.8947,-2.9681,-3.1223,-3.07,-3.0701,-3.1386,-3.0859,-3.0319,-2.9792,-2.9792,-2.9792,-2.9792,-2.9792,-2.9792,-2.9792,-2.9792,-2.9792,-2.9792,-2.9792,-2.9792,-2.9792,-2.9792,-2.9792,-2.9792,-2.9792,-2.9792,-2.9792,-2.9792,-2.9792,-2.9792,-2.9792,-2.9624,-2.9456,-2.9714,-2.9792,-2.9792,-2.9792,-2.9792,-2.9792,-2.9792,-2.9792,-2.9792,-2.9792,-2.9792,-2.9453,-2.831,-2.8109,-2.7817,-2.6835,-2.6658,-2.6658,-2.6658,-2.6658,-2.6589,-2.6533,-2.6533,-2.6533,-2.6533,-2.6533,-2.6533,-2.6533,-2.6647,-2.6722,-2.6722,-2.7168,-2.7532,-2.7657,-2.8486,-2.9541,-3.082,-3.1106,-3.1536,-3.2321,-3.3241,-3.3808,-3.4027,-3.4839,-3.5279,-3.5504,-3.5504,-3.5504,-3.5504,-3.5504,-3.5504,-3.5504,-3.5504,-3.5504,-3.5504,-3.5504,-3.5504,-3.5504,-2.5742,-2.5742,-2.5742,-2.5742,-2.5742,-2.5742,-2.5742,-2.5742,-2.5742,-2.5742,-2.5742,-2.5742,-2.5742,-2.5742,-2.5742,-2.5742,-2.5742,-2.5742,-2.5742,-2.5742,-2.5742,-2.5742,-2.583,-2.638,-2.7673,-2.7767,-2.8855,-3.1223,-3.07,-3.0701,-3.1386,-3.0859,-3.0319,-2.9792,-2.9792,-2.9792,-2.9792,-2.9792,-2.9792,-2.9792,-2.9792,-2.9792,-2.9792,-2.9792,-2.9792,-2.9792,-2.9792,-2.9792,-2.9792,-2.9792,-2.9792,-2.9792,-2.9792,-2.9792,-2.9792,-2.9792,-2.9028,-2.8438,-2.9534,-2.9792,-2.9792,-2.9792,-2.9792,-2.9792,-2.9792,-2.9792,-2.9792,-2.9792,-2.9792,-2.9453,-2.831,-2.8109,-2.7745,-2.671,-2.6533,-2.6533,-2.6533,-2.6533,-2.6533,-2.6533,-2.6533,-2.6533,-2.6533,-2.6533,-2.6533,-2.6533,-2.6929,-2.7218,-2.7218,-2.7745,-2.8285,-2.8787,-2.8888,-2.9202,-2.9934,-3.0771,-3.1254,-3.1315,-3.2249,-3.3171,-3.4027,-3.4095,-3.461,-3.5504,-3.5504,-3.5504,-3.5504,-3.5504,-3.5504,-3.5504,-3.5504,-3.5504,-3.5504,-3.5504,-3.5504,-3.5504,-2.5742,-2.5742,-2.5742,-2.5742,-2.5742,-2.5742,-2.5742,-2.5742,-2.5742,-2.5742,-2.5742,-2.5742,-2.5742,-2.5742,-2.5742,-2.5742,-2.5742,-2.5742,-2.5742,-2.5742,-2.5742,-2.5742,-2.5742,-2.5927,-2.638,-2.639,-2.7662,-3.0045,-2.985,-3.0477,-3.1888,-3.1348,-3.0462,-2.9241,-2.8913,-2.8371,-2.7718,-2.7718,-2.7718,-2.7718,-2.7718,-2.7718,-2.7799,-2.8518,-2.8767,-2.8858,-2.9534,-2.9792,-2.9792,-2.9792,-2.9792,-2.9792,-2.9792,-2.9275,-2.8609,-2.7959,-2.7464,-2.7209,-2.7637,-2.8199,-2.8767,-2.8767,-2.9287,-2.9792,-2.9792,-2.9792,-2.9792,-2.9792,-2.9792,-2.9553,-2.8762,-2.8335,-2.7931,-2.7246,-2.6829,-2.6521,-2.6589,-2.6521,-2.6647,-2.6929,-2.6967,-2.7105,-2.7444,-2.7482,-2.7482,-2.7482,-2.767,-2.7795,-2.7795,-2.831,-2.8875,-2.9453,-2.9465,-2.9566,-2.9792,-3.0139,-3.0355,-3.0343,-3.1254,-3.2249,-3.3171,-3.3739,-3.4543,-3.5504,-3.5504,-3.5504,-3.5504,-3.5504,-3.5504,-3.5504,-3.5504,-3.5504,-3.5504,-3.5504,-3.5504,-3.5504,-2.5742,-2.5742,-2.5742,-2.5742,-2.5742,-2.5742,-2.5742,-2.5742,-2.5742,-2.5742,-2.5742,-2.5742,-2.5742,-2.5742,-2.5742,-2.5742,-2.5742,-2.5742,-2.5742,-2.5742,-2.5742,-2.5742,-2.5742,-2.5742,-2.5742,-2.5742,-2.6754,-2.8866,-2.8866,-2.9602,-3.1052,-3.0689,-2.9702,-2.835,-2.7918,-2.7347,-2.6483,-2.6483,-2.6483,-2.6483,-2.6483,-2.6483,-2.6554,-2.729,-2.7614,-2.7695,-2.845,-2.8791,-2.8791,-2.8791,-2.8791,-2.8791,-2.8791,-2.8199,-2.7452,-2.6719,-2.6224,-2.5975,-2.5975,-2.6532,-2.7267,-2.7924,-2.8688,-2.9287,-2.9287,-2.9287,-2.9287,-2.9287,-2.9287,-2.9192,-2.8963,-2.8612,-2.8185,-2.7788,-2.7301,-2.705,-2.7107,-2.7037,-2.7118,-2.7494,-2.7544,-2.7695,-2.8072,-2.8109,-2.8109,-2.8109,-2.8273,-2.8448,-2.8624,-2.8988,-2.9377,-2.9779,-2.9792,-2.9792,-2.9792,-2.9792,-2.9792,-2.9792,-3.0419,-3.1254,-3.2177,-3.282,-3.3685,-3.4624,-3.492,-3.5052,-3.5052,-3.5359,-3.5504,-3.5504,-3.5504,-3.5504,-3.5504,-3.5504,-3.5504,-3.5504,-2.5742,-2.5742,-2.5742,-2.5742,-2.5742,-2.5742,-2.5742,-2.5742,-2.5742,-2.5742,-2.5742,-2.5742,-2.5742,-2.5742,-2.5742,-2.5742,-2.5742,-2.5742,-2.5742,-2.5742,-2.5742,-2.5742,-2.5742,-2.5742,-2.5742,-2.5742,-2.6294,-2.7589,-2.7589,-2.7989,-2.8589,-2.8578,-2.8053,-2.7115,-2.7104,-2.6847,-2.6483,-2.6483,-2.6483,-2.6483,-2.6483,-2.6483,-2.6483,-2.6472,-2.6483,-2.6483,-2.6483,-2.6483,-2.6483,-2.6483,-2.6483,-2.6483,-2.6483,-2.6483,-2.6472,-2.6483,-2.563,-2.4787,-2.4787,-2.4787,-2.5284,-2.751,-2.8084,-2.8096,-2.8096,-2.8084,-2.8096,-2.8096,-2.8096,-2.8258,-2.8799,-2.8938,-2.875,-2.8197,-2.8109,-2.8109,-2.8109,-2.8109,-2.8109,-2.8109,-2.8109,-2.8109,-2.8122,-2.8122,-2.8122,-2.8122,-2.8624,-2.9189,-2.9767,-2.9792,-2.9792,-2.9792,-2.9792,-2.9792,-2.9792,-2.9792,-2.9792,-2.9792,-2.9792,-3.0279,-3.118,-3.118,-3.1669,-3.2664,-3.3602,-3.4027,-3.4095,-3.5067,-3.5504,-3.5504,-3.5504,-3.5504,-3.5504,-3.5504,-3.5504,-3.5504,-2.5742,-2.5742,-2.5742,-2.5742,-2.5742,-2.5742,-2.5742,-2.5742,-2.5742,-2.5742,-2.5742,-2.5742,-2.5742,-2.5742,-2.5742,-2.5742,-2.5742,-2.5742,-2.5742,-2.5742,-2.5742,-2.5742,-2.5742,-2.5742,-2.5742,-2.5742,-2.6294,-2.7589,-2.7589,-2.815,-2.9183,-2.8746,-2.7888,-2.6483,-2.6064,-2.5238,-2.4135,-2.4135,-2.4135,-2.4135,-2.4135,-2.4135,-2.4221,-2.4967,-2.5294,-2.5378,-2.6224,-2.6483,-2.6483,-2.6483,-2.6483,-2.6389,-2.5546,-2.5294,-2.5126,-2.4392,-2.3887,-2.3637,-2.3637,-2.3637,-2.3963,-2.5452,-2.6367,-2.6964,-2.6964,-2.7533,-2.8096,-2.8096,-2.8767,-2.9069,-2.847,-2.863,-2.8624,-2.7669,-2.7879,-2.8109,-2.8109,-2.8109,-2.8247,-2.8637,-2.8687,-2.885,-2.9252,-2.9289,-2.9289,-2.9289,-2.944,-2.9616,-2.9779,-2.9792,-2.9792,-2.9792,-2.9792,-2.9792,-2.9792,-2.9792,-2.9792,-2.9792,-2.9792,-3.0279,-3.118,-3.118,-3.1669,-3.2664,-3.3602,-3.4027,-3.4095,-3.5067,-3.5504,-3.5504,-3.5504,-3.5504,-3.5504,-3.5504,-3.5504,-3.5504,-2.5742,-2.5742,-2.5742,-2.5742,-2.5742,-2.5742,-2.5742,-2.5742,-2.5742,-2.5742,-2.5742,-2.5742,-2.5742,-2.5742,-2.5742,-2.5742,-2.5742,-2.5742,-2.5742,-2.5742,-2.5742,-2.5742,-2.5742,-2.5742,-2.5742,-2.5742,-2.611,-2.6849,-2.6849,-2.721,-2.7934,-2.7554,-2.6907,-2.5808,-2.5278,-2.4395,-2.3389,-2.3213,-2.3135,-2.3135,-2.3135,-2.3135,-2.3135,-2.3887,-2.4125,-2.4211,-2.4893,-2.5147,-2.5147,-2.5147,-2.5147,-2.5062,-2.4382,-2.4125,-2.3963,-2.3299,-2.3135,-2.3135,-2.3135,-2.3135,-2.3299,-2.3963,-2.4967,-2.5808,-2.5808,-2.6367,-2.6942,-2.736,-2.7695,-2.7855,-2.8096,-2.8004,-2.7879,-2.762,-2.7924,-2.8274,-2.8687,-2.8775,-2.89,-2.9239,-2.9277,-2.9402,-2.9754,-2.9792,-2.9792,-2.9792,-2.9792,-2.9792,-2.9792,-2.9792,-2.9792,-2.9792,-2.9792,-2.9792,-2.9792,-2.9792,-2.9792,-2.9792,-2.9792,-3.0075,-3.062,-3.062,-3.0983,-3.1549,-3.289,-3.3449,-3.3518,-3.492,-3.5504,-3.5504,-3.5504,-3.5504,-3.5504,-3.5504,-3.5504,-3.5504,-2.5742,-2.5742,-2.5742,-2.5742,-2.5742,-2.5742,-2.5742,-2.5742,-2.5742,-2.5742,-2.5742,-2.5742,-2.5742,-2.5742,-2.5742,-2.5742,-2.5742,-2.5742,-2.5742,-2.5742,-2.5742,-2.5742,-2.5742,-2.5742,-2.5742,-2.5742,-2.5742,-2.5742,-2.5742,-2.5742,-2.5742,-2.5742,-2.5498,-2.5049,-2.4648,-2.4219,-2.3769,-2.3359,-2.3174,-2.3135,-2.3135,-2.3135,-2.3135,-2.3135,-2.3135,-2.3135,-2.3135,-2.3135,-2.3135,-2.3135,-2.3135,-2.3135,-2.3135,-2.3135,-2.3135,-2.3135,-2.3135,-2.3135,-2.3135,-2.3135,-2.3135,-2.3135,-2.3877,-2.4628,-2.4628,-2.4702,-2.5126,-2.6141,-2.563,-2.5535,-2.7429,-2.7116,-2.6801,-2.7683,-2.8004,-2.8438,-2.9534,-2.9714,-2.9792,-2.9792,-2.9792,-2.9792,-2.9792,-2.9792,-2.9792,-2.9792,-2.9792,-2.9792,-2.9792,-2.9792,-2.9792,-2.9792,-2.9792,-2.9792,-2.9792,-2.9792,-2.9792,-2.9792,-2.9792,-2.9792,-2.9792,-2.9792,-2.9792,-2.9856,-3.1696,-3.2464,-3.2607,-3.4491,-3.5213,-3.5213,-3.5359,-3.5359,-3.5359,-3.5439,-3.5504,-3.5504,-2.5742,-2.5742,-2.5742,-2.5742,-2.5742,-2.5742,-2.5742,-2.5742,-2.5742,-2.5742,-2.5742,-2.5742,-2.5742,-2.5742,-2.5742,-2.5742,-2.5742,-2.5742,-2.5742,-2.5742,-2.5742,-2.5742,-2.5742,-2.5742,-2.5742,-2.5742,-2.5742,-2.5742,-2.5742,-2.5742,-2.5742,-2.5742,-2.5498,-2.5059,-2.4971,-2.4502,-2.3779,-2.3691,-2.3457,-2.3135,-2.3135,-2.3135,-2.3135,-2.3135,-2.3135,-2.3135,-2.3135,-2.3135,-2.3135,-2.3135,-2.3135,-2.3135,-2.3135,-2.3135,-2.3135,-2.3135,-2.3135,-2.3135,-2.3135,-2.3135,-2.3135,-2.3135,-2.3309,-2.3464,-2.3464,-2.4125,-2.4872,-2.5126,-2.5714,-2.6047,-2.5619,-2.6047,-2.6307,-2.5619,-2.693,-2.8176,-2.8426,-2.9275,-2.9792,-2.9792,-2.9792,-2.9792,-2.9792,-2.9792,-2.9792,-2.9792,-2.9792,-2.9792,-2.9792,-2.9792,-2.9792,-2.9792,-2.9792,-2.9792,-2.9792,-2.9792,-2.9792,-2.9792,-2.9792,-2.9792,-2.9792,-2.9792,-2.9792,-2.9856,-3.097,-3.1536,-3.1609,-3.2749,-3.3255,-3.3325,-3.4027,-3.4327,-3.4394,-3.5213,-3.5504,-3.5504,-2.5742,-2.5742,-2.5742,-2.5742,-2.5742,-2.5742,-2.5742,-2.5742,-2.5742,-2.5742,-2.5742,-2.5742,-2.5742,-2.5742,-2.5742,-2.5742,-2.5742,-2.5742,-2.5742,-2.5742,-2.5742,-2.5742,-2.5742,-2.5742,-2.5742,-2.5742,-2.5742,-2.5742,-2.5742,-2.5742,-2.5742,-2.5742,-2.5615,-2.5381,-2.5166,-2.4814,-2.4375,-2.3965,-2.3662,-2.3428,-2.3223,-2.3135,-2.3135,-2.3135,-2.3135,-2.3135,-2.3135,-2.3135,-2.3135,-2.3135,-2.3135,-2.3135,-2.3135,-2.3135,-2.3135,-2.3135,-2.3135,-2.3135,-2.3135,-2.3135,-2.3135,-2.3135,-2.3135,-2.3135,-2.3135,-2.3551,-2.4125,-2.4702,-2.4798,-2.4893,-2.4787,-2.4798,-2.4893,-2.4787,-2.5775,-2.6685,-2.7279,-2.7879,-2.845,-2.8937,-2.9015,-2.9197,-2.9792,-2.9792,-2.9792,-2.9792,-2.9792,-2.9792,-2.9792,-2.9792,-2.9792,-2.9792,-2.9792,-2.9792,-2.9792,-2.9792,-2.9792,-2.9792,-2.9792,-2.9792,-2.9792,-2.9792,-2.9792,-2.9856,-3.0758,-3.118,-3.1241,-3.2249,-3.2593,-3.2678,-3.3602,-3.4027,-3.4095,-3.5133,-3.5504,-3.5504,-2.5742,-2.5742,-2.5742,-2.5742,-2.5742,-2.5742,-2.5742,-2.5742,-2.5742,-2.5742,-2.5742,-2.5742,-2.5742,-2.5742,-2.5742,-2.5742,-2.5742,-2.5742,-2.5742,-2.5742,-2.5742,-2.5742,-2.5742,-2.5742,-2.5742,-2.5742,-2.5742,-2.5742,-2.5742,-2.5742,-2.5742,-2.5742,-2.5742,-2.5723,-2.5352,-2.5137,-2.5019,-2.4316,-2.3926,-2.376,-2.3398,-2.3203,-2.3135,-2.3135,-2.3135,-2.3135,-2.3135,-2.3135,-2.3135,-2.3135,-2.3135,-2.3135,-2.3135,-2.3135,-2.3135,-2.3135,-2.3135,-2.3135,-2.3135,-2.3135,-2.3135,-2.3135,-2.3135,-2.3135,-2.3135,-2.3135,-2.3387,-2.4286,-2.38,-2.3387,-2.4382,-2.3714,-2.3387,-2.4372,-2.4702,-2.5126,-2.6058,-2.6389,-2.6801,-2.7683,-2.8004,-2.8426,-2.9456,-2.9702,-2.9792,-2.9792,-2.9792,-2.9792,-2.9792,-2.9792,-2.9792,-2.9792,-2.9792,-2.9792,-2.9792,-2.9792,-2.9792,-2.9792,-2.9792,-2.9792,-2.9792,-2.9792,-2.9792,-2.9856,-3.062,-3.097,-3.1044,-3.1829,-3.2105,-3.2177,-3.3171,-3.3518,-3.3671,-3.4839,-3.5359,-3.5504,-2.5742,-2.5742,-2.5742,-2.5742,-2.5742,-2.5742,-2.5742,-2.5742,-2.5742,-2.5742,-2.5742,-2.5742,-2.5742,-2.5742,-2.5742,-2.5742,-2.5742,-2.5742,-2.5742,-2.5742,-2.5742,-2.5742,-2.5742,-2.5742,-2.5742,-2.5742,-2.5742,-2.5742,-2.5742,-2.5742,-2.5742,-2.5742,-2.5742,-2.5742,-2.5674,-2.543,-2.5059,-2.4941,-2.4473,-2.3779,-2.3721,-2.3477,-2.3135,-2.3135,-2.3135,-2.3135,-2.3135,-2.3135,-2.3135,-2.3135,-2.3135,-2.3135,-2.3135,-2.3135,-2.3135,-2.3135,-2.3135,-2.3135,-2.3135,-2.3135,-2.3135,-2.3135,-2.3135,-2.3135,-2.3135,-2.3135,-2.3135,-2.3299,-2.3222,-2.3135,-2.3299,-2.3222,-2.3135,-2.3299,-2.4125,-2.4872,-2.5041,-2.588,-2.6554,-2.6719,-2.7522,-2.8176,-2.8335,-2.9197,-2.9792,-2.9792,-2.9792,-2.9792,-2.9792,-2.9792,-2.9792,-2.9792,-2.9792,-2.9792,-2.9792,-2.9792,-2.9792,-2.9792,-2.9792,-2.9792,-2.9792,-2.9792,-2.9792,-2.9792,-2.9934,-3.0011,-2.9998,-3.0152,-3.0139,-3.0292,-3.118,-3.1609,-3.1815,-3.3533,-3.4758,-3.5504,-2.5742,-2.5742,-2.5742,-2.5742,-2.5742,-2.5742,-2.5742,-2.5742,-2.5742,-2.5742,-2.5742,-2.5742,-2.5742,-2.5742,-2.5742,-2.5742,-2.5742,-2.5742,-2.5742,-2.5742,-2.5742,-2.5742,-2.5742,-2.5742,-2.5742,-2.5742,-2.5742,-2.5742,-2.5742,-2.5742,-2.5742,-2.5742,-2.5742,-2.5742,-2.5742,-2.5625,-2.543,-2.5176,-2.4707,-2.4121,-2.3887,-2.3525,-2.3135,-2.3135,-2.3135,-2.3135,-2.3135,-2.3135,-2.3135,-2.3135,-2.3135,-2.3135,-2.3135,-2.3135,-2.3135,-2.3135,-2.3135,-2.3135,-2.3135,-2.3135,-2.3135,-2.3135,-2.3135,-2.3135,-2.3135,-2.3135,-2.3135,-2.3135,-2.3135,-2.3135,-2.3135,-2.3135,-2.3135,-2.3135,-2.3551,-2.3887,-2.3887,-2.4307,-2.4808,-2.5462,-2.7023,-2.8096,-2.8096,-2.9106,-2.9792,-2.9792,-2.9792,-2.9792,-2.9792,-2.9792,-2.9792,-2.9792,-2.9792,-2.9792,-2.9792,-2.9792,-2.9792,-2.9792,-2.9792,-2.9792,-2.9792,-2.9792,-2.9792,-2.9792,-2.9792,-2.9792,-2.9792,-2.9792,-2.9792,-2.9856,-3.0833,-3.1536,-3.2105,-3.289,-3.3533,-3.3905]}]]